GFSSW_sfc_temp_000.txt.gz
Temp
63 63 63 63 63 63 63 64 64 64 64 63 63 63 62 61 61 74 91 96 95 81 83 99 98 100 101 99 100 101 94 87 87 88 88 95 91 94 97 90 87 89 92 90 90
63 63 62 62 63 63 63 63 63 63 63 63 63 62 61 61 80 92 93 83 81 80 101 99 97 99 99 98 100 97 95 89 94 96 93 93 93 92 90 88 83 86 89 89 90
62 62 62 62 63 63 63 63 63 63 62 62 62 62 61 66 86 98 82 81 80 84 104 105 103 101 97 100 98 98 91 94 93 96 98 94 92 95 91 87 87 82 84 87 88
62 61 61 61 62 62 62 62 62 62 62 62 62 61 61 78 82 99 81 80 80 100 103 101 101 97 95 94 98 92 94 96 94 96 97 94 97 89 90 87 90 88 88 88 87
61 61 61 61 61 61 61 61 61 61 61 62 61 61 69 85 92 96 80 82 96 100 101 100 98 98 94 96 97 94 93 95 96 97 97 97 91 86 85 89 90 89 88 88 89
60 60 60 60 60 61 61 60 59 60 61 61 61 60 79 83 100 97 97 96 101 102 102 102 100 102 98 96 95 96 95 95 97 96 97 92 90 91 85 90 88 87 88 90 90
59 59 59 60 60 60 60 59 59 60 60 60 60 72 82 92 99 99 99 102 106 106 102 103 104 100 102 94 100 95 89 91 94 94 93 96 86 83 87 90 87 88 89 89 90
59 59 59 59 59 59 58 58 60 59 60 60 62 77 88 98 102 97 102 101 104 105 105 104 104 101 99 100 95 92 93 84 91 93 92 91 78 84 90 90 87 87 88 88 88
59 59 59 59 58 58 57 57 59 60 61 63 74 79 90 86 94 102 104 99 102 103 103 101 103 99 97 92 89 90 83 85 85 94 90 91 82 87 91 91 88 88 88 89 89
58 58 58 58 57 56 56 57 62 64 68 74 79 79 92 93 99 100 103 103 99 100 97 98 99 94 95 91 79 82 84 86 84 90 89 87 85 88 90 91 89 90 89 89 90
58 58 57 57 56 56 62 76 80 78 79 88 90 89 94 100 103 99 102 101 101 98 90 95 90 86 90 92 93 91 87 85 88 92 88 86 85 86 90 90 90 91 89 91 91
58 57 57 56 56 55 68 88 88 88 80 93 90 90 94 102 92 97 104 94 93 87 94 89 84 93 95 92 90 89 86 85 86 88 89 85 83 87 89 89 90 90 89 90 92
57 57 56 55 55 64 87 88 93 91 82 88 91 91 94 97 93 94 99 97 91 88 88 86 90 94 90 89 87 88 86 86 84 85 89 84 80 81 87 89 90 91 93 92 91
57 57 56 54 65 84 88 92 95 93 78 84 86 92 95 98 91 102 103 98 92 88 89 90 93 89 89 88 90 84 91 89 86 80 76 86 74 79 84 83 86 89 90 92 91
57 56 55 53 72 83 90 95 95 91 64 88 91 102 99 93 95 93 104 97 89 90 89 86 88 87 86 89 92 84 89 87 86 82 81 79 77 83 85 81 85 89 91 92 93
56 55 54 70 71 84 91 93 91 75 64 81 89 88 88 94 93 95 93 99 98 91 91 91 97 95 93 92 92 89 86 84 86 84 72 81 78 80 84 83 88 90 92 91 93
55 54 53 69 87 90 90 90 74 68 85 80 84 89 88 87 89 89 87 86 85 79 81 87 88 93 95 86 89 90 85 73 70 70 70 80 77 80 89 87 91 91 91 92 92
53 52 62 72 84 85 87 81 64 77 81 87 87 88 84 89 88 89 86 84 91 91 86 80 75 88 94 91 85 86 86 77 62 68 74 76 72 81 88 91 94 94 95 94 91
52 81 78 83 77 82 82 71 73 79 83 81 85 81 83 87 88 87 86 87 90 92 83 81 81 93 94 94 93 85 80 90 76 79 73 79 80 86 89 88 88 89 91 92 90
64 74 84 87 84 83 79 67 78 83 84 84 78 84 79 83 82 85 85 91 90 94 97 88 78 90 89 92 88 89 93 78 81 65 63 73 74 80 82 86 88 87 88 91 90
67 76 83 86 88 81 74 78 81 88 86 81 80 81 84 84 85 84 85 90 93 92 95 93 85 82 87 84 85 83 83 84 85 79 69 68 76 88 86 88 88 89 89 90 90
71 73 84 86 78 81 77 81 70 84 88 85 84 84 84 87 84 85 85 89 95 95 85 92 87 79 82 89 90 92 87 86 76 70 77 74 75 92 91 91 91 91 91 92 91
69 76 88 84 73 75 80 79 83 82 84 83 83 85 87 85 80 86 88 94 93 92 89 91 83 75 77 84 85 84 87 89 88 86 73 71 76 89 89 88 90 91 92 90 90
67 71 80 81 80 75 77 77 77 81 82 82 83 86 84 83 86 83 86 87 90 92 72 84 86 79 76 78 86 80 84 86 86 77 77 77 79 86 87 86 89 89 89 90 88
72 69 66 73 74 74 73 75 75 75 81 82 81 82 81 79 82 82 87 86 88 74 86 89 77 83 86 88 88 85 84 83 81 83 77 80 79 84 86 86 88 90 90 87 85
64 65 73 74 67 70 63 71 72 74 75 77 77 78 81 79 81 81 85 86 85 86 86 86 78 82 80 85 85 82 85 85 84 84 81 81 79 89 89 90 88 89 89 86 85
67 69 64 58 68 70 70 69 69 72 75 77 75 77 79 77 76 80 82 83 84 83 83 82 80 76 74 81 80 74 81 83 84 84 83 76 83 87 85 86 86 86 87 86 86

GFSSW_sfc_temp_003.txt.gz
Temp
63 63 63 63 63 63 64 64 64 64 64 64 64 63 63 62 61 79 93 99 99 81 83 106 104 105 106 104 109 109 90 90 90 91 92 100 96 101 101 94 95 96 94 94 96
63 63 62 62 63 63 63 63 63 63 63 63 63 63 63 62 82 95 95 82 82 81 103 103 102 105 102 104 106 101 95 93 100 100 97 99 98 97 95 91 91 93 96 96 95
62 62 62 62 63 63 63 63 63 63 63 63 63 63 62 66 90 100 85 82 81 86 109 109 109 105 101 105 104 103 94 98 98 102 103 99 97 100 97 90 91 87 89 92 92
62 61 61 62 62 62 62 62 62 62 62 62 63 63 62 81 83 102 82 81 81 102 107 106 105 100 99 97 103 95 99 100 100 101 101 98 100 94 93 93 96 93 93 92 91
61 61 61 61 61 61 61 61 61 61 62 62 63 62 70 87 94 100 82 84 100 102 104 104 101 102 97 101 101 98 98 100 101 102 101 100 94 90 89 95 96 95 93 91 93
60 60 60 60 60 61 61 60 59 61 62 63 63 61 81 86 110 108 106 101 107 106 105 107 104 108 103 100 100 101 99 99 101 100 100 95 93 92 90 95 92 92 92 93 93
59 59 59 60 60 60 60 59 59 62 62 62 62 73 90 95 108 108 108 106 110 109 106 109 110 104 105 98 104 101 94 97 98 99 97 99 89 86 92 93 91 92 93 93 93
59 59 59 59 59 59 58 58 59 61 61 61 62 81 90 108 110 104 109 108 113 113 112 113 111 107 105 106 100 95 95 87 96 97 95 71 78 88 95 93 90 91 92 92 93
59 59 59 58 58 58 57 57 61 61 62 64 74 84 91 91 100 107 111 105 108 110 110 108 108 103 103 95 91 93 85 85 89 98 88 73 83 90 97 95 91 92 92 92 92
58 58 58 58 57 57 56 57 63 63 67 81 87 85 96 96 105 106 111 109 104 104 101 101 102 97 97 93 81 84 86 90 87 94 94 83 84 91 95 95 92 93 92 93 93
58 58 57 57 57 55 63 81 81 78 86 91 94 95 99 108 108 103 108 106 105 100 91 97 92 88 93 95 96 94 90 88 92 96 93 90 87 89 94 95 93 94 92 93 94
58 57 57 57 55 55 66 89 95 95 84 99 99 99 103 106 95 101 108 97 96 89 95 92 87 96 99 97 94 91 89 88 93 95 92 89 88 91 93 93 94 94 93 94 95
57 57 56 55 55 65 90 94 104 100 85 95 100 97 99 103 96 97 103 100 93 90 92 89 92 98 96 93 90 90 88 89 88 92 94 86 85 87 92 94 95 97 97 97 95
57 57 56 55 65 90 93 102 102 101 78 88 92 97 101 100 93 105 106 101 95 90 93 92 98 94 93 90 92 85 94 93 90 86 79 91 75 82 88 89 92 94 96 97 97
57 57 55 53 73 86 97 103 104 98 65 93 95 109 103 94 97 98 107 101 91 92 93 88 93 91 89 91 95 88 96 91 90 87 85 82 80 80 81 84 89 93 95 97 98
56 56 55 77 75 86 96 100 96 76 66 86 93 92 92 95 97 100 98 104 102 94 95 94 101 97 95 98 97 96 91 90 90 87 75 82 76 82 79 85 90 93 96 97 98
55 54 55 71 85 99 98 92 75 68 90 84 87 92 90 89 92 93 89 89 87 81 82 90 92 98 100 93 96 93 87 75 72 73 73 86 82 83 92 95 95 95 95 98 99
54 52 65 75 89 89 88 81 65 79 84 92 93 92 86 91 91 90 88 85 92 92 86 82 78 92 97 93 88 88 88 78 64 70 76 84 74 83 95 98 98 99 100 99 97
53 84 87 91 87 90 84 71 74 82 90 88 90 85 85 91 91 88 87 87 91 95 84 83 83 97 97 99 96 87 82 94 83 83 77 81 85 92 93 93 94 96 98 98 97
64 79 88 98 91 85 80 66 82 92 89 89 81 87 82 87 86 87 86 92 92 97 101 93 81 94 96 99 98 92 95 81 83 67 66 77 77 80 85 89 93 94 95 97 99
67 80 93 97 92 82 75 78 84 93 91 85 84 85 87 87 88 87 87 93 97 96 99 96 90 87 93 88 87 88 85 87 88 81 72 71 77 91 88 91 91 94 95 97 98
76 75 93 95 77 82 79 84 77 90 93 89 90 88 88 90 88 88 87 92 100 100 90 95 90 81 86 95 97 95 88 88 77 73 80 78 78 95 94 95 95 94 96 97 98
72 82 95 92 74 78 84 85 88 86 88 88 87 91 93 89 83 89 91 99 100 97 92 95 86 77 80 89 93 88 91 92 91 88 74 73 77 93 94 93 94 94 97 96 95
72 74 85 85 87 81 81 81 81 88 87 90 88 90 88 86 92 87 90 96 98 98 79 90 88 81 77 81 88 82 86 90 89 79 80 79 81 87 90 90 92 94 95 96 95
75 77 77 77 80 82 83 83 80 80 87 89 85 86 86 82 86 86 92 93 94 78 91 93 80 85 87 90 90 88 86 87 84 85 79 82 79 87 90 90 91 93 94 94 93
69 70 76 78 75 75 68 77 79 83 81 82 82 88 87 82 78 84 89 89 87 92 90 92 80 84 82 89 89 86 89 89 88 88 86 87 84 93 94 94 92 92 93 92 93
72 76 71 67 77 76 78 79 79 80 82 84 82 83 83 82 84 86 89 91 90 88 86 85 84 80 75 86 86 79 85 87 88 91 88 81 87 91 89 89 90 90 91 91 93

GFSSW_sfc_temp_006.txt.gz
Temp
63 63 62 62 63 63 63 63 63 64 64 64 64 63 63 63 62 79 90 99 97 82 81 105 106 105 107 102 105 95 83 85 86 88 87 97 93 99 101 94 95 96 91 93 97
63 62 62 62 62 63 63 63 63 63 63 63 63 63 63 63 78 90 97 86 82 81 101 102 102 105 101 102 105 99 88 89 94 98 81 75 87 95 93 92 92 91 94 95 96
62 62 62 62 62 62 62 62 62 62 62 62 63 63 63 66 84 95 92 84 83 85 105 109 107 105 99 104 103 100 92 98 98 99 87 80 86 80 73 86 91 86 89 92 93
61 61 61 61 62 62 62 62 61 61 62 63 63 63 63 76 80 99 83 83 83 102 104 104 103 98 96 96 103 95 100 100 100 95 94 95 91 78 74 75 95 93 93 92 91
61 60 60 60 61 61 61 61 60 60 62 62 63 64 69 82 89 99 82 84 100 101 101 101 99 99 95 100 100 96 98 100 100 99 98 97 91 83 82 91 96 95 93 91 91
60 60 60 60 60 61 60 60 59 60 62 63 64 61 76 80 110 104 105 100 105 102 102 104 102 105 102 100 98 100 99 99 101 99 98 93 91 90 90 94 92 92 91 92 92
59 59 59 60 60 60 60 59 59 60 62 63 64 73 83 90 111 111 109 103 107 106 102 108 109 104 104 99 104 100 93 96 97 97 94 96 86 84 91 93 90 90 91 92 93
59 59 59 59 59 59 58 58 58 61 63 63 63 79 81 107 111 108 109 105 109 111 109 112 111 106 103 106 100 94 94 85 94 92 90 91 77 87 93 91 89 91 92 92 92
59 59 59 58 58 58 57 57 59 62 64 64 71 81 85 95 101 107 109 103 106 109 110 113 108 100 102 94 89 91 82 83 86 92 90 87 81 89 95 93 90 92 92 92 91
58 58 58 58 57 57 56 57 66 64 67 80 83 81 91 95 103 106 110 108 103 104 102 100 98 93 94 92 78 83 82 85 84 90 89 86 84 90 94 93 91 92 91 91 92
58 58 57 57 57 56 60 84 80 76 83 86 91 92 99 105 109 103 108 105 103 99 89 95 87 84 91 93 94 93 89 84 89 90 86 85 84 88 93 93 90 91 90 91 92
58 57 57 57 56 56 60 83 92 97 84 96 96 98 104 107 95 100 108 96 94 87 93 89 84 94 98 96 94 93 89 87 92 95 91 83 82 89 92 92 92 91 90 92 93
57 57 57 56 56 64 82 90 104 102 84 89 97 97 99 104 95 96 102 98 92 88 89 85 90 97 96 93 90 90 87 88 88 92 93 89 80 74 89 94 94 95 94 94 93
57 57 56 55 66 82 87 102 105 104 76 83 91 96 101 101 92 105 105 99 94 88 91 90 97 94 92 91 92 84 94 92 91 86 77 89 72 74 83 88 91 93 94 95 94
57 57 56 54 65 77 95 102 104 96 60 92 94 108 102 94 96 98 106 99 90 90 91 87 91 91 88 91 95 87 96 92 91 86 84 84 76 76 86 83 87 92 94 96 96
57 56 55 71 69 80 91 98 95 72 62 87 95 92 91 93 94 99 97 102 101 93 94 92 100 97 94 97 96 97 92 91 90 86 74 81 80 73 75 83 87 91 95 96 97
55 54 55 66 75 97 93 89 71 63 86 84 87 92 90 87 89 93 89 87 84 79 80 89 91 98 99 91 96 94 86 73 70 71 70 85 80 80 87 91 90 77 76 97 98
54 53 62 74 78 79 85 76 61 75 79 93 92 91 85 90 88 90 87 82 89 89 84 79 77 91 97 93 89 88 86 75 63 68 74 85 74 80 94 96 94 94 93 98 97
53 77 84 87 85 87 81 65 69 76 87 87 91 85 84 89 89 89 86 84 89 91 81 80 80 96 97 98 96 87 81 92 80 83 76 80 84 91 94 94 95 96 98 95 96
59 71 81 96 94 85 75 62 77 87 90 91 80 87 80 85 84 85 84 90 89 94 97 89 79 93 96 98 97 91 94 79 81 66 65 76 78 78 83 87 92 93 95 97 97
64 75 95 100 93 80 69 73 80 90 92 86 83 83 87 85 87 85 85 90 94 93 97 94 88 86 93 87 86 88 85 86 86 81 70 68 70 87 86 90 91 94 96 97 98
71 71 96 97 75 79 74 79 76 88 93 90 89 87 84 87 86 86 85 89 98 97 89 95 90 80 85 95 97 94 87 86 75 72 78 76 75 94 93 93 94 94 96 97 98
64 76 95 93 70 74 80 82 86 87 88 88 86 89 90 86 81 89 90 98 99 96 91 93 85 76 79 89 93 87 90 90 88 86 74 72 73 92 94 93 94 94 95 94 94
62 70 83 86 84 78 78 79 80 90 89 90 88 91 88 85 89 85 90 96 100 98 82 91 88 80 75 80 87 82 86 89 87 76 77 78 78 85 89 90 90 93 94 94 93
65 70 77 73 78 79 80 81 80 80 89 89 84 85 85 79 84 85 91 93 98 85 93 93 80 84 86 88 89 87 86 87 83 84 76 79 77 79 80 89 90 92 93 93 93
63 62 71 69 74 77 73 77 77 83 84 82 81 86 87 82 82 78 81 85 89 93 91 92 79 83 80 87 88 84 88 88 87 87 86 86 83 85 91 91 91 91 92 91 92
70 67 65 64 73 75 77 79 80 84 86 87 86 82 82 78 85 88 90 90 89 88 86 85 82 77 73 83 83 77 85 87 88 89 87 78 86 89 86 89 89 90 91 90 91

GFSSW_sfc_temp_009.txt.gz
Temp
62 62 62 62 62 63 63 63 63 63 63 63 63 62 63 62 62 67 76 88 89 83 80 95 97 97 98 93 90 90 64 67 65 69 74 85 86 91 92 86 87 89 85 86 89
62 62 62 62 62 62 62 62 62 62 62 62 63 63 63 62 67 77 88 85 85 80 94 93 92 96 88 90 92 78 70 78 80 84 77 82 82 79 84 84 82 84 89 90 89
62 61 61 61 62 62 62 62 62 62 62 62 62 63 63 62 69 83 84 87 84 82 95 97 97 95 87 92 90 85 78 88 88 89 83 80 81 81 78 79 82 79 83 88 86
61 61 61 61 61 61 62 62 61 61 61 62 63 63 63 65 68 91 82 83 84 92 94 94 92 85 83 84 95 88 93 91 88 87 82 78 78 81 80 79 88 87 87 86 85
60 60 60 60 61 61 61 61 60 60 61 62 63 64 64 68 78 93 82 83 90 92 92 91 88 86 82 86 91 88 90 92 92 89 82 83 77 77 80 86 90 89 88 84 84
60 60 60 60 60 60 60 60 59 60 60 63 64 63 62 66 96 100 94 89 95 91 91 93 90 93 89 89 86 93 91 91 91 88 89 82 78 79 81 88 88 87 84 85 84
59 59 59 59 60 60 59 59 59 60 61 63 64 69 71 75 100 95 94 88 92 92 89 97 98 90 91 86 95 94 84 90 89 88 85 88 78 78 86 88 85 85 85 86 86
59 59 59 59 59 59 58 58 59 60 61 63 64 66 64 94 93 95 97 92 95 95 95 98 100 93 88 91 91 84 81 71 82 85 87 81 68 81 86 84 82 85 86 86 84
59 59 59 59 58 58 57 57 60 63 63 64 61 63 70 94 89 96 98 94 93 93 95 105 98 88 88 78 73 77 67 72 76 83 84 78 72 82 86 84 82 84 85 85 83
58 58 58 58 57 57 56 58 65 63 64 73 77 68 76 85 93 98 98 100 92 91 92 90 85 77 76 70 62 68 71 75 74 81 83 77 74 82 85 84 83 84 84 83 84
58 58 57 57 57 56 55 62 67 65 73 75 75 79 88 94 98 95 100 95 92 84 76 82 72 68 75 79 82 82 79 75 82 86 79 75 77 80 84 84 81 80 80 82 83
58 57 57 57 56 56 53 62 77 84 75 88 89 88 94 95 88 94 98 86 83 75 80 76 70 81 87 86 85 82 79 74 80 86 78 75 75 81 78 78 84 82 81 82 81
57 57 57 56 55 58 67 75 88 87 70 81 88 87 90 93 88 88 91 89 81 76 79 73 78 89 86 84 83 79 74 77 76 82 84 77 68 66 77 81 85 86 85 85 82
57 57 56 55 60 66 71 85 90 92 61 72 79 86 90 92 85 99 97 89 82 78 81 78 87 86 84 82 83 68 84 85 82 76 62 76 55 63 70 73 82 84 84 84 83
57 57 55 54 54 60 79 83 85 82 47 82 82 98 91 84 87 89 99 90 80 81 79 76 81 82 81 84 86 78 86 82 81 71 67 70 61 64 70 68 78 82 84 86 85
57 56 55 60 56 63 73 78 77 58 52 77 87 84 82 86 87 91 90 92 91 83 84 82 91 87 86 90 89 89 80 77 75 66 55 65 64 58 66 73 81 84 87 88 86
55 54 53 59 60 78 72 72 56 52 77 76 79 84 81 78 83 84 82 78 73 66 68 80 82 88 91 79 84 80 65 55 53 54 55 66 65 62 77 83 83 78 81 82 89
54 53 54 62 59 63 64 61 49 67 68 80 80 84 77 81 80 82 79 74 80 77 68 66 66 81 90 80 75 73 68 56 50 52 61 74 64 68 84 86 87 85 85 89 82
53 63 69 73 70 73 61 53 56 66 77 77 79 76 75 82 80 79 76 76 80 81 68 67 68 87 89 89 84 74 65 74 62 66 58 65 71 77 82 81 84 83 83 86 87
51 58 66 82 77 71 58 54 65 76 79 79 69 75 71 77 77 75 75 82 81 86 85 73 63 82 87 88 88 77 80 63 60 50 50 61 64 63 69 74 79 78 78 80 82
54 61 80 86 81 67 56 61 70 78 79 73 70 72 75 75 78 75 76 83 86 85 87 81 69 75 83 76 73 71 68 66 65 60 53 52 58 69 75 77 77 80 82 81 83
58 56 83 88 65 65 61 67 67 77 82 79 80 78 76 77 74 77 76 82 91 88 79 83 69 68 76 83 87 79 73 68 57 57 59 58 61 84 79 79 80 81 82 83 83
50 60 79 82 61 63 69 71 76 76 77 77 77 81 83 75 66 75 81 91 91 87 81 82 73 63 67 78 83 79 78 72 68 64 58 55 61 77 80 78 79 79 80 80 83
52 55 68 70 74 69 66 68 71 82 79 81 79 81 79 73 77 72 78 88 92 90 83 80 69 64 61 69 77 73 79 76 69 58 60 61 67 69 73 74 79 80 80 80 80
56 58 64 57 60 59 64 68 69 70 81 82 78 76 74 68 71 71 78 78 89 86 83 81 64 67 71 78 80 80 79 78 69 67 61 65 67 69 74 76 79 82 84 81 80
56 54 58 55 60 64 64 65 69 73 75 71 70 79 77 69 67 65 71 71 71 78 84 82 64 69 66 77 80 77 81 80 80 77 73 72 68 79 81 77 76 81 81 79 78
60 62 56 54 58 58 63 65 72 77 71 75 72 75 75 73 77 74 76 78 76 71 70 70 67 61 58 69 70 64 71 75 77 81 77 68 71 74 72 75 73 75 80 79 78

GFSSW_sfc_temp_012.txt.gz
Temp
62 62 62 62 62 63 63 63 63 63 63 63 63 62 63 62 62 63 72 84 84 80 82 90 88 91 90 85 85 82 64 63 68 69 71 82 78 85 86 79 82 84 79 80 84
62 62 61 62 62 62 62 62 63 62 62 62 62 62 63 62 62 69 82 83 82 80 89 87 87 87 80 83 83 77 67 70 78 77 73 82 81 81 79 78 78 80 83 84 84
61 61 61 61 62 62 62 62 62 62 62 62 62 63 62 61 66 77 81 84 81 83 92 90 89 87 78 81 81 79 76 81 81 82 81 78 79 82 78 74 79 75 78 81 81
61 61 61 61 61 61 61 61 61 61 61 61 62 63 63 60 65 87 81 80 81 88 88 88 85 78 77 77 86 77 80 86 84 83 78 78 78 77 78 79 85 81 81 80 79
60 60 60 60 60 60 61 60 60 60 61 61 63 63 61 64 72 89 82 81 85 88 87 85 80 78 75 78 86 79 81 86 86 81 79 80 76 77 79 84 87 85 82 79 79
60 59 59 59 60 60 60 59 59 60 61 61 63 63 60 62 87 92 88 86 88 86 86 85 85 85 81 80 83 87 85 84 83 79 79 76 76 79 81 85 84 84 81 81 81
59 59 59 59 59 59 59 59 59 60 61 61 63 66 65 73 90 88 85 81 87 86 83 88 89 81 82 80 87 89 79 82 80 79 79 82 74 75 82 84 81 81 81 82 82
59 59 59 59 59 59 58 58 58 60 62 61 64 61 62 85 83 85 84 85 88 82 86 89 88 83 79 84 86 79 78 66 76 81 81 76 64 77 83 81 78 81 82 82 80
59 59 58 58 58 58 57 57 60 64 63 64 57 58 65 85 82 87 88 87 85 81 85 98 87 80 80 74 68 69 65 69 72 80 79 72 67 78 82 80 77 79 81 82 80
58 58 58 58 57 56 56 57 60 61 63 68 72 62 72 80 85 91 89 92 84 83 84 82 77 71 67 66 58 63 64 72 70 77 76 72 70 77 80 79 79 79 81 81 80
58 58 57 57 57 56 54 53 65 63 65 68 73 75 83 85 91 90 93 87 83 77 69 75 68 64 70 72 74 72 72 70 77 81 74 72 71 76 79 79 78 79 79 79 79
58 57 57 56 56 55 52 54 67 68 62 79 79 80 86 83 80 86 89 80 75 69 72 69 64 75 79 78 76 73 72 72 75 81 75 71 71 77 79 79 79 79 79 80 79
57 57 56 56 55 53 56 64 74 69 58 71 79 81 83 83 79 82 84 79 74 69 70 65 72 82 80 76 74 72 72 74 71 77 76 73 65 67 76 81 80 82 82 81 78
57 57 56 54 56 53 61 69 71 71 54 65 69 78 82 84 76 91 90 83 74 72 71 69 80 79 76 75 75 64 79 82 76 73 61 72 55 62 72 74 76 78 79 80 79
57 56 55 54 47 49 68 67 71 67 44 74 74 88 81 76 77 82 93 81 74 74 71 69 75 76 74 77 80 74 81 79 77 72 64 64 56 68 65 68 72 75 80 81 80
56 56 55 52 47 52 60 60 63 55 45 68 79 73 75 76 79 84 85 83 83 76 73 74 82 79 79 84 82 85 76 69 65 60 52 63 63 56 61 70 73 75 81 82 81
55 54 53 56 48 58 59 62 52 45 68 69 68 73 71 70 75 78 77 72 71 60 58 71 77 81 85 73 78 75 61 53 52 50 51 58 62 67 69 77 77 76 80 83 83
54 52 51 54 53 55 52 56 43 60 63 72 73 74 68 72 72 75 72 70 74 66 62 58 62 76 81 77 72 68 64 52 48 48 55 63 57 68 76 81 80 84 84 84 82
52 47 51 53 58 54 55 45 49 56 68 70 68 66 64 73 71 72 67 71 76 70 63 56 61 78 81 84 78 70 61 68 57 51 54 58 66 72 76 77 81 78 83 81 82
48 44 49 63 63 56 50 50 54 67 71 70 59 65 59 64 66 65 68 74 76 76 72 65 58 72 81 79 79 76 73 60 54 49 46 54 58 60 66 72 77 78 79 80 83
43 45 60 64 64 53 45 49 61 72 73 67 63 64 65 65 67 68 71 77 81 80 73 71 61 68 70 68 71 67 63 60 61 54 51 48 55 67 68 74 75 78 81 77 79
41 43 65 69 52 50 47 57 61 68 72 70 72 69 67 70 67 69 70 76 85 84 72 70 61 62 68 76 81 72 68 63 56 54 53 53 56 73 74 76 79 77 79 75 77
39 41 60 63 45 48 55 63 68 67 67 68 69 74 75 70 63 71 73 83 83 83 77 74 58 58 60 65 69 71 70 63 59 55 54 53 56 71 73 74 76 75 75 74 75
40 39 51 55 53 51 50 56 61 73 70 73 71 75 72 67 69 67 70 80 83 85 80 76 58 61 60 60 66 65 72 69 63 54 54 57 60 66 70 72 72 74 75 74 76
42 43 48 43 47 49 48 56 60 61 69 69 68 72 67 63 66 66 68 71 77 81 81 74 60 60 64 75 74 75 76 70 63 63 63 63 64 65 69 73 75 76 76 76 75
43 45 47 44 46 49 50 52 59 63 64 64 63 69 66 62 65 61 63 59 62 70 69 65 61 63 68 75 75 74 76 77 74 72 68 67 65 70 76 72 73 78 76 76 75
46 49 43 42 44 46 49 54 58 63 65 68 65 65 67 68 72 70 68 67 68 62 63 65 63 57 59 67 69 64 69 71 75 72 73 64 69 70 68 73 71 73 75 76 77

GFSSW_sfc_temp_015.txt.gz
Temp
62 62 61 61 62 62 63 63 63 63 63 63 62 62 62 62 61 62 69 83 80 80 81 86 87 89 88 83 85 83 64 61 66 67 69 78 72 79 81 76 80 81 76 77 80
61 61 61 61 62 62 62 62 62 62 62 62 62 63 62 62 59 65 79 81 81 79 85 84 84 85 79 80 81 74 64 69 76 75 73 77 76 75 75 74 74 75 79 80 80
61 61 61 61 61 61 61 62 62 62 62 62 62 62 62 61 63 75 82 82 81 81 88 87 85 83 76 76 76 73 69 77 78 78 81 77 77 79 73 69 73 71 74 78 78
61 60 60 60 61 61 61 61 61 61 61 61 62 63 63 58 64 82 81 79 81 83 87 84 81 74 71 73 79 72 79 81 79 81 77 76 78 76 75 74 80 78 78 78 76
60 60 60 60 60 60 60 60 60 60 60 61 62 63 60 62 70 84 82 80 80 84 83 83 79 76 74 76 78 75 78 82 82 78 78 78 75 75 76 81 82 80 79 77 76
60 59 59 59 60 60 60 59 59 60 60 61 62 63 59 61 83 85 83 79 81 81 81 83 81 82 77 78 77 80 78 80 78 76 76 74 75 76 78 80 78 78 76 77 77
59 59 59 59 59 59 59 58 59 59 60 62 62 64 63 72 85 82 78 76 81 82 79 84 84 79 76 75 83 83 73 77 76 73 74 78 70 70 79 79 76 76 76 77 78
59 59 59 59 59 58 58 58 58 60 62 62 63 59 62 82 80 82 81 80 83 80 81 85 87 80 75 79 81 74 70 64 71 75 77 73 61 73 79 78 74 76 77 77 77
58 58 58 58 58 57 57 57 60 64 63 63 56 58 63 81 78 83 85 83 83 78 78 95 85 77 75 69 64 68 63 62 68 77 75 69 63 74 79 78 76 77 77 78 77
58 58 58 57 57 56 56 57 59 60 63 66 69 60 70 76 81 86 82 87 81 80 80 78 73 68 64 63 55 64 61 65 66 75 74 68 66 74 77 76 75 76 78 78 77
58 57 57 57 56 55 53 52 63 61 60 64 67 71 78 82 84 85 85 82 80 73 67 71 66 61 67 70 71 70 67 67 72 76 70 68 66 71 75 75 74 75 76 77 78
57 57 56 56 55 55 49 58 61 62 55 71 73 76 81 79 75 83 87 76 73 66 68 65 61 72 75 74 73 71 67 67 72 75 70 66 66 73 74 74 76 75 76 77 77
57 56 56 55 54 53 52 59 67 62 53 64 72 74 76 78 73 76 81 75 70 66 66 61 68 77 76 72 71 66 65 67 68 73 71 68 62 67 73 76 78 79 79 79 77
57 56 56 54 53 48 55 61 61 63 51 61 65 74 76 78 71 85 84 78 70 67 67 66 75 75 71 71 72 58 74 75 72 69 58 69 51 61 68 71 74 77 78 79 79
56 56 55 55 46 46 63 58 59 61 41 69 70 82 73 74 75 79 85 77 70 70 67 65 71 70 69 72 76 70 76 74 71 68 59 60 55 59 67 64 71 75 78 79 80
56 55 55 50 46 49 55 54 58 53 43 64 75 69 68 68 75 79 78 79 79 71 67 71 76 75 74 78 79 77 72 65 59 58 51 60 60 55 60 69 73 77 78 80 80
54 53 52 55 47 52 54 59 50 43 64 64 63 69 65 62 72 74 70 69 66 59 54 65 71 73 78 68 72 70 61 50 48 48 48 58 58 63 69 76 78 76 76 79 80
53 52 51 52 52 53 54 53 40 57 60 67 68 70 64 67 65 70 67 65 67 63 56 55 57 70 75 71 66 64 62 50 45 44 52 56 53 66 77 79 82 82 80 80 79
52 45 45 49 53 50 52 42 46 53 64 65 64 60 59 67 67 66 62 68 73 66 59 53 56 71 76 78 74 63 58 65 53 45 49 52 60 71 72 74 79 80 78 78 79
47 42 44 56 56 51 48 45 52 62 67 64 54 60 54 60 62 61 59 69 70 71 69 62 53 66 76 75 74 73 69 56 51 46 43 51 54 58 67 67 72 75 76 78 80
41 42 55 55 54 49 43 46 57 67 69 62 59 58 58 58 61 57 61 69 74 74 74 61 58 61 67 65 68 63 59 55 56 50 48 47 53 64 70 68 69 74 79 80 80
40 41 57 57 47 43 43 51 60 64 66 65 64 62 60 62 59 58 60 67 77 77 64 65 59 59 63 69 71 67 65 62 59 50 47 50 54 69 70 70 75 75 78 79 81
42 37 53 56 42 44 50 58 62 61 63 62 62 66 69 63 56 63 65 76 79 75 72 64 53 51 55 58 62 63 63 57 54 51 49 51 55 69 68 69 72 73 72 74 76
42 37 47 50 46 45 45 51 56 68 65 66 63 66 65 60 64 60 65 74 79 76 77 72 52 63 59 58 63 61 66 62 61 52 52 54 60 64 67 69 69 71 71 73 76
42 41 44 40 45 45 44 50 55 55 63 65 57 63 65 52 57 59 67 70 73 72 72 71 57 56 68 71 67 68 69 65 62 64 62 65 61 66 67 69 71 75 72 70 72
41 40 44 41 42 45 45 48 51 55 56 58 57 65 63 57 64 63 65 60 62 66 59 62 57 59 58 67 70 68 70 71 70 63 63 61 61 66 73 67 69 74 74 72 69
44 44 43 43 41 42 45 48 52 55 58 62 62 58 61 64 69 70 70 67 61 61 58 59 63 53 59 61 63 57 66 68 68 69 69 62 67 66 65 68 72 70 72 74 72

GFSSW_sfc_temp_018.txt.gz
Temp
62 62 61 61 62 62 62 62 63 63 63 63 62 62 62 62 61 61 69 81 79 80 80 82 82 84 85 79 80 77 62 59 63 64 66 74 70 77 79 74 77 77 73 75 76
61 61 61 61 61 61 62 62 62 62 62 62 62 62 62 62 57 62 78 80 80 79 84 82 81 82 76 78 77 70 63 66 73 72 68 74 73 73 72 72 71 72 75 76 76
61 61 61 61 61 61 61 61 61 61 61 61 62 62 62 61 63 74 82 81 80 81 86 84 84 82 74 75 75 71 68 74 76 77 77 72 73 76 71 66 70 68 70 73 73
61 60 60 60 61 61 61 61 61 61 61 61 62 62 62 57 62 76 81 79 80 80 84 82 79 74 72 72 76 71 76 77 76 78 75 72 75 72 72 72 77 75 75 74 72
60 60 60 60 60 60 60 60 60 60 60 61 62 62 57 60 68 82 82 79 77 79 81 80 77 74 72 73 76 72 74 77 78 75 75 77 73 72 72 77 78 77 75 74 73
59 59 59 59 59 60 60 59 59 59 60 61 62 62 56 59 81 81 78 76 77 78 79 81 79 79 75 73 73 75 76 75 75 73 74 73 72 74 74 77 75 75 74 75 74
59 59 59 59 59 59 59 58 58 59 60 62 62 62 59 70 83 78 75 74 77 79 77 80 81 78 74 70 77 77 69 73 72 72 72 77 68 69 75 76 73 74 74 75 75
59 59 59 59 59 58 58 57 57 60 62 63 63 58 59 79 77 79 77 75 77 76 80 80 81 76 73 75 76 70 67 62 68 72 74 72 60 71 75 74 71 73 74 75 75
58 58 58 58 57 57 56 56 59 62 63 64 56 56 61 79 75 79 80 80 78 74 77 91 81 71 73 67 62 64 57 60 65 73 72 67 61 71 74 73 70 72 73 74 74
57 57 57 57 57 56 56 56 58 60 63 65 68 58 68 72 77 83 79 83 78 76 78 73 68 63 61 61 54 58 59 58 63 70 71 66 63 70 73 72 71 72 73 73 74
57 57 57 57 56 55 52 52 59 58 57 63 64 67 73 78 79 80 82 79 76 70 64 67 62 58 64 68 69 67 65 66 68 72 67 64 64 68 72 73 71 72 72 73 75
57 57 56 56 55 54 49 56 58 57 53 66 68 70 76 74 72 78 83 74 69 64 63 61 59 67 72 71 69 68 64 65 67 72 68 63 63 69 72 72 73 73 73 74 75
56 56 56 56 54 51 47 54 61 57 51 61 66 68 70 74 69 73 79 72 68 64 62 58 65 73 72 67 67 64 67 64 68 68 68 65 60 63 69 73 74 75 76 77 76
56 56 56 54 52 46 52 56 56 57 48 58 62 70 70 72 66 81 81 76 67 65 64 63 72 72 68 67 68 59 70 72 67 65 57 66 51 58 66 68 71 73 75 76 77
56 56 55 54 45 45 58 50 54 55 41 66 66 78 70 69 70 72 81 74 66 67 64 62 65 68 66 70 72 68 72 69 69 63 58 57 54 59 64 63 68 73 75 77 78
55 55 54 48 47 48 53 50 54 50 41 61 70 66 64 66 70 74 75 76 75 69 63 68 72 72 72 74 76 74 68 61 57 56 48 57 59 55 56 66 71 74 77 78 79
54 53 52 55 45 49 50 55 47 41 60 60 60 63 61 61 66 69 67 64 61 54 53 61 67 70 74 67 67 66 58 49 46 46 46 56 54 64 66 70 75 75 76 79 80
53 51 50 52 48 50 51 50 38 53 56 62 63 63 60 61 62 64 63 60 61 60 52 52 54 67 71 68 63 61 60 49 44 43 49 53 52 63 76 78 77 79 78 79 78
52 44 43 47 52 48 49 40 44 50 61 61 61 56 54 63 63 62 58 61 65 64 57 51 53 67 73 73 73 60 56 61 50 44 47 50 58 69 71 73 73 75 74 75 78
46 42 43 53 53 48 45 42 49 59 62 60 53 57 51 55 58 57 56 64 66 68 65 59 50 63 69 72 68 67 65 56 48 43 40 48 51 56 62 68 72 70 74 76 77
40 41 52 51 50 46 40 43 53 61 64 60 57 55 54 54 56 54 58 65 70 68 66 58 54 57 63 62 64 60 56 52 53 48 46 44 50 61 66 69 71 73 75 76 76
42 39 52 51 44 39 40 47 56 59 64 62 60 59 56 59 55 56 58 65 72 70 61 62 58 55 59 64 68 67 61 60 56 47 46 48 53 69 69 71 69 69 74 74 76
41 39 48 51 38 40 46 52 58 58 58 57 58 61 61 57 52 57 61 70 73 68 63 61 51 52 52 57 58 59 60 55 52 50 46 50 54 66 65 67 68 69 69 70 72
42 35 43 45 43 40 41 47 51 63 61 62 60 61 57 54 56 55 59 69 72 71 70 68 52 56 56 57 61 57 62 59 58 48 50 51 60 64 68 68 68 68 69 70 72
43 38 41 36 41 41 39 45 50 52 58 59 53 58 56 49 52 54 60 65 71 69 65 62 55 55 66 64 63 64 64 60 57 57 57 61 59 68 68 68 68 71 69 68 69
40 39 43 39 41 41 41 43 49 52 52 54 54 60 57 52 57 55 58 58 61 60 58 57 55 55 62 66 65 65 66 63 63 61 59 59 59 66 68 67 67 69 69 69 70
43 46 43 41 38 36 41 46 49 52 55 58 58 54 54 58 64 65 62 64 58 56 54 53 54 48 56 57 58 53 66 65 63 64 65 58 70 66 65 67 68 66 70 72 73

GFSSW_sfc_temp_021.txt.gz
Temp
62 62 61 61 62 62 62 62 63 63 63 63 63 62 62 62 62 68 79 89 87 80 83 85 86 86 87 85 87 86 81 73 73 74 77 82 78 82 85 79 80 81 80 83 82
61 61 61 61 61 62 62 62 62 62 62 62 62 62 62 62 65 74 85 80 80 81 90 88 86 87 83 87 87 84 80 79 83 84 81 80 81 79 77 78 77 77 81 81 81
61 61 61 61 61 61 61 62 62 62 62 62 62 62 62 64 74 85 81 80 80 82 94 95 94 91 86 88 86 84 81 84 83 86 87 82 80 83 77 75 79 75 77 79 80
60 60 60 60 61 61 61 61 61 61 61 61 62 62 62 67 72 90 81 80 80 89 92 91 91 87 85 83 89 82 85 87 87 86 85 81 84 79 80 81 85 82 81 80 79
60 60 60 60 60 60 60 60 60 60 60 61 62 62 65 74 79 91 81 81 83 87 89 89 87 87 84 86 86 83 85 86 86 86 86 85 81 80 80 82 85 83 80 79 80
60 59 59 59 60 60 60 59 59 59 60 61 62 62 69 70 90 87 85 83 84 87 88 90 90 91 89 86 86 85 84 82 84 84 84 82 80 82 81 82 80 80 80 81 81
59 59 59 59 59 59 59 58 58 59 60 62 63 63 69 79 90 87 87 87 85 89 87 92 92 89 89 85 88 85 79 80 81 83 80 85 74 77 83 82 79 79 80 81 82
58 58 58 58 58 58 58 57 57 59 61 64 64 65 73 85 86 85 88 87 87 90 94 92 93 90 88 89 85 81 82 75 79 82 80 84 74 81 83 81 78 79 80 80 81
58 58 58 58 58 57 56 56 59 62 63 64 64 66 74 84 84 88 89 87 85 88 91 93 92 86 86 82 77 76 74 75 73 83 79 80 76 83 83 82 79 79 80 80 81
58 57 57 57 57 56 55 57 60 62 65 67 69 66 79 82 86 89 88 90 85 85 85 85 84 82 80 80 70 73 73 75 74 78 79 76 77 78 80 82 80 80 80 80 81
57 57 57 56 56 55 56 65 71 69 67 73 76 75 78 86 87 87 89 87 87 83 76 80 77 73 79 82 85 82 79 77 77 81 77 76 76 77 79 80 80 80 80 81 82
57 56 56 56 55 55 58 67 64 64 61 73 72 74 81 84 78 84 91 82 81 75 76 74 71 80 83 83 80 79 78 78 78 79 79 76 75 80 79 78 81 80 80 81 83
56 56 56 55 54 58 55 65 66 68 62 70 72 73 77 79 77 81 86 83 79 74 74 73 77 80 78 78 77 77 77 76 77 78 79 77 74 76 78 80 81 83 84 84 83
56 56 55 54 58 54 64 65 65 65 61 68 71 77 77 79 73 87 90 85 78 75 74 75 81 77 76 77 80 74 80 80 78 74 69 78 66 74 78 76 78 81 83 84 84
56 56 54 54 53 55 65 62 65 66 51 73 74 86 79 76 78 77 89 83 76 74 75 73 74 74 75 77 80 79 82 80 80 76 74 70 68 77 74 73 77 81 83 85 87
55 55 54 53 52 57 61 61 65 61 49 67 76 74 72 76 77 78 80 86 85 77 75 78 81 82 80 83 82 81 78 74 75 76 62 72 70 74 74 75 80 84 84 86 87
54 53 53 56 55 60 62 66 59 51 68 66 70 73 74 72 73 76 74 73 71 65 66 74 76 81 83 78 82 81 76 64 61 60 62 75 68 74 84 85 86 87 85 86 88
53 51 53 55 58 58 61 63 48 60 64 71 71 72 68 72 72 73 72 70 77 76 70 64 62 75 82 81 76 76 78 67 55 58 64 67 63 73 85 90 88 89 91 89 88
52 54 52 57 56 56 59 53 57 60 68 68 71 67 68 70 71 72 71 72 75 78 67 64 65 77 81 83 83 75 69 84 71 65 66 71 71 78 83 84 87 89 88 87 88
50 47 53 60 58 56 57 53 60 66 70 70 63 67 63 66 67 69 69 75 74 78 83 71 63 77 80 84 81 79 83 69 70 59 56 65 66 73 78 82 86 87 87 88 89
48 49 57 58 58 56 53 55 61 68 70 67 66 66 67 65 67 66 68 73 77 76 81 78 72 69 75 74 75 73 72 72 77 71 64 61 68 81 83 86 89 91 90 90 90
47 48 57 58 52 53 52 56 56 65 71 68 68 69 67 67 66 65 66 71 78 78 71 76 74 66 71 81 81 83 77 76 69 62 67 69 71 85 85 90 90 88 91 89 89
44 45 58 57 48 50 54 56 61 64 66 66 66 69 71 67 61 66 69 78 79 77 74 73 69 61 65 74 76 73 77 80 79 78 66 65 70 83 82 82 84 84 89 85 83
44 40 53 54 53 50 48 52 55 65 64 69 67 69 67 64 67 64 66 74 77 78 70 75 70 66 63 67 75 70 72 75 76 69 70 69 74 81 84 82 84 83 84 85 82
46 42 45 44 49 48 48 50 51 53 63 64 64 66 64 60 63 63 67 70 75 74 75 73 63 67 72 76 76 74 74 74 71 74 70 75 71 81 85 86 86 89 87 81 80
43 42 45 43 46 46 47 50 52 53 55 59 60 66 66 60 64 63 67 68 68 72 73 69 65 66 66 74 74 72 76 77 75 76 74 78 75 85 88 85 82 84 85 82 81
50 50 43 44 44 44 48 50 51 52 57 59 58 55 57 63 67 67 70 71 72 70 68 67 67 63 61 71 70 64 73 75 76 78 75 71 78 86 80 80 82 83 84 83 83

GFSSW_sfc_temp_024.txt.gz
Temp
62 62 61 61 62 62 62 63 63 63 63 63 63 63 63 62 64 78 89 92 91 80 85 97 96 96 97 93 96 97 88 85 83 84 84 90 86 90 93 87 88 90 90 91 92
61 61 61 61 61 62 62 62 62 63 63 62 62 62 63 62 81 90 92 82 80 81 95 92 90 93 91 93 96 92 89 86 93 94 90 90 89 88 87 85 85 86 93 92 91
61 61 61 61 61 61 62 62 62 62 62 62 62 62 62 67 85 95 82 80 81 82 102 100 100 95 92 98 95 94 88 93 93 95 96 91 89 92 87 83 88 85 87 88 89
61 61 60 61 61 61 61 61 61 61 61 61 62 62 63 78 78 98 83 80 81 95 98 98 98 92 92 91 98 89 93 95 95 95 96 91 94 88 88 90 94 92 90 89 88
60 60 60 60 60 60 61 60 60 60 60 61 62 62 72 82 88 100 82 83 93 96 95 96 93 94 90 96 95 91 93 95 96 96 96 96 90 89 88 91 96 93 90 89 90
60 60 60 60 60 60 60 59 59 59 60 61 62 63 76 78 102 100 97 95 96 96 97 98 97 100 96 95 94 96 94 92 95 95 95 91 90 90 90 91 92 90 89 90 91
59 59 59 59 59 60 59 58 58 59 60 61 63 70 78 86 100 101 98 98 99 99 96 101 103 98 99 94 98 95 88 89 91 93 91 94 84 85 91 91 89 89 89 90 91
59 59 59 59 58 58 58 57 58 60 61 63 65 76 81 97 100 96 100 97 99 100 101 104 103 99 97 100 94 91 92 84 90 91 90 91 80 88 93 90 87 88 88 89 90
58 58 58 58 58 57 56 56 59 64 64 65 75 78 83 86 91 99 101 94 96 98 99 102 99 96 96 89 87 89 82 85 83 92 87 88 83 90 93 91 88 88 89 89 90
58 58 57 57 57 56 56 57 63 63 70 76 78 74 87 89 95 96 99 98 93 94 92 92 92 88 91 88 77 81 83 87 83 87 87 85 86 88 91 91 90 89 89 89 90
58 57 57 57 56 55 61 82 77 75 76 83 87 86 88 96 97 94 98 95 96 91 84 90 84 80 87 90 91 90 87 85 90 91 86 86 85 89 90 91 90 91 89 90 91
57 57 56 56 55 55 66 79 73 73 72 87 85 87 93 94 85 92 99 89 87 82 88 84 79 89 93 92 90 89 86 86 90 89 87 87 85 89 91 89 90 91 91 90 92
57 56 56 55 54 66 72 76 78 80 72 83 87 85 87 89 83 90 94 91 86 83 84 80 86 92 89 88 85 87 85 86 85 86 89 87 83 86 91 92 91 93 94 94 92
56 56 55 54 63 72 76 78 80 79 69 79 79 84 85 88 80 95 97 92 87 82 83 84 91 87 84 84 88 81 91 89 87 83 76 87 74 85 90 88 89 91 93 95 94
56 56 54 53 64 70 75 79 80 76 58 79 81 94 89 85 86 87 98 92 83 83 85 80 83 81 80 84 90 85 93 88 88 84 83 81 76 83 89 86 90 92 93 95 97
56 55 54 66 67 72 76 77 76 65 57 76 83 80 79 83 85 85 88 94 93 85 85 85 91 88 87 90 91 92 88 87 88 85 73 81 79 80 86 86 92 95 95 95 97
54 54 55 65 70 76 76 76 65 60 76 74 76 82 82 80 81 81 79 79 78 71 73 80 82 88 90 85 90 88 83 71 69 70 70 85 78 81 91 96 96 97 97 97 98
53 52 62 68 72 70 70 68 56 69 73 79 79 81 76 82 81 81 78 76 82 82 78 72 69 82 88 86 83 83 84 74 61 67 72 82 73 81 94 98 100 102 101 102 99
52 70 69 73 69 69 67 59 64 70 77 76 78 73 76 79 79 79 78 78 82 85 74 73 73 88 88 89 90 83 78 90 80 81 75 79 82 89 94 95 97 99 101 99 100
58 63 67 72 70 66 63 58 70 78 78 79 71 77 72 77 74 77 77 82 82 87 89 82 71 85 87 90 90 88 90 77 81 65 63 74 76 79 85 90 95 98 99 101 102
61 59 67 70 69 63 58 64 70 78 78 74 73 75 75 75 76 77 78 82 85 86 88 86 78 78 84 80 80 82 80 83 84 79 69 67 75 90 89 93 95 99 102 103 104
59 54 68 71 59 65 61 68 61 72 78 76 77 76 75 76 74 75 75 80 85 88 79 85 81 71 76 88 90 88 82 83 74 70 78 76 78 97 96 96 98 99 102 105 105
54 58 73 67 53 60 65 65 68 68 72 73 72 75 78 74 68 75 77 84 84 83 81 84 76 68 71 81 86 81 85 87 86 84 74 70 75 95 96 94 97 97 100 101 97
55 52 63 62 64 57 57 58 60 71 70 73 74 76 74 71 76 72 75 81 84 84 73 79 79 72 69 73 80 74 79 84 84 77 76 77 80 88 92 92 95 98 100 101 98
56 54 53 52 56 53 55 57 55 58 69 73 69 71 71 67 69 70 75 79 81 74 80 81 70 76 78 82 83 81 79 80 78 80 75 80 80 86 91 93 95 99 100 100 96
47 50 52 50 53 52 52 54 55 59 63 62 65 71 72 68 70 69 74 74 74 81 79 80 70 74 72 80 80 78 81 82 81 81 81 82 81 93 96 96 95 97 99 98 97
55 57 51 49 49 49 53 55 55 58 61 65 64 62 63 69 74 76 80 80 81 76 76 75 73 69 66 76 77 71 79 81 82 84 83 76 84 91 90 92 93 95 97 97 99

GFSSW_sfc_temp_027.txt.gz
Temp
62 62 62 62 62 63 63 63 63 63 63 63 63 63 63 63 63 81 92 96 94 80 84 100 102 102 103 100 103 104 83 83 88 88 89 95 92 97 100 93 94 96 93 95 97
62 62 61 61 62 62 62 62 63 63 63 62 62 63 63 63 82 93 94 83 80 81 97 99 97 100 97 98 101 96 75 88 97 98 93 94 94 94 92 91 90 93 97 96 96
61 61 61 61 61 62 62 62 62 62 62 62 62 62 63 67 87 97 81 81 81 84 105 105 104 100 95 101 99 99 77 94 98 99 100 95 95 97 92 88 91 89 91 93 93
61 61 61 61 61 61 61 61 61 61 61 61 62 62 63 82 79 99 81 81 80 98 102 102 101 95 93 93 100 92 96 99 99 100 99 95 98 94 94 95 98 97 95 93 92
60 60 60 60 60 61 61 60 60 60 60 61 62 63 74 85 90 100 81 84 96 98 97 99 96 97 91 97 99 96 97 99 100 100 101 100 94 94 93 99 101 98 95 93 94
60 59 59 59 60 60 60 59 59 59 60 61 62 62 78 80 107 105 104 99 101 99 99 100 99 102 98 97 97 100 99 98 99 100 99 95 95 95 95 99 97 95 93 95 95
59 59 59 59 59 60 59 59 58 59 60 62 63 70 84 88 107 108 105 104 106 103 99 103 105 101 101 96 104 101 92 96 97 99 97 99 90 90 97 98 95 94 94 95 96
59 59 59 59 59 59 58 57 58 59 62 64 64 78 83 106 109 105 106 104 107 107 105 108 107 103 100 103 100 94 95 87 96 98 97 95 83 93 97 96 93 93 94 94 95
58 58 58 58 58 57 57 57 59 63 66 65 75 83 85 91 97 103 106 99 103 104 105 106 104 98 98 92 90 92 84 87 88 98 95 93 69 94 98 96 93 93 94 94 94
58 58 57 57 57 56 56 57 67 64 69 81 86 81 91 93 102 103 106 104 99 99 96 96 96 91 92 89 79 84 85 90 86 93 93 90 88 94 96 96 94 94 94 93 94
58 57 57 57 56 56 61 89 81 76 81 86 90 90 95 102 103 99 103 100 100 95 86 93 86 81 88 92 93 93 90 85 93 96 91 89 90 92 95 95 94 95 94 95 95
57 57 57 56 56 56 65 84 80 82 74 90 92 94 99 102 92 97 103 92 91 84 90 87 81 91 95 94 92 92 89 89 94 93 93 90 89 94 95 94 96 96 95 95 97
57 57 56 55 56 67 83 84 89 90 76 85 94 93 95 98 91 94 99 94 89 85 87 85 88 94 92 91 89 90 89 89 89 92 94 91 86 90 96 97 97 98 100 99 97
57 57 56 55 64 80 82 87 90 89 70 82 86 92 96 96 87 99 102 96 91 85 89 89 95 91 90 88 92 84 94 93 92 81 79 91 76 86 93 93 95 96 98 100 99
57 56 55 53 66 74 84 89 90 85 59 87 88 101 97 89 94 92 103 95 86 87 89 85 89 88 85 89 93 88 96 93 92 85 83 84 80 83 92 89 93 97 98 100 102
56 56 55 69 74 79 86 87 84 67 60 82 88 85 84 89 92 94 93 99 96 89 91 90 97 94 93 95 95 96 92 92 92 89 73 83 77 83 82 91 95 99 100 101 102
55 54 57 67 71 86 85 80 66 61 83 80 82 86 85 84 86 87 84 84 81 75 77 85 88 94 96 88 93 91 87 75 73 74 73 84 81 77 94 96 99 99 101 102 103
53 53 65 75 81 81 75 69 56 73 76 88 88 87 81 88 86 86 83 80 86 86 82 76 73 87 93 89 86 86 86 76 64 69 75 87 77 86 99 102 101 102 106 106 103
53 74 76 82 82 79 70 59 64 72 83 83 85 80 81 86 87 85 83 82 86 87 77 78 77 92 93 93 92 86 81 92 82 84 78 83 87 93 97 99 100 101 103 104 105
60 67 75 84 80 73 63 57 71 80 85 84 75 82 77 82 81 83 82 88 86 90 92 85 76 89 92 94 93 89 94 80 84 68 67 78 79 82 88 92 97 99 101 104 106
61 66 77 82 78 65 56 63 70 78 80 78 76 78 81 81 84 81 82 88 91 90 92 89 83 82 89 84 82 84 85 87 87 82 72 70 78 95 92 94 95 99 102 105 107
65 59 77 80 61 65 61 67 66 76 82 79 79 79 78 82 81 83 81 86 94 92 84 89 84 76 81 91 93 90 85 86 80 73 80 80 81 101 99 99 100 101 104 107 108
58 64 80 76 55 60 66 68 73 72 75 75 75 79 81 78 74 82 83 92 91 88 85 88 81 72 75 85 90 83 86 89 89 88 76 75 79 98 99 99 100 100 102 104 105
56 55 68 69 68 62 61 62 63 74 73 74 74 78 76 74 79 76 80 88 90 88 76 83 83 74 72 75 85 79 83 86 87 79 79 80 82 91 95 95 98 99 102 103 104
56 56 57 52 59 54 57 58 55 54 63 72 70 72 73 69 72 73 79 83 87 81 84 84 74 79 81 84 85 84 83 84 81 83 78 83 83 89 94 96 98 100 101 101 102
43 50 58 56 57 54 53 56 56 59 59 57 61 68 73 69 73 71 77 78 79 85 81 84 73 78 76 83 83 81 85 84 84 85 85 86 84 96 99 100 99 99 100 100 101
57 56 50 50 53 51 52 55 57 59 59 60 56 53 56 66 72 76 80 86 84 81 78 78 76 72 68 79 79 73 81 84 84 86 85 79 87 94 93 95 97 98 99 99 100

GFSSW_sfc_temp_030.txt.gz
Temp
62 62 62 62 62 62 63 63 63 63 63 63 63 63 62 62 63 80 85 95 96 80 83 99 98 100 103 98 101 97 73 80 84 86 86 95 92 98 97 94 88 93 91 91 96
62 62 61 61 62 62 62 62 62 62 62 62 62 62 62 62 76 86 95 86 80 81 96 97 94 99 95 96 97 65 61 76 85 94 91 95 94 93 92 90 90 90 95 96 97
61 61 61 61 62 62 62 62 62 62 62 62 62 62 62 65 82 93 83 82 81 85 102 103 103 100 93 98 96 70 66 81 84 98 98 94 94 97 90 86 91 87 90 93 95
61 61 60 61 61 61 61 61 61 61 61 61 62 62 63 75 75 98 82 81 81 98 100 100 99 94 91 90 96 69 68 78 96 100 98 95 97 93 93 93 97 95 93 93 93
60 60 60 60 60 60 60 60 60 60 60 61 62 62 72 81 86 100 81 83 93 95 95 96 95 94 89 94 97 80 79 89 100 100 100 99 94 93 94 98 99 96 93 91 92
60 60 59 59 60 60 60 60 60 60 60 61 62 62 73 75 103 105 100 96 101 97 97 98 97 99 96 95 94 99 96 97 100 99 100 95 94 94 95 99 96 93 91 92 93
59 59 59 59 59 59 59 59 59 59 60 62 64 68 79 84 106 105 105 102 101 100 96 100 102 98 98 93 101 99 93 97 97 98 97 99 88 89 96 98 94 92 92 93 94
59 59 59 59 59 59 58 58 58 59 61 64 65 74 77 103 106 103 107 103 106 107 103 105 105 99 97 100 97 93 94 85 95 97 98 95 73 91 97 96 92 92 92 92 93
58 58 58 58 58 58 57 57 60 62 65 66 70 77 81 98 97 105 106 99 102 104 104 106 103 95 95 88 85 89 81 85 86 98 95 90 68 83 92 95 91 91 92 92 93
58 58 58 58 57 57 56 58 67 65 69 80 83 78 88 92 101 103 106 104 98 98 96 95 93 88 88 85 73 80 83 86 83 92 94 77 64 77 86 95 92 92 92 92 92
58 58 57 57 57 56 59 76 82 75 78 81 85 85 95 100 108 101 104 100 99 94 84 90 83 79 84 87 89 89 87 85 88 79 91 84 75 70 82 93 93 93 92 92 93
58 57 57 56 56 57 63 79 85 85 73 87 88 90 96 103 92 97 105 91 89 83 88 85 78 87 91 91 88 88 85 86 89 83 86 89 76 77 83 93 94 93 93 93 94
57 57 56 56 56 65 82 84 93 91 74 81 89 88 92 97 92 94 99 93 87 83 84 80 85 92 90 87 85 86 84 86 85 89 93 90 84 88 93 95 96 97 97 96 95
57 56 56 54 65 73 78 91 93 92 66 77 87 91 94 95 87 100 103 94 89 83 86 85 92 89 87 85 88 80 92 90 88 84 76 89 73 84 91 90 92 95 97 97 97
57 56 55 54 62 68 83 90 91 86 55 89 91 105 98 89 94 92 102 96 85 86 87 82 86 86 84 86 91 86 94 91 90 84 83 79 74 82 88 86 90 94 96 99 100
56 56 55 66 71 75 83 88 85 65 56 82 90 86 87 90 90 97 92 97 96 87 89 88 96 92 91 93 93 95 91 90 90 86 73 78 73 74 83 86 87 96 98 99 101
55 54 55 64 65 83 83 79 63 58 83 81 84 87 86 84 85 90 85 83 80 73 75 84 86 94 96 88 92 91 84 73 70 72 71 84 75 77 90 91 89 89 95 100 102
53 53 60 70 77 77 76 65 53 70 71 89 89 87 80 86 84 86 83 78 85 84 78 74 72 86 94 88 85 85 85 74 61 67 73 85 76 80 92 92 87 88 91 102 101
53 69 71 80 83 80 67 54 60 68 80 82 85 81 81 85 86 84 83 81 85 86 76 76 76 92 92 94 92 85 79 89 78 81 75 81 86 94 96 91 91 93 98 97 97
58 62 69 82 86 76 60 52 65 75 80 80 73 80 76 82 81 83 81 87 85 90 91 83 74 88 92 94 93 88 92 77 79 64 64 76 77 80 85 83 93 91 97 98 99
58 62 77 86 82 66 53 58 64 73 74 69 68 69 75 79 83 82 83 88 90 90 91 87 81 81 89 83 82 83 81 83 84 80 70 68 76 94 89 90 93 95 98 102 104
62 54 81 82 62 63 58 63 63 68 74 73 75 73 72 75 77 81 82 87 95 93 84 88 82 74 80 91 93 89 83 82 73 70 78 76 79 98 95 96 98 98 100 103 103
54 59 75 76 54 57 63 65 68 68 69 69 69 74 78 73 69 76 81 93 95 92 86 89 79 70 73 83 90 85 86 86 85 83 73 72 76 95 95 91 94 98 100 99 99
51 51 64 70 68 61 55 56 58 71 70 73 70 72 72 71 76 73 76 85 92 93 76 86 82 74 71 74 83 79 83 85 84 75 76 79 81 88 91 89 92 96 99 101 99
51 52 59 49 54 56 51 49 49 54 65 67 64 65 58 58 69 70 76 80 86 82 86 85 72 77 81 82 84 83 83 83 80 81 75 81 82 87 91 91 93 94 98 99 99
41 49 55 52 55 53 51 51 50 53 50 52 55 58 58 55 57 49 58 70 76 86 83 85 72 75 73 83 82 80 84 85 85 83 83 84 83 95 96 98 93 93 93 96 97
56 51 45 46 51 52 54 55 49 51 54 60 51 49 51 55 59 61 64 67 72 78 79 77 76 70 66 77 78 72 80 83 84 87 84 78 85 93 91 91 94 94 93 96 97

GFSSW_sfc_temp_033.txt.gz
Temp
62 62 62 62 62 62 62 63 63 63 63 63 63 62 62 62 62 69 71 83 84 80 80 89 87 89 90 84 73 73 59 58 72 76 78 87 83 90 92 83 84 87 80 82 86
62 62 61 61 62 62 62 62 62 62 62 62 62 62 62 62 64 72 85 85 85 81 86 88 86 88 82 85 72 66 58 66 84 82 78 86 85 85 82 80 78 83 86 86 87
61 61 61 61 61 62 62 62 62 62 62 62 62 62 62 62 63 80 81 85 85 82 93 94 93 90 82 84 71 68 64 79 82 86 88 86 86 90 82 77 82 79 83 84 86
61 60 60 60 61 61 61 61 61 61 61 61 62 62 62 61 65 88 81 81 82 87 91 91 88 82 80 79 78 71 76 82 81 88 87 85 88 86 86 85 88 87 87 85 84
60 60 60 60 60 60 60 60 60 60 60 61 62 62 62 65 74 93 81 82 85 86 87 86 83 82 79 83 79 75 78 87 88 86 84 92 87 87 89 90 91 90 89 86 85
60 59 59 59 60 60 60 59 59 60 60 61 62 62 60 63 91 97 89 86 91 86 85 88 85 89 85 85 80 83 82 90 91 82 89 89 86 87 88 91 88 87 85 85 85
59 59 59 59 59 59 59 59 59 59 60 61 63 65 66 71 94 93 91 87 89 89 85 91 92 87 86 82 91 89 78 86 89 87 87 91 81 82 88 89 85 85 85 86 85
59 59 59 59 59 59 58 58 58 60 61 62 64 65 60 90 90 89 91 92 94 92 91 92 94 87 82 86 87 82 79 73 86 87 90 83 67 86 88 86 82 84 85 86 85
58 59 59 58 58 58 57 57 60 64 64 65 60 60 64 90 83 91 93 91 93 91 92 100 91 82 83 75 70 73 67 72 80 90 89 78 68 83 87 87 82 83 85 85 85
58 58 58 58 57 57 56 58 63 65 65 71 75 63 74 80 91 94 96 96 90 89 88 85 79 75 75 69 60 65 67 73 76 82 82 73 70 83 84 82 83 83 84 84 85
58 58 57 57 57 56 55 56 68 62 68 69 70 74 82 91 95 94 97 92 89 81 72 78 68 67 71 76 77 78 75 74 81 83 74 73 72 78 80 78 79 83 83 84 85
58 57 57 56 56 56 55 59 73 75 65 79 80 81 85 87 81 92 97 83 79 72 76 72 68 76 82 81 79 77 74 74 78 83 79 74 74 75 80 80 80 84 83 85 85
57 57 56 56 56 59 64 67 80 81 63 71 79 79 80 84 79 85 90 85 79 74 75 70 73 84 81 78 77 76 73 74 73 81 80 78 69 69 81 84 84 85 87 87 86
57 56 56 54 60 60 63 78 81 82 53 66 74 80 83 84 78 92 95 87 80 74 76 74 82 81 78 76 79 70 82 82 78 73 62 78 60 66 74 78 81 83 86 87 87
57 56 55 54 52 55 70 75 78 73 42 80 80 93 84 78 82 85 95 88 77 77 75 73 77 77 76 78 83 76 84 82 81 70 71 72 63 64 73 73 77 85 87 89 89
56 56 55 57 59 63 70 74 72 51 45 72 85 79 76 79 81 88 85 89 88 79 80 78 86 83 80 85 85 86 81 79 78 72 54 71 64 64 69 77 82 86 89 90 91
55 54 53 58 52 71 66 65 48 45 73 74 75 81 78 73 77 80 77 75 71 65 65 75 78 84 87 77 82 81 72 61 58 60 55 69 67 69 79 82 87 87 89 92 92
53 52 56 64 66 63 61 53 42 62 63 76 77 80 74 79 76 78 75 71 77 74 65 63 61 77 85 80 73 75 73 63 48 54 60 69 60 69 85 87 88 91 89 89 88
52 58 59 66 71 66 56 44 50 59 68 65 66 66 71 79 78 76 74 73 76 78 66 64 65 82 85 86 83 69 69 76 61 65 57 65 71 76 86 80 81 85 89 85 89
50 53 56 70 74 65 52 45 55 65 64 62 53 63 58 63 65 73 72 78 78 82 81 72 59 78 83 86 84 78 74 66 69 55 53 64 64 65 75 74 80 82 83 84 83
51 51 66 74 74 61 46 50 56 65 65 60 58 57 59 60 63 63 69 80 84 82 83 78 71 70 79 75 73 69 72 67 66 68 56 53 64 73 75 78 78 83 86 90 92
52 43 67 70 53 57 51 56 57 61 66 63 63 60 58 60 59 62 63 70 87 87 76 80 72 63 69 80 85 81 73 67 61 52 59 64 65 82 83 84 85 85 87 90 93
45 48 63 64 44 48 56 58 62 60 60 58 58 64 65 60 55 62 66 77 81 78 79 79 71 59 62 71 79 76 78 75 73 62 60 53 64 86 84 82 85 84 86 90 90
45 41 54 57 57 51 46 48 48 58 56 59 54 59 59 59 62 57 61 73 80 79 74 73 74 68 61 65 68 66 76 77 74 65 61 66 65 74 75 78 82 84 91 89 85
44 43 50 40 45 46 45 42 43 44 55 55 49 51 48 45 49 52 56 54 62 67 71 67 62 71 73 75 75 75 75 77 73 73 64 68 68 73 79 78 80 82 83 87 86
40 42 46 42 46 46 46 48 45 48 48 45 46 47 50 42 46 42 48 48 49 58 55 57 57 65 64 75 76 73 77 77 78 77 75 74 71 74 78 83 81 83 90 82 86
49 49 42 41 42 43 44 47 46 49 50 53 50 44 44 51 52 52 56 55 53 50 51 53 54 56 56 67 65 60 73 75 76 79 77 69 74 77 77 77 82 83 83 92 90

GFSSW_sfc_temp_036.txt.gz
Temp
62 61 61 61 62 62 62 62 62 63 63 63 62 62 62 62 61 64 67 78 76 79 82 81 83 83 84 71 74 73 60 58 66 74 76 83 77 82 85 78 80 82 77 78 82
61 61 61 61 61 61 62 62 62 62 62 62 62 62 62 62 58 62 79 82 81 81 84 78 76 81 73 70 71 66 58 65 73 79 78 85 79 79 77 76 77 77 80 82 82
61 61 61 61 61 61 61 61 61 61 61 61 62 62 62 61 59 74 82 82 82 82 88 87 85 82 73 73 70 70 66 76 81 83 84 82 79 83 76 72 75 73 76 80 80
61 61 60 61 61 61 61 61 61 61 61 61 61 62 62 57 63 83 81 79 82 85 85 83 82 75 73 71 74 65 74 81 81 83 84 82 83 79 79 79 82 80 81 80 78
60 60 60 60 60 60 60 60 60 60 60 61 61 62 58 60 67 88 82 81 83 83 82 81 77 75 72 75 75 71 77 83 86 86 84 88 83 79 81 84 85 83 81 79 79
60 59 59 59 60 60 60 59 59 59 60 61 62 62 55 59 84 89 86 83 84 81 80 81 79 81 76 77 76 79 79 83 84 84 86 83 83 82 82 85 83 80 79 80 81
59 59 59 59 59 59 59 59 59 59 60 61 62 62 58 68 86 87 83 79 82 81 79 83 85 79 76 73 83 83 75 81 84 85 81 86 76 76 82 84 80 79 80 81 82
59 59 59 59 59 58 58 58 58 60 61 63 63 60 52 79 81 83 84 82 85 82 83 85 86 80 75 79 79 72 69 63 81 83 85 81 67 78 83 82 79 79 81 82 81
59 59 58 58 58 58 57 57 59 63 65 64 58 54 56 80 74 82 83 84 84 81 82 94 83 76 75 69 63 63 59 64 70 86 83 77 65 79 83 81 79 80 82 82 79
58 58 58 58 57 57 56 58 60 62 65 68 70 57 67 75 81 85 84 87 82 82 80 78 73 67 63 61 54 58 59 61 69 80 81 74 68 78 81 80 78 79 81 81 81
58 58 57 57 56 56 54 49 61 59 60 62 63 66 75 80 86 87 88 83 80 74 67 70 63 62 65 67 70 68 66 64 72 80 78 73 72 76 79 79 77 78 79 80 82
58 57 57 56 56 56 51 55 59 65 54 72 73 74 77 77 73 80 88 77 73 65 68 65 62 69 74 73 72 71 68 67 73 78 74 71 72 80 76 78 79 78 79 80 81
57 57 56 56 55 55 53 59 68 66 54 64 73 73 73 76 70 74 80 77 72 65 68 64 67 76 74 71 70 69 67 67 68 75 75 73 67 70 76 76 79 81 82 83 82
57 57 56 54 52 51 55 65 67 67 47 58 64 72 75 76 69 85 84 81 72 69 68 66 75 74 72 70 72 61 76 76 73 67 63 74 60 64 73 72 76 79 81 82 83
57 56 55 54 45 47 60 62 65 59 41 72 71 82 74 72 76 77 87 79 72 71 68 65 71 71 70 72 76 68 77 74 73 65 59 64 56 61 69 71 72 77 81 83 85
56 56 55 50 47 53 59 59 56 49 41 63 77 70 68 69 74 81 79 79 80 74 72 72 79 76 75 79 79 79 73 69 65 60 56 65 63 58 64 68 75 80 82 84 85
55 54 53 56 44 55 56 54 44 39 64 66 60 63 66 64 71 73 74 70 67 60 62 67 72 76 79 70 74 73 58 51 51 51 52 62 60 65 76 76 78 81 82 85 87
53 52 52 57 51 52 52 46 35 54 56 63 60 66 63 66 66 70 66 67 72 63 61 57 56 70 77 74 69 64 67 56 43 45 50 60 57 65 78 85 83 86 88 88 88
52 47 50 50 60 54 44 34 40 50 57 55 56 56 56 65 61 65 67 65 72 69 59 55 58 74 79 79 77 65 61 68 53 48 50 56 62 71 78 77 82 84 87 86 88
46 41 46 58 59 51 38 37 45 56 58 57 47 55 49 53 55 55 56 71 72 75 71 62 53 69 78 77 79 74 69 57 50 48 49 52 58 60 68 74 78 82 85 88 88
42 38 52 59 57 45 36 38 50 59 60 52 49 48 50 51 52 52 54 66 71 75 77 73 62 63 66 68 67 66 64 56 61 57 55 49 60 68 71 74 76 82 87 88 86
39 33 53 60 38 40 41 46 52 54 60 56 57 55 51 51 50 52 53 60 71 69 61 68 64 59 65 71 76 76 70 65 61 50 51 63 63 73 76 77 79 82 87 88 87
36 36 52 49 32 35 45 49 52 52 52 51 50 52 52 47 45 54 58 68 60 60 59 62 62 55 54 64 71 65 70 72 56 55 60 51 55 75 74 74 77 79 79 81 82
36 31 39 43 47 39 38 41 43 53 52 53 49 50 47 42 46 44 49 57 58 58 62 58 53 58 58 59 65 60 70 70 69 59 59 62 58 68 68 72 73 79 81 81 82
38 34 37 33 37 40 41 39 40 40 49 49 44 46 43 36 40 43 47 48 55 59 55 48 42 53 58 70 71 68 69 72 67 70 65 62 61 67 70 72 74 77 80 84 86
38 37 37 34 36 36 40 41 36 39 44 43 43 47 45 38 41 39 44 43 43 49 47 45 41 48 54 65 72 69 72 73 71 73 71 64 64 71 76 72 74 77 80 82 82
45 46 41 38 34 34 34 39 41 44 47 48 48 44 41 45 50 50 50 50 47 45 43 41 41 43 43 61 67 61 70 70 70 71 70 62 66 70 71 73 75 74 77 79 85

GFSSW_sfc_temp_039.txt.gz
Temp
62 61 61 61 61 62 62 62 62 62 62 62 62 62 62 61 61 60 63 75 73 80 81 80 82 80 80 72 75 73 59 56 64 66 71 78 75 80 81 75 78 79 74 76 78
61 61 61 61 61 61 61 61 62 62 62 62 62 62 62 62 56 58 76 79 80 80 79 76 75 76 70 69 69 63 57 65 75 77 75 78 76 76 74 74 73 74 77 78 78
61 61 61 61 61 61 61 61 61 61 61 61 61 62 62 60 58 72 81 80 80 82 83 82 81 77 69 68 67 67 63 72 75 78 80 78 76 80 73 69 72 70 72 76 76
61 60 60 60 61 61 61 61 60 60 60 61 61 62 62 56 61 79 80 80 80 84 82 80 77 69 68 64 71 64 71 74 78 80 82 76 79 76 76 75 79 77 76 76 75
60 60 60 60 60 60 60 60 60 60 60 61 61 62 57 56 66 84 80 80 80 82 80 76 73 70 68 70 71 67 73 78 83 82 80 82 77 76 76 81 81 79 77 75 75
60 59 59 59 59 60 60 59 59 59 60 61 61 62 54 57 81 82 81 79 80 79 78 78 75 78 72 72 72 75 75 79 82 82 83 78 78 77 78 81 78 77 75 76 76
59 59 59 59 59 59 59 59 59 59 60 61 62 60 55 65 82 80 78 77 80 78 75 80 81 78 74 70 77 78 69 75 79 80 77 84 72 73 80 79 76 76 76 76 77
59 59 59 59 59 58 58 58 58 60 61 63 63 58 53 75 74 77 77 75 81 78 76 80 81 75 71 75 76 69 67 60 75 78 82 80 64 76 80 76 74 75 76 76 76
59 58 58 58 58 57 57 57 59 62 64 63 57 53 57 76 70 75 77 79 78 74 74 90 79 70 70 65 60 60 56 61 66 77 78 75 64 75 79 76 73 74 76 76 77
58 58 58 57 57 56 56 57 59 60 63 65 66 54 64 71 76 80 77 83 78 76 75 74 69 62 60 58 52 56 57 57 65 73 78 70 65 74 77 76 74 74 75 76 77
58 57 57 57 56 56 53 52 57 55 57 59 60 63 69 77 81 81 81 78 76 71 62 66 62 57 61 64 66 66 62 61 68 75 71 73 66 71 75 76 73 73 75 76 77
57 57 57 56 56 55 51 55 57 55 47 63 64 66 74 72 69 75 82 73 69 62 64 60 59 65 69 68 67 65 62 62 68 74 71 70 67 73 75 75 76 76 76 77 78
57 57 56 55 55 53 49 54 60 55 46 59 66 67 68 72 66 70 76 73 67 62 62 60 62 71 69 66 65 62 61 62 64 69 70 68 63 68 74 74 77 79 80 80 80
57 56 56 54 52 47 53 58 58 57 44 56 60 67 70 70 63 79 80 76 68 66 64 61 71 69 65 65 67 56 69 70 69 62 55 68 52 64 69 71 74 76 77 78 80
56 56 55 54 44 45 57 57 59 53 39 68 64 76 67 68 69 70 81 74 67 67 65 61 66 66 64 68 69 65 72 69 68 60 55 61 55 60 71 67 71 75 78 79 81
56 55 54 49 44 49 54 53 52 47 38 61 69 64 62 65 69 74 73 74 76 68 66 69 72 73 71 73 74 73 67 62 59 55 49 61 59 62 59 70 74 76 79 81 82
54 53 52 54 44 50 52 51 42 37 59 58 54 60 58 59 65 69 68 64 62 54 57 62 68 69 74 65 67 66 56 47 44 45 50 60 55 66 69 74 78 79 78 82 83
53 52 51 55 50 49 47 44 33 51 50 58 57 58 57 58 59 61 66 63 68 60 60 54 51 67 71 67 63 61 61 44 39 40 50 54 52 65 78 80 80 82 82 83 83
52 46 42 48 55 49 42 32 37 44 54 52 54 52 49 55 56 56 54 65 68 65 57 53 55 69 75 73 72 60 57 64 48 43 46 51 58 67 74 75 78 77 80 81 83
44 40 40 53 53 46 37 34 40 53 55 53 44 49 43 48 49 50 50 59 62 72 63 59 51 64 71 74 71 69 65 54 44 45 46 48 53 57 65 72 73 74 78 82 84
40 35 48 53 49 40 30 33 45 55 56 50 46 44 45 46 48 47 49 58 60 60 62 54 54 57 65 61 65 58 60 53 57 49 51 42 55 65 68 70 72 75 80 83 85
36 31 50 51 36 33 34 42 49 51 55 51 52 49 46 48 44 46 48 55 59 58 51 56 48 56 62 66 74 72 66 61 51 48 48 58 56 69 77 76 73 75 80 84 87
34 33 47 46 33 32 40 45 48 46 47 48 47 48 48 43 41 47 49 58 57 53 49 51 43 44 50 53 60 61 63 67 64 51 58 48 52 70 73 72 73 74 74 78 83
35 32 36 43 40 36 33 39 40 49 48 49 47 49 43 40 43 41 45 54 56 56 59 51 41 44 49 50 58 57 63 66 64 55 58 61 56 62 67 70 72 71 74 74 79
35 35 34 29 33 34 39 39 37 36 44 47 41 44 40 32 37 38 45 46 52 55 51 43 35 43 50 55 59 61 66 68 60 65 59 64 61 66 67 70 73 75 72 75 76
38 37 41 36 38 32 34 37 36 38 39 39 37 42 41 35 38 36 40 38 40 47 44 42 38 42 45 57 59 59 65 69 69 68 65 61 60 68 74 70 70 74 73 73 77
45 45 40 37 37 34 33 35 37 41 44 42 44 42 40 43 46 46 45 44 45 41 39 38 37 38 36 50 51 53 63 67 68 69 69 60 64 69 69 69 71 72 72 75 78

GFSSW_sfc_temp_042.txt.gz
Temp
62 62 61 61 61 62 62 62 62 62 62 62 62 62 62 61 61 58 60 72 71 78 80 78 79 78 77 71 75 72 58 56 62 62 68 76 72 77 78 72 75 75 71 73 74
61 61 61 61 61 61 61 61 61 62 61 61 61 61 62 61 54 55 74 78 78 79 77 73 72 74 68 68 68 63 57 62 72 73 68 75 74 73 71 71 70 71 73 74 74
61 61 61 61 61 61 61 61 61 61 61 61 61 61 61 60 56 70 80 79 79 80 81 80 78 75 66 66 65 65 62 70 74 76 76 75 73 75 71 66 69 66 69 72 72
61 61 60 60 61 61 61 61 61 60 60 60 61 61 61 55 59 73 79 78 79 82 79 77 74 67 64 62 68 61 68 71 74 78 77 74 76 73 73 73 77 73 73 72 70
60 60 60 60 60 60 60 60 60 60 60 60 61 61 55 53 63 78 79 79 79 78 77 74 70 67 63 66 68 65 69 74 78 78 77 78 76 74 74 78 78 76 74 71 71
60 59 59 59 60 60 60 59 59 59 60 60 61 61 50 53 77 79 77 77 77 76 76 75 72 73 68 69 68 72 72 74 78 78 77 75 75 75 75 78 75 73 72 72 72
59 59 59 59 59 59 59 59 58 59 59 60 61 59 53 63 79 75 76 73 78 77 73 76 76 72 70 66 75 74 68 72 74 74 75 78 68 70 76 77 73 73 72 73 73
59 59 59 59 59 59 58 57 58 60 61 62 62 56 53 72 70 71 75 72 78 75 74 77 77 73 68 71 72 64 64 57 71 74 76 74 63 74 76 75 72 73 73 73 73
58 58 58 58 58 57 57 57 60 64 64 63 54 51 56 73 67 71 76 73 74 69 72 87 76 66 67 62 58 57 54 58 66 75 74 72 64 73 76 74 71 73 72 73 73
58 58 57 57 57 56 56 58 59 61 62 64 63 53 62 68 72 74 72 79 72 71 72 70 64 59 56 56 51 53 54 56 63 71 71 67 66 71 74 73 72 72 73 73 73
57 57 57 57 56 56 53 53 53 52 52 55 56 59 66 73 76 75 75 75 71 66 58 63 56 53 60 61 62 63 60 61 65 70 68 66 64 67 72 73 71 72 72 73 73
57 57 57 56 55 55 51 52 52 52 43 59 58 62 69 68 67 73 78 69 66 58 62 56 56 63 66 65 65 63 59 60 65 71 67 65 66 68 71 72 72 72 73 73 74
57 56 56 55 55 50 47 52 56 49 41 54 59 61 63 66 63 66 75 68 64 59 62 60 59 68 66 61 62 58 60 59 61 68 66 65 60 63 70 72 74 75 76 76 75
56 56 55 54 51 45 50 51 52 52 40 53 57 64 66 65 59 74 77 72 65 64 59 58 68 67 61 61 63 51 65 66 66 60 53 65 50 57 66 68 71 73 74 75 77
56 56 55 53 43 42 54 53 54 48 37 64 59 71 65 62 64 65 76 69 63 62 62 59 62 62 62 65 66 61 69 66 65 57 52 56 52 57 64 64 68 72 75 77 79
55 55 54 48 42 46 49 50 47 43 35 57 63 59 59 62 64 69 68 70 72 65 62 63 68 69 65 69 69 70 63 58 54 52 46 56 54 53 57 65 69 74 76 78 80
54 53 51 52 44 49 48 46 40 35 55 53 51 55 54 55 60 63 61 62 60 52 53 59 64 65 70 62 63 65 53 42 42 42 48 56 52 64 66 73 74 74 77 79 81
53 51 49 52 50 48 44 43 30 47 46 54 54 55 51 53 51 55 58 59 61 58 56 50 49 64 67 64 59 58 55 41 36 37 51 51 50 59 73 75 78 79 80 81 81
51 42 42 47 54 46 41 30 33 41 50 49 50 47 46 52 52 52 49 57 63 58 54 49 52 65 69 69 69 54 53 59 46 40 42 48 54 67 69 72 73 77 80 80 81
43 41 40 51 50 44 36 32 37 49 51 49 40 46 40 45 46 46 48 51 53 59 57 54 48 61 69 69 69 61 64 51 44 39 37 45 47 54 62 67 71 71 75 78 80
38 35 47 51 47 38 29 31 41 51 52 45 43 42 42 42 44 44 47 51 55 54 56 48 50 54 61 60 62 56 53 50 55 45 43 39 48 59 64 69 75 79 79 78 79
35 30 48 48 34 31 37 39 45 45 49 47 48 45 42 44 42 44 45 47 57 54 46 47 42 48 54 61 71 70 63 52 52 44 45 45 51 66 70 72 70 73 77 76 78
33 35 45 45 27 28 35 42 45 41 42 44 44 46 45 41 38 44 47 54 55 52 46 48 40 40 47 57 58 57 62 56 53 48 55 46 51 70 67 70 73 71 72 73 74
34 29 35 39 34 31 30 34 38 45 44 44 46 47 41 38 40 38 43 52 54 54 58 50 37 39 39 44 50 50 60 60 61 52 55 58 53 60 68 66 68 70 71 74 72
34 31 34 28 33 34 32 34 36 35 44 43 39 38 39 31 35 35 43 44 49 53 48 43 36 39 44 49 52 53 54 58 59 62 55 59 59 62 66 69 74 70 71 72 73
36 37 40 37 38 37 36 31 36 38 38 37 35 37 41 33 35 33 37 35 38 43 41 39 37 37 40 51 53 52 57 59 60 62 63 61 59 67 71 67 69 71 71 71 72
44 45 39 36 37 35 34 35 37 38 42 44 40 38 39 41 43 43 43 42 43 36 36 36 35 35 34 46 47 46 56 60 60 62 64 58 63 67 66 66 69 71 70 70 72

GFSSW_sfc_temp_045.txt.gz
Temp
62 62 62 61 62 62 62 62 62 62 62 62 62 62 62 62 61 62 67 81 77 78 80 82 82 82 83 77 78 77 69 68 70 70 75 82 77 82 83 78 79 80 78 80 79
62 62 61 61 61 61 62 62 62 62 62 62 61 61 61 62 60 64 79 78 78 80 82 78 76 79 77 75 76 72 69 72 78 79 78 80 81 79 77 77 75 75 80 79 79
62 61 61 61 61 61 61 61 61 61 61 61 61 61 61 62 64 80 81 78 78 82 85 85 82 80 74 74 73 72 71 77 80 83 84 82 81 83 78 74 77 73 74 76 77
61 61 60 61 61 61 61 61 61 61 61 61 61 61 61 60 69 83 79 78 79 88 84 82 79 75 73 70 75 69 74 78 81 84 83 80 84 80 80 81 86 80 78 77 77
60 60 60 60 60 60 60 60 60 60 60 60 61 61 60 63 71 83 79 79 83 84 82 79 75 76 72 74 74 71 75 79 82 84 85 85 78 81 80 83 84 80 78 77 78
60 59 59 59 60 60 60 59 59 59 60 60 61 61 59 62 84 84 83 81 83 84 83 83 78 81 77 74 74 79 78 80 84 85 85 81 81 81 82 81 79 78 78 79 79
59 59 59 59 59 59 59 59 58 59 60 60 61 60 58 72 82 84 83 82 85 86 81 86 84 80 80 76 82 81 75 79 82 84 83 85 75 76 82 80 77 77 78 78 79
59 59 59 59 59 59 58 57 59 62 61 61 62 61 63 77 81 79 81 79 83 87 87 86 85 83 78 82 79 76 76 73 81 83 84 83 74 81 82 80 77 77 77 77 79
58 58 58 58 58 57 56 57 62 65 64 63 59 58 67 75 75 83 83 78 80 82 85 87 84 78 77 72 71 72 71 71 76 83 82 81 77 84 83 82 77 77 78 78 78
58 57 57 57 57 56 56 58 62 64 64 66 64 58 69 74 78 78 84 82 76 77 77 78 77 72 73 70 61 66 67 72 73 82 82 78 78 80 82 82 79 78 79 79 79
57 57 57 56 56 55 58 65 63 62 61 63 65 64 70 80 83 77 82 81 79 75 68 74 68 63 69 71 74 72 71 72 77 82 80 79 79 81 81 82 80 80 79 80 81
57 57 56 56 55 55 61 60 56 56 48 62 60 64 71 73 71 75 84 75 73 66 71 66 63 73 74 73 70 71 69 71 76 79 78 80 78 81 80 80 81 80 79 80 82
57 56 56 55 54 57 55 57 61 59 49 59 62 64 68 71 68 73 79 78 71 68 67 66 71 75 71 69 68 69 68 71 72 76 79 77 75 74 79 80 82 83 83 81 83
56 56 55 54 57 54 58 58 59 58 51 61 62 68 69 73 66 80 82 79 74 68 70 69 77 71 69 68 71 66 74 74 72 70 66 77 66 71 77 75 78 81 82 84 84
56 55 54 53 52 52 59 59 60 55 47 66 65 78 73 70 72 71 83 79 72 72 71 67 70 68 66 69 73 69 76 73 73 71 70 72 68 75 75 73 76 80 82 84 87
55 55 54 54 53 56 58 57 57 51 44 62 67 65 65 69 71 72 74 81 81 73 74 74 77 75 73 75 75 78 74 72 70 71 60 69 69 72 73 75 79 82 84 84 87
54 53 53 56 53 61 56 57 50 44 62 55 56 61 61 62 66 68 66 67 67 62 62 70 70 76 78 71 75 75 70 59 56 57 57 74 67 70 81 83 86 84 84 86 87
52 51 53 57 60 57 57 54 40 50 49 57 57 59 57 59 61 62 65 64 73 73 68 62 58 71 76 74 69 70 71 63 52 56 62 68 62 71 84 88 87 89 90 89 87
52 53 57 59 60 58 54 43 44 46 50 49 54 52 53 56 56 59 61 66 71 72 65 63 64 75 76 79 77 69 66 77 67 62 61 68 72 78 82 85 87 86 88 88 88
50 48 53 59 58 58 50 40 44 51 51 53 44 50 46 51 53 56 57 56 61 62 64 68 61 73 76 79 79 74 77 62 66 53 53 63 63 69 75 80 84 86 86 88 90
49 48 59 59 59 53 41 41 44 51 52 49 47 46 48 47 51 52 51 55 58 59 63 62 65 64 73 69 69 68 68 70 71 66 59 58 66 77 78 82 83 87 88 90 91
45 44 58 58 46 45 41 43 46 48 51 50 52 50 48 49 49 50 49 52 60 60 54 58 61 62 65 77 80 76 71 71 62 57 63 66 67 80 83 86 86 87 90 91 92
41 41 57 57 37 38 42 42 47 45 46 44 46 50 51 48 45 49 51 56 58 59 54 58 55 57 61 70 73 70 74 75 74 73 61 59 66 84 83 82 84 85 88 87 87
44 41 49 49 46 39 37 39 40 49 44 44 41 48 47 46 49 46 48 54 57 58 58 59 54 55 59 61 60 60 68 72 72 64 65 66 70 77 82 82 84 86 87 87 86
43 41 43 38 41 41 39 39 38 39 46 44 37 38 37 40 44 44 48 50 54 54 56 56 49 52 54 57 58 58 59 63 64 69 65 70 70 75 80 82 86 87 86 84 85
42 42 41 37 42 40 41 38 38 41 41 41 38 38 39 35 41 41 45 46 46 52 51 53 50 51 51 57 59 57 61 63 64 66 66 69 69 82 84 86 85 87 88 86 86
47 48 39 37 37 37 39 39 38 43 44 46 40 41 40 45 48 50 52 52 51 48 47 47 49 48 46 55 56 53 60 64 65 69 69 63 72 79 79 78 81 83 84 84 85

GFSSW_sfc_temp_048.txt.gz
Temp
62 62 62 62 62 62 62 62 62 62 63 63 62 62 62 62 62 72 77 87 85 78 81 91 92 91 92 87 86 86 77 79 81 81 84 90 86 90 92 85 86 87 86 87 87
62 62 62 61 62 62 62 62 62 62 62 62 62 62 62 62 73 78 87 81 80 79 91 87 85 89 86 86 86 82 81 82 88 89 88 89 89 87 86 84 83 84 89 88 87
61 61 61 61 61 61 61 62 62 61 61 62 62 62 62 65 75 89 83 79 79 82 97 94 93 88 86 88 85 83 82 87 88 89 91 90 89 91 87 82 86 82 83 85 86
61 61 61 61 61 61 61 61 61 61 61 61 61 62 62 73 74 93 80 79 79 94 95 91 89 84 84 80 88 80 85 88 90 91 91 89 93 88 88 89 93 89 87 86 85
60 60 60 60 60 60 60 60 60 60 60 61 61 62 67 73 80 93 78 80 88 94 91 88 85 86 82 86 86 82 86 89 92 92 92 93 89 89 88 92 95 91 87 86 87
60 60 59 59 60 60 60 59 59 59 60 61 61 62 70 68 95 95 92 88 91 93 92 92 89 92 87 85 84 89 87 89 91 92 92 89 88 89 90 92 91 88 86 87 88
59 59 59 59 59 59 59 58 59 60 61 61 62 67 68 78 92 94 93 93 95 95 91 95 95 90 89 84 89 89 82 87 90 92 90 92 84 84 91 90 87 87 87 87 89
59 59 59 59 59 59 58 57 59 63 62 62 63 69 71 89 93 89 95 93 96 98 98 98 95 91 88 90 86 84 86 80 90 92 92 91 81 89 92 89 86 86 86 86 88
58 58 58 58 58 57 56 58 63 64 63 63 67 71 75 79 83 91 94 87 92 95 96 96 92 87 88 80 81 83 78 80 84 93 90 88 83 92 94 90 87 87 87 87 87
58 58 57 57 57 56 56 59 65 65 70 73 74 66 78 80 87 90 93 92 86 87 84 84 84 80 81 78 70 77 78 84 82 88 89 86 86 91 94 92 90 88 88 87 88
58 57 57 57 56 55 62 78 73 70 74 74 78 77 79 87 89 87 91 88 87 82 75 80 75 71 78 81 83 84 81 80 85 91 87 86 87 90 94 91 91 89 88 89 89
57 57 57 56 55 55 72 69 61 61 56 73 73 76 83 83 79 84 91 82 79 73 81 77 71 81 84 84 81 81 78 80 87 88 85 86 86 91 94 90 91 91 89 90 91
57 56 56 55 54 65 69 64 71 70 59 71 76 75 77 80 78 81 87 86 79 76 77 75 79 84 81 79 76 77 78 79 80 85 88 85 82 86 91 92 93 94 94 93 92
57 56 55 53 63 69 68 73 72 70 57 71 70 75 78 82 74 89 89 87 81 76 78 78 85 80 79 76 79 73 82 81 80 78 74 87 72 83 89 88 90 93 94 94 92
56 56 55 52 65 66 68 73 71 66 51 74 72 85 81 78 84 81 90 86 79 78 80 74 78 77 75 77 82 77 86 81 80 78 78 79 75 81 89 85 88 91 93 95 96
56 55 53 64 71 71 73 72 68 55 50 68 73 71 71 75 78 82 81 87 87 80 81 80 87 84 82 83 84 84 81 81 80 78 68 76 77 78 84 85 90 93 95 95 97
54 53 58 68 64 73 73 68 55 51 70 61 64 69 70 72 73 75 73 73 72 67 69 76 79 83 86 79 83 81 77 67 64 65 65 81 76 78 88 94 93 94 96 96 97
52 51 60 69 74 72 69 61 46 58 57 64 62 65 64 69 71 74 71 69 76 77 75 68 65 78 84 80 77 76 77 70 58 65 70 80 71 80 93 96 96 98 100 99 98
51 71 71 72 73 70 62 51 53 53 55 55 61 60 65 65 65 68 71 71 75 80 71 71 71 84 84 84 85 76 72 84 77 78 71 78 80 88 92 93 94 96 98 99 99
62 66 68 74 73 68 58 46 52 57 57 57 51 57 54 59 60 66 69 67 72 80 81 77 69 82 83 84 86 83 84 72 75 61 60 72 74 77 84 86 92 94 97 99 102
64 62 68 74 73 64 51 50 53 59 58 53 53 53 56 56 59 62 63 62 67 70 72 77 75 76 81 76 76 77 76 77 80 75 67 65 74 90 87 89 90 95 98 100 102
62 56 69 72 59 58 51 51 49 56 59 55 57 54 52 56 57 59 58 60 66 68 66 75 74 70 74 84 87 84 78 78 69 66 73 74 77 93 91 94 95 95 98 102 103
56 58 70 68 48 48 53 52 54 51 50 49 44 53 55 55 51 56 57 62 64 66 63 69 69 64 69 78 82 78 80 82 81 81 69 67 76 91 91 90 93 94 97 98 100
56 51 63 63 61 50 44 48 48 55 51 51 40 47 47 53 59 53 56 60 63 63 59 64 69 68 67 70 77 72 77 80 80 72 73 75 77 85 87 89 91 92 94 96 96
59 53 51 47 48 47 44 46 44 44 51 53 42 38 38 43 51 52 56 59 62 61 64 65 61 63 70 66 67 72 76 78 76 77 71 77 78 83 87 90 91 94 95 94 93
51 49 49 49 45 45 47 43 45 46 46 46 43 39 41 36 39 40 47 55 55 60 60 63 58 60 60 66 66 64 70 72 76 78 78 79 78 90 92 93 91 91 93 93 95
55 55 48 44 47 42 45 45 45 49 50 50 50 47 45 45 51 56 58 59 59 55 56 56 59 56 56 66 65 59 68 71 73 77 77 71 79 86 85 86 87 88 91 92 94

GFSSW_sfc_temp_051.txt.gz
Temp
62 62 62 62 62 62 62 62 63 63 63 63 63 62 62 62 62 74 78 90 90 79 80 95 96 97 98 94 94 94 80 80 80 80 84 95 91 96 98 91 91 92 90 89 87
62 62 62 62 62 62 62 62 62 62 62 62 62 62 62 62 73 81 90 85 82 80 92 93 91 94 91 91 92 87 83 73 89 79 88 94 93 93 91 89 88 91 93 90 89
62 61 61 61 62 62 62 62 62 61 61 62 62 62 62 66 78 91 82 84 81 83 98 99 98 94 89 94 92 90 69 74 94 96 90 95 92 96 91 86 90 86 87 88 87
61 61 61 61 61 61 61 61 61 61 61 61 62 62 62 74 75 94 82 81 80 94 97 97 94 89 87 87 94 86 91 95 96 96 96 88 95 94 93 94 97 94 91 89 87
60 60 60 60 60 60 60 60 60 60 60 61 62 62 67 76 83 97 80 81 90 92 94 94 91 90 86 92 93 89 90 95 96 97 97 97 92 92 94 98 99 95 92 90 89
60 60 60 60 60 60 60 59 59 59 61 61 62 63 71 72 101 103 99 90 94 93 96 97 93 96 92 93 91 94 93 94 96 95 97 94 93 93 95 99 95 92 91 92 92
59 59 59 59 60 60 59 58 59 60 62 63 62 69 77 81 100 101 100 95 99 98 96 100 101 94 96 91 97 95 88 91 94 96 95 98 89 90 95 97 92 92 91 92 93
59 59 59 59 59 59 58 57 59 63 63 63 63 73 76 97 100 97 101 97 101 102 102 103 103 97 94 98 91 88 89 81 92 95 97 95 79 93 97 95 91 91 91 91 92
58 58 58 58 58 58 57 58 61 64 63 64 70 75 79 85 89 97 100 95 98 100 101 103 99 91 92 85 83 86 79 82 85 97 95 92 70 72 97 95 92 91 92 92 92
58 58 58 58 57 56 56 58 66 63 70 77 81 72 82 86 95 96 100 99 94 94 92 92 90 85 85 83 73 79 80 85 83 93 94 90 82 77 96 96 93 92 92 91 92
58 57 57 57 56 55 63 86 77 72 78 77 80 81 88 95 96 92 98 95 94 90 81 86 80 75 81 85 87 88 86 84 90 93 91 87 86 89 94 95 94 93 92 92 93
58 57 57 57 56 55 75 74 69 70 61 77 79 81 87 93 84 90 97 86 85 79 84 81 75 84 88 88 86 85 85 86 91 89 92 87 88 92 96 95 96 96 93 93 94
57 57 56 55 55 69 77 74 81 79 64 73 84 83 85 88 83 88 91 88 82 80 80 78 82 87 86 85 82 83 83 84 85 91 93 88 84 89 96 98 98 99 98 97 95
57 56 56 53 63 79 76 80 83 79 59 74 79 83 87 87 79 93 94 89 85 79 82 82 90 85 84 82 85 78 88 87 86 84 78 89 74 84 92 93 95 96 98 98 97
57 56 55 52 71 74 76 83 82 76 51 80 78 90 88 81 89 85 96 89 83 82 84 79 84 83 80 83 87 82 90 86 86 83 83 83 79 85 91 88 92 96 98 100 100
56 56 54 71 78 81 83 83 78 58 51 73 79 76 77 80 83 90 87 91 91 85 86 85 92 90 87 89 89 90 86 86 85 82 71 79 81 82 87 90 94 97 100 100 101
55 53 57 72 72 83 82 76 58 51 76 65 66 73 74 76 78 82 79 76 75 70 73 81 84 89 91 84 89 86 81 70 67 68 68 83 79 82 93 97 98 98 99 101 103
53 53 66 78 83 81 76 65 47 60 64 67 65 66 64 73 78 79 77 74 79 81 78 72 69 83 89 85 82 81 81 71 60 65 72 82 74 82 96 100 102 103 103 103 102
52 79 79 80 82 80 68 55 57 58 62 58 61 63 68 74 72 77 75 76 79 81 72 74 73 89 89 89 89 81 76 87 79 82 76 81 84 92 97 97 99 99 102 102 103
64 74 78 82 82 75 63 53 60 64 63 61 52 60 58 62 66 71 74 80 79 84 87 81 73 86 88 90 89 86 89 75 78 65 66 77 79 81 87 91 96 98 99 102 104
66 68 76 82 80 69 58 57 59 64 64 58 55 55 56 51 53 62 71 73 75 79 85 83 80 80 87 80 79 80 80 82 83 79 71 70 78 94 92 93 94 97 100 102 104
69 61 78 79 63 68 58 58 54 61 64 61 60 58 56 57 55 54 59 67 70 73 71 83 78 71 80 88 90 87 82 83 74 70 78 79 81 97 97 99 99 98 101 104 105
62 65 79 76 55 56 60 58 61 57 57 54 51 52 56 54 43 53 55 67 69 71 68 75 72 67 72 83 86 81 85 87 85 84 74 73 79 94 96 95 99 98 101 102 103
61 56 67 68 68 58 54 52 53 60 57 57 53 54 51 53 57 51 53 61 69 69 62 66 71 69 70 76 82 76 81 85 85 76 77 79 82 87 91 92 93 96 100 102 102
56 50 57 47 55 55 54 54 51 48 56 59 51 46 44 43 48 43 48 58 67 64 70 70 62 71 76 80 81 82 80 83 80 82 76 83 82 88 91 93 94 96 97 97 97
43 44 54 47 52 52 51 50 50 51 51 51 49 47 49 44 43 39 47 50 55 63 65 69 61 68 69 77 74 72 81 82 84 83 84 84 84 95 96 97 94 94 95 95 97
49 49 43 44 49 47 48 51 51 54 56 55 53 51 50 51 57 59 59 61 61 58 56 60 64 63 59 71 71 65 74 78 82 86 84 79 85 93 91 92 92 92 93 94 96

GFSSW_sfc_temp_054.txt.gz
Temp
62 62 62 62 62 62 62 63 63 63 63 63 62 62 62 62 62 70 71 87 88 81 82 93 93 93 95 90 95 94 77 73 77 82 81 85 91 95 96 90 90 90 82 82 86
62 62 62 62 62 62 62 62 62 62 62 62 62 62 62 62 67 74 85 84 82 82 89 90 87 91 88 89 91 85 75 63 79 84 85 83 93 92 90 89 88 85 85 85 86
62 61 61 61 62 62 62 62 62 62 62 62 62 62 62 65 71 85 83 85 83 84 94 96 95 92 86 91 89 88 66 72 82 85 90 82 91 96 89 85 86 80 81 84 83
61 61 61 61 61 61 61 61 61 61 61 61 61 62 62 70 71 93 84 82 82 93 92 93 93 87 84 83 92 84 73 74 82 85 88 81 80 92 92 91 93 88 86 85 82
60 60 60 60 60 60 60 60 60 60 60 61 62 62 64 70 78 99 81 83 90 92 89 89 88 88 83 88 91 88 77 84 83 89 80 81 84 90 92 96 96 91 88 85 84
60 60 60 60 60 60 60 60 59 60 61 62 62 62 66 67 98 104 100 89 92 90 90 92 91 94 89 89 89 94 93 92 95 96 91 80 89 91 92 97 92 89 87 87 86
59 59 59 59 60 60 60 59 59 60 62 64 64 67 72 76 102 104 101 94 94 93 89 95 98 93 93 88 96 95 87 92 90 93 93 97 80 81 79 95 90 89 88 88 88
59 59 59 59 59 59 58 58 59 61 65 63 65 70 70 97 96 97 101 98 99 99 96 100 101 96 93 96 93 88 86 76 91 92 94 94 68 69 91 91 88 89 89 89 90
58 59 59 58 58 58 57 58 60 63 64 64 67 72 75 89 90 97 99 95 97 98 98 103 99 91 92 83 81 85 75 79 83 93 93 91 71 71 78 73 88 88 89 89 90
58 58 58 58 58 57 56 59 67 63 65 74 77 71 80 85 95 96 100 99 94 94 91 92 90 83 85 80 69 76 77 82 82 89 91 88 81 78 73 68 73 89 89 89 89
58 58 58 57 57 56 61 83 76 72 77 72 77 78 87 97 99 94 98 94 94 89 79 86 79 75 80 82 84 84 82 80 87 93 88 88 76 75 71 71 69 90 89 89 90
58 57 57 57 56 56 65 75 74 75 63 76 77 79 84 90 83 91 98 86 85 78 83 80 74 83 86 86 83 83 81 83 88 93 83 84 78 73 72 71 74 87 88 91 91
57 57 57 56 56 68 82 78 85 83 65 69 78 79 82 86 80 87 92 88 82 78 79 76 81 87 85 82 80 80 80 82 84 87 88 86 78 76 76 80 89 92 90 94 92
57 57 56 54 65 78 78 83 87 84 58 70 79 85 86 87 80 92 95 89 84 77 80 80 87 83 82 80 83 75 86 86 86 79 72 87 65 80 90 91 93 94 91 94 94
57 56 55 53 67 74 79 86 86 80 47 81 81 93 91 82 87 85 95 89 79 81 81 77 80 81 79 80 86 80 89 85 85 82 81 78 76 82 89 87 91 94 95 95 97
56 56 54 72 76 80 85 85 80 59 48 69 77 74 75 82 83 88 87 91 89 82 84 82 90 86 86 88 88 90 86 85 84 81 71 78 76 77 84 86 92 96 97 97 98
55 54 56 71 71 85 84 76 58 51 71 64 63 68 67 68 75 80 79 77 74 68 71 79 81 88 91 84 88 86 80 68 66 67 66 81 77 80 91 94 94 95 97 100 100
54 53 68 77 83 84 78 64 48 61 63 70 65 65 62 70 73 75 76 73 79 78 73 70 68 81 89 85 81 81 80 69 57 62 68 79 72 79 94 99 101 101 100 101 101
54 74 78 83 85 82 68 54 57 60 64 61 62 58 60 67 66 65 71 75 79 79 70 72 71 87 88 90 88 80 74 85 75 78 71 76 80 89 94 95 98 99 101 100 101
62 68 72 84 85 76 62 53 62 66 64 62 52 58 52 57 58 58 61 77 79 83 84 78 70 84 87 90 89 85 88 73 76 61 61 72 75 77 84 89 94 96 99 101 102
67 68 79 85 82 68 56 59 62 67 65 58 55 54 55 55 52 51 54 64 67 71 83 80 75 76 85 80 78 80 79 80 80 76 66 66 75 93 87 90 93 97 99 101 103
65 58 80 82 62 65 60 62 57 63 67 62 60 57 54 53 50 50 49 53 66 70 66 79 76 68 74 88 90 86 80 81 71 67 75 75 77 94 97 97 97 97 100 102 103
59 63 79 77 54 56 61 61 62 61 59 58 53 57 57 50 44 49 49 55 59 63 64 67 68 63 68 80 87 81 83 83 84 82 70 70 75 94 95 96 98 97 99 99 99
59 50 62 65 64 55 52 54 55 64 58 54 54 58 54 48 53 48 44 54 59 62 65 67 64 65 66 71 81 76 80 83 82 74 74 76 80 86 90 91 95 97 98 100 98
59 51 55 46 48 49 53 53 52 51 53 49 49 51 50 45 47 45 46 50 59 61 67 69 60 68 73 79 81 81 80 81 79 80 75 79 81 85 89 90 93 94 96 97 98
51 42 48 44 48 45 47 44 49 53 54 52 51 46 53 48 47 44 47 48 46 55 60 63 59 65 64 73 76 75 82 82 82 83 83 84 84 94 94 93 93 94 94 93 95
56 53 42 39 43 41 44 47 48 51 55 58 54 53 51 54 58 59 60 58 55 54 56 59 58 59 56 69 72 67 76 80 82 85 85 79 86 93 90 89 90 91 93 94 96

GFSSW_sfc_temp_057.txt.gz
Temp
62 62 62 62 62 62 62 62 63 63 63 62 62 62 62 62 62 63 59 73 76 80 81 85 85 85 85 80 84 86 68 64 66 66 74 81 79 86 89 80 82 84 77 78 81
62 62 62 61 62 62 62 62 62 62 62 62 62 62 62 62 58 60 75 80 81 80 80 81 79 82 76 78 80 76 64 67 77 77 75 82 80 84 82 77 74 75 80 82 82
62 61 61 61 61 62 62 62 62 61 61 61 61 62 62 62 58 70 83 79 82 81 84 85 85 82 75 79 79 79 69 73 77 81 83 82 82 91 81 71 73 71 76 80 81
61 61 60 61 61 61 61 61 61 61 61 61 61 62 62 60 62 86 83 81 81 84 84 82 81 76 73 73 82 76 78 79 81 83 83 79 82 87 84 78 80 79 80 80 79
60 60 60 60 60 60 60 60 60 60 61 61 63 62 58 58 64 90 83 81 83 83 80 79 76 77 72 77 81 81 76 83 84 84 81 84 82 84 80 81 82 81 81 79 78
60 60 60 60 60 60 60 60 60 60 61 62 64 63 56 55 87 91 89 83 83 81 81 82 79 83 79 79 78 84 80 83 85 81 83 81 82 82 82 83 80 80 78 79 80
59 59 59 59 60 60 60 59 59 60 60 62 65 63 61 63 90 91 86 82 85 83 79 85 86 81 83 77 87 86 81 81 82 81 76 84 74 73 77 84 79 78 78 79 80
59 59 59 59 59 59 59 58 59 61 61 64 65 61 55 83 82 83 87 84 88 87 84 86 88 82 80 84 84 78 78 70 82 82 83 79 58 71 79 74 78 80 79 80 79
59 59 59 59 58 58 57 58 63 65 63 64 60 58 59 86 80 86 87 88 87 85 86 92 86 78 80 74 70 72 66 69 75 86 87 80 57 69 77 74 77 80 80 80 80
58 58 58 58 58 57 57 60 66 62 64 69 70 56 68 76 86 89 91 91 86 85 83 81 77 72 74 69 59 63 65 69 72 82 85 71 67 67 72 74 75 74 73 81 80
58 58 58 57 57 56 55 58 65 62 68 62 65 67 69 83 87 88 91 87 84 79 70 76 67 65 70 73 74 74 74 71 80 86 82 77 68 70 73 77 76 76 73 76 82
58 57 57 57 56 57 57 66 67 69 58 71 72 71 76 78 71 79 90 78 76 69 74 70 64 74 79 78 76 75 71 71 79 85 82 73 67 71 72 69 73 75 72 74 84
57 57 57 56 56 62 67 70 78 75 57 64 70 71 71 73 70 73 80 80 74 70 71 66 71 80 78 75 73 72 69 71 72 81 80 74 66 69 73 71 74 75 76 80 84
57 57 56 54 60 66 68 77 79 76 47 60 68 75 77 75 69 84 85 81 75 70 73 71 79 77 74 73 75 65 78 78 77 74 60 77 58 62 69 71 72 75 77 80 86
57 57 56 53 55 61 70 78 79 69 37 72 70 83 77 69 74 78 85 79 71 73 73 69 73 73 72 74 79 71 80 77 76 72 71 68 64 62 71 69 71 76 78 79 84
57 56 55 61 61 68 76 78 71 46 42 64 70 66 65 68 72 78 79 82 81 75 76 74 83 79 76 81 82 83 76 75 75 71 60 66 66 63 69 70 74 78 79 80 86
55 54 54 63 60 74 74 68 46 41 66 60 58 62 61 61 65 68 64 66 64 58 61 70 74 80 83 74 79 77 67 54 53 55 55 65 65 64 78 81 82 82 81 82 89
54 53 60 71 72 74 69 54 39 56 56 62 59 60 56 60 60 61 59 55 67 69 60 58 57 73 81 75 70 71 69 55 44 48 56 65 58 67 81 86 92 91 88 90 89
54 63 68 73 76 72 58 43 46 54 58 55 56 51 50 58 57 56 53 53 57 55 59 59 60 79 81 83 79 69 66 70 56 56 52 59 66 76 84 82 87 89 90 89 91
54 59 65 76 76 68 52 46 53 62 61 58 47 52 45 50 51 49 50 58 54 56 57 58 57 72 80 82 82 75 75 62 64 47 49 59 61 66 73 79 80 85 89 91 92
57 58 72 78 75 59 47 52 58 64 63 55 52 49 49 48 49 47 49 56 59 53 53 54 53 64 72 72 70 70 67 69 62 57 48 48 61 75 76 81 82 85 84 92 92
55 49 71 76 55 58 51 53 56 59 63 58 57 53 49 48 46 46 45 52 59 54 44 55 50 52 63 75 81 77 72 67 61 53 55 54 62 78 81 86 87 86 88 87 94
49 54 70 66 45 43 49 51 57 57 54 52 50 53 47 44 41 48 47 55 55 51 47 51 46 44 56 65 73 72 75 74 65 61 55 55 61 82 80 86 89 82 85 89 86
51 46 54 57 56 46 43 44 45 57 56 55 51 49 43 40 48 46 43 51 53 53 56 55 47 44 43 57 64 64 73 75 71 59 58 64 62 73 76 77 80 82 83 83 84
53 47 49 41 42 43 46 45 42 43 51 53 48 49 42 38 42 42 46 48 53 53 49 50 44 51 57 63 67 69 73 74 70 70 63 65 65 71 73 76 78 79 81 84 84
48 42 45 39 43 43 44 42 42 43 46 44 46 49 44 37 40 33 45 46 45 48 43 49 44 51 52 64 68 67 73 76 76 75 72 70 71 76 77 79 78 80 81 80 81
52 50 42 39 39 38 41 43 43 47 48 50 49 47 44 47 51 48 56 54 52 46 41 43 47 44 44 59 61 55 66 71 76 78 76 68 71 75 74 77 76 77 80 81 82

GFSSW_sfc_temp_060.txt.gz
Temp
62 62 62 61 62 62 62 62 63 63 63 62 62 62 62 62 61 60 54 67 69 77 81 78 78 79 79 75 79 80 64 58 64 67 69 77 77 80 82 76 79 79 73 75 78
62 62 61 61 61 62 62 62 62 62 62 62 62 62 62 62 57 55 70 75 77 79 78 74 72 76 68 72 74 70 60 63 75 74 73 78 77 77 75 73 72 73 77 79 79
61 61 61 61 61 62 61 61 61 61 61 61 61 62 62 61 53 65 78 76 78 79 81 80 79 75 68 70 72 73 63 72 77 82 78 78 80 82 72 67 70 68 72 76 77
61 61 61 61 61 61 61 61 61 61 61 61 62 63 61 56 61 80 81 77 79 80 79 77 73 67 65 66 75 67 75 77 79 84 81 79 82 77 78 73 77 76 76 77 75
60 60 60 60 60 61 61 61 60 60 61 61 63 63 56 52 59 82 82 79 79 79 76 74 69 67 65 69 73 71 75 81 83 83 82 84 80 77 75 78 79 78 77 76 76
60 60 60 60 60 60 60 60 60 60 61 61 63 63 53 52 79 81 82 76 77 76 75 75 72 74 69 72 70 77 78 81 83 81 79 79 78 76 75 78 76 76 75 77 77
59 59 59 60 60 60 60 59 60 61 62 61 64 62 55 61 81 80 79 75 78 77 73 78 79 75 74 69 80 78 73 79 81 82 78 81 71 69 75 77 74 75 76 77 77
59 59 59 59 60 59 59 59 60 63 62 61 64 62 48 74 73 74 76 77 80 80 75 80 81 73 68 74 75 70 71 65 77 78 80 75 60 71 76 74 72 74 76 76 77
59 59 59 59 59 58 57 58 62 64 63 64 57 53 50 75 71 76 79 79 77 74 76 88 77 68 69 63 59 61 57 63 71 81 77 72 63 71 76 73 72 73 75 76 76
58 58 58 58 58 57 57 58 62 62 64 66 67 51 61 69 75 82 80 84 77 75 74 73 67 59 61 56 51 55 56 62 67 78 76 70 67 71 74 74 72 73 73 75 75
58 58 57 57 57 56 53 55 61 55 56 57 60 60 67 75 81 79 83 80 77 70 61 66 60 57 62 63 65 67 64 64 71 78 72 67 67 70 73 70 73 73 73 74 76
58 57 57 57 56 55 52 56 58 63 53 67 68 66 70 68 64 72 79 73 69 63 66 60 59 67 70 70 69 68 65 66 72 79 78 70 68 71 71 70 73 75 74 75 76
57 57 57 56 55 57 56 60 67 58 48 59 65 65 65 66 63 67 70 71 67 62 65 61 65 74 71 69 68 67 64 66 66 74 76 70 62 64 69 73 74 79 77 78 78
57 57 57 55 55 54 58 66 68 63 40 54 62 70 72 68 63 78 77 72 69 65 64 64 73 72 69 68 70 61 73 73 72 67 59 71 48 60 66 68 70 71 76 77 78
57 57 56 54 46 51 64 62 68 58 35 66 63 75 71 64 68 71 79 71 65 67 64 64 68 68 66 68 74 66 74 71 71 63 58 68 56 58 67 63 68 73 75 77 78
57 56 56 53 48 55 61 65 57 44 37 57 63 61 61 63 65 69 68 71 72 66 69 67 77 73 72 76 76 77 70 68 62 59 51 61 64 57 60 66 72 76 77 78 79
55 54 53 58 55 61 61 55 41 35 58 52 50 56 54 54 58 60 57 54 47 40 53 62 67 74 78 68 74 72 57 50 45 48 49 61 57 65 70 74 76 75 78 80 81
54 54 54 61 56 60 55 46 32 50 48 54 53 54 50 54 51 55 52 48 52 48 40 48 52 67 74 71 65 64 65 51 42 42 53 57 54 65 75 80 81 80 81 81 83
53 54 53 61 64 58 50 34 36 47 54 52 50 46 44 52 52 51 47 48 52 48 39 36 49 70 75 76 74 62 59 68 50 45 47 53 62 71 75 75 80 80 81 81 83
49 45 52 69 70 55 44 38 44 56 56 53 42 47 40 43 45 43 44 53 52 54 54 43 35 57 69 75 76 71 68 55 49 48 43 50 54 64 68 72 74 79 81 82 83
43 43 57 70 60 48 36 38 50 58 57 50 45 42 41 40 41 41 44 53 54 52 54 44 39 47 58 61 63 66 64 57 59 51 50 43 57 68 69 72 74 77 83 83 83
40 38 57 65 43 40 37 43 50 52 55 50 50 46 41 41 38 39 41 47 55 53 45 50 43 35 47 63 70 69 63 63 57 49 48 50 60 73 75 76 77 79 85 86 86
38 39 56 54 33 34 41 45 51 49 47 49 48 49 43 38 35 41 45 54 55 50 46 46 41 34 44 53 63 60 63 59 55 55 50 54 60 74 73 74 77 83 81 87 87
38 36 42 43 41 34 36 40 42 52 48 48 46 48 42 37 37 37 43 51 54 53 54 48 39 37 32 40 48 49 55 65 60 54 54 59 66 68 76 74 75 78 80 86 88
39 35 37 31 36 36 38 40 41 41 46 48 45 45 40 32 36 36 41 44 52 54 47 43 34 38 42 48 52 53 55 62 62 64 60 63 59 66 70 74 73 74 76 81 85
37 39 38 40 41 39 37 36 40 43 43 41 41 44 41 33 37 34 39 37 39 46 42 41 35 37 36 50 54 54 62 66 67 69 63 64 62 71 73 73 71 74 75 77 84
43 44 42 39 38 36 34 39 40 44 45 48 45 42 39 42 46 46 48 47 45 42 38 35 35 32 33 51 54 51 56 62 65 71 66 65 68 68 70 69 67 73 78 76 77

GFSSW_sfc_temp_063.txt.gz
Temp
62 62 61 61 61 62 62 62 62 62 62 62 62 62 61 61 61 58 53 64 66 76 79 76 76 76 76 72 77 78 60 55 62 63 70 76 71 79 80 73 78 77 71 74 75
61 61 61 61 61 62 62 61 62 62 62 61 61 62 62 61 55 52 68 73 75 78 76 71 69 72 65 68 71 66 57 62 72 75 70 76 77 73 73 73 70 70 74 75 75
61 61 61 61 61 62 61 61 61 61 61 61 61 62 62 59 52 64 78 75 77 79 78 76 75 72 64 66 68 68 60 68 73 78 78 74 75 79 72 66 70 65 69 73 73
61 61 61 61 61 61 61 61 61 61 61 61 61 63 62 54 59 76 80 76 77 77 77 74 71 65 61 62 70 62 71 72 75 79 79 76 78 74 75 73 76 73 74 73 72
60 60 60 60 60 61 61 61 60 60 61 61 61 64 55 51 58 78 78 76 76 75 74 71 67 64 61 64 68 67 70 75 78 79 78 82 77 76 74 76 76 76 75 73 73
59 59 59 60 60 60 60 60 60 60 61 61 61 63 51 51 75 78 77 74 74 73 72 71 69 70 65 66 67 72 74 74 77 80 81 79 75 73 73 76 74 74 73 74 74
59 59 59 59 60 60 59 59 59 60 62 62 62 61 52 59 75 73 71 70 74 74 71 75 73 72 68 64 73 73 68 73 76 80 76 79 69 68 73 75 71 72 73 74 75
59 59 59 59 59 59 58 58 59 63 61 62 64 62 48 70 69 71 72 73 76 73 73 74 76 69 65 68 70 64 64 56 71 78 80 76 59 68 73 72 69 72 73 73 74
59 59 59 59 59 58 57 57 61 64 63 64 56 52 47 72 69 74 74 74 72 70 70 83 73 63 65 60 55 56 52 58 65 77 75 74 63 68 72 70 69 70 72 73 74
58 58 58 58 57 57 56 58 61 62 64 65 64 50 59 65 70 76 75 78 72 70 70 67 63 56 53 53 49 50 53 56 62 71 73 71 64 67 69 70 69 70 72 73 73
58 58 57 57 57 55 52 57 54 51 54 53 58 59 64 68 74 74 77 75 71 64 56 61 53 54 59 58 61 61 60 60 66 74 71 69 66 66 68 69 68 70 71 72 73
58 57 57 57 56 55 51 57 57 59 47 62 64 64 66 63 61 68 74 68 65 57 60 55 53 61 65 63 62 61 59 59 66 74 69 68 68 68 68 68 70 70 70 72 73
57 57 57 56 54 55 52 55 60 53 44 56 62 63 63 61 58 64 69 67 63 59 60 55 59 68 65 62 61 59 58 61 61 70 72 67 63 66 69 70 72 73 73 74 74
57 57 56 55 55 50 56 60 57 58 40 54 59 67 67 63 60 72 71 67 63 60 61 59 69 66 63 62 64 53 66 68 66 64 59 66 48 58 67 66 68 71 73 73 75
57 56 55 54 47 51 62 56 56 55 33 61 59 72 65 58 62 65 73 66 58 62 60 60 63 63 62 64 68 61 69 66 65 61 58 64 52 57 64 63 65 70 74 75 76
56 55 55 50 46 52 56 56 56 43 35 52 59 57 55 56 60 64 62 63 62 57 61 62 73 68 68 71 71 71 65 62 58 62 53 58 58 55 57 63 68 72 74 76 77
55 54 52 56 55 56 56 52 41 34 54 48 48 52 49 49 53 56 51 47 43 43 40 50 61 68 71 63 68 67 53 45 42 46 48 56 54 64 66 72 73 73 75 77 79
53 53 52 59 58 55 53 46 32 47 44 51 51 50 46 50 47 51 48 44 48 44 39 36 45 60 68 65 59 61 59 45 37 39 50 55 49 61 73 76 79 79 79 80 79
53 47 51 56 66 55 49 33 33 43 50 49 47 43 41 49 48 46 44 43 47 46 36 36 40 55 61 62 67 59 55 62 47 42 44 50 55 67 72 71 75 76 78 79 79
46 41 47 63 61 52 43 36 39 50 51 49 39 44 36 40 42 40 41 49 48 51 46 40 34 48 54 60 68 65 63 52 46 45 40 45 50 59 64 67 70 73 77 78 81
40 42 55 63 54 46 34 34 44 52 51 46 42 39 37 38 38 37 40 48 51 49 48 38 37 42 50 51 53 55 59 52 55 49 48 41 52 61 66 70 70 73 77 79 80
38 39 55 55 40 35 35 41 47 48 50 47 47 43 39 40 36 37 39 45 53 50 41 41 36 34 40 54 55 54 52 59 51 46 45 46 56 71 71 72 72 73 79 82 83
36 35 51 50 30 30 37 42 47 46 45 44 44 45 43 37 33 39 42 51 53 48 42 41 38 31 39 44 50 46 50 51 53 49 48 49 56 70 69 71 74 73 73 79 81
37 34 39 40 37 32 34 36 39 50 46 45 43 43 41 40 40 36 40 50 52 51 54 47 35 32 32 35 41 39 45 47 44 46 57 56 55 64 68 68 70 72 73 77 81
37 33 35 30 32 32 34 36 39 39 45 45 39 37 35 34 36 34 39 41 48 52 44 39 33 37 37 40 42 42 43 46 46 50 50 62 58 64 66 69 70 71 74 75 83
36 35 36 40 38 38 34 33 38 40 40 40 37 41 42 33 35 33 36 33 37 40 36 36 35 35 35 43 44 42 47 52 54 55 56 62 61 66 63 62 64 65 69 74 82
41 44 42 39 38 36 34 37 37 39 43 46 41 38 35 39 43 41 41 40 39 37 33 33 35 32 28 41 41 44 51 54 55 55 54 56 56 61 60 62 61 62 65 72 82

GFSSW_sfc_temp_066.txt.gz
Temp
62 61 61 61 61 62 62 62 62 62 62 62 62 61 62 62 61 56 51 64 65 76 78 76 74 74 74 69 75 76 60 54 60 63 65 73 71 77 78 72 76 74 69 72 72
61 61 61 61 61 61 62 62 62 62 62 62 61 61 62 62 55 51 65 72 73 77 72 70 66 70 63 66 68 64 58 60 69 70 67 75 74 72 71 71 68 68 71 72 72
61 61 61 61 61 61 61 61 61 61 61 61 61 61 63 58 51 62 77 74 76 77 76 74 73 69 61 64 65 66 59 66 71 75 75 75 73 76 70 65 67 64 66 70 70
61 61 61 61 61 61 61 61 61 61 61 61 61 61 62 52 57 71 78 75 77 76 75 71 68 63 59 59 66 60 68 70 71 76 74 72 74 73 73 72 74 71 71 70 69
60 60 60 60 60 61 60 60 60 60 60 61 61 61 53 49 57 74 77 76 75 72 72 67 65 61 59 62 65 62 67 72 74 74 74 78 73 73 72 74 74 73 72 70 70
60 60 60 60 60 60 60 59 59 60 61 61 61 63 50 50 72 74 73 72 71 70 70 70 67 67 62 61 63 68 69 71 74 74 74 74 72 74 71 73 71 71 70 70 71
59 59 59 59 60 59 59 58 59 60 62 62 62 60 51 58 71 69 71 66 69 71 68 70 72 70 65 60 69 69 64 69 71 72 73 76 67 67 70 72 69 69 70 71 72
59 59 59 59 59 58 58 57 58 62 61 63 65 58 48 68 66 68 68 68 72 67 68 71 73 66 61 65 67 62 61 55 67 72 77 73 59 66 70 69 67 69 70 71 72
59 59 59 59 58 57 56 57 61 63 63 65 54 50 51 70 66 69 70 69 69 65 67 82 69 60 61 56 52 53 49 55 63 72 73 71 60 66 70 68 67 68 69 71 71
58 58 58 58 57 56 56 59 64 62 62 64 62 50 58 63 67 71 71 74 68 67 66 64 60 52 50 50 43 47 49 53 60 68 70 66 62 65 68 68 67 68 69 70 71
58 58 58 57 56 55 51 52 52 50 54 49 54 58 62 66 69 70 73 71 67 61 54 57 51 52 55 55 57 58 56 57 64 71 67 65 63 63 66 67 66 68 69 69 71
58 57 57 56 55 55 51 54 54 55 45 57 59 60 64 60 59 67 69 64 61 53 56 52 50 58 61 60 59 58 54 54 63 72 66 64 65 64 65 66 68 69 69 70 72
57 57 56 56 54 54 50 54 58 52 43 54 59 60 61 59 57 63 67 62 60 55 55 51 56 64 62 57 56 55 54 54 57 69 69 63 58 60 66 67 69 71 73 72 72
57 57 56 54 55 49 54 54 56 54 40 52 55 63 65 60 55 70 67 63 60 57 57 55 64 62 59 56 59 46 61 63 62 59 55 64 47 56 62 63 66 68 70 71 73
56 56 55 53 45 52 60 53 51 54 31 57 57 69 62 56 58 62 68 61 55 59 57 54 58 58 57 60 63 56 65 62 61 57 59 56 50 55 62 60 63 67 70 72 74
56 55 54 51 46 54 53 51 53 41 33 49 56 54 53 53 56 60 58 59 60 54 55 58 65 62 63 67 67 67 60 58 55 56 50 57 54 52 55 62 66 69 71 73 74
54 53 51 54 52 62 51 52 39 33 50 46 45 50 46 46 50 52 49 46 40 41 39 49 56 62 66 58 63 62 51 40 39 45 47 54 52 61 63 67 71 71 72 74 76
53 52 51 57 56 53 52 45 30 44 41 49 49 47 43 47 45 48 45 41 47 42 36 36 43 53 57 56 55 54 53 41 34 35 47 50 48 59 72 75 73 76 76 76 77
52 44 48 55 61 52 48 33 29 37 44 45 45 41 39 46 45 44 40 40 44 43 35 34 40 54 58 57 56 53 52 57 45 40 42 47 54 63 69 70 71 72 74 74 76
43 39 46 61 54 51 42 34 37 46 47 44 36 42 34 38 39 37 39 45 45 48 42 38 33 46 52 57 59 54 58 48 42 39 37 43 48 56 61 70 69 69 72 75 77
39 44 56 58 52 45 33 32 41 49 49 42 39 37 35 36 36 36 40 44 49 46 45 36 34 40 48 48 47 48 50 49 51 48 45 38 49 58 62 68 69 71 74 76 78
37 40 55 52 39 32 31 37 45 45 48 44 43 41 37 38 34 35 38 42 51 46 38 38 33 31 37 51 53 49 46 44 43 41 43 46 52 68 68 69 69 70 72 77 79
36 34 49 47 30 29 34 38 44 43 42 41 40 40 41 36 33 36 40 49 51 45 39 39 32 27 36 38 45 43 45 39 39 37 44 46 50 68 72 67 70 71 70 72 75
36 34 38 38 34 30 35 33 37 48 43 42 40 39 36 34 40 36 38 48 50 48 54 46 31 30 28 32 38 38 44 45 39 34 39 49 54 60 66 66 68 69 69 71 72
36 32 34 29 33 38 32 33 36 37 43 42 38 38 36 32 33 34 38 41 47 50 42 37 28 31 35 39 41 40 42 47 41 42 38 48 52 59 65 67 65 64 65 68 70
35 35 37 35 36 40 34 36 36 39 39 40 35 40 40 34 36 33 36 34 37 41 35 36 28 30 31 40 40 40 46 49 49 48 46 49 51 60 61 60 60 60 61 62 66
41 44 42 40 39 37 37 37 38 40 43 45 41 37 34 37 42 42 43 41 38 36 33 34 32 32 25 37 39 37 46 51 48 47 48 47 52 57 57 57 56 57 60 61 63

GFSSW_sfc_temp_069.txt.gz
Temp
62 62 62 62 62 62 62 62 62 62 62 62 62 62 62 62 62 60 59 74 72 76 79 80 80 79 80 76 78 79 64 66 69 69 72 77 75 80 82 75 77 78 76 80 78
62 62 62 61 62 62 62 62 62 62 62 62 62 62 61 62 59 58 71 71 73 77 79 76 73 76 73 74 76 72 64 68 76 78 75 78 78 78 76 75 73 74 79 78 79
61 61 61 61 61 62 61 61 61 61 61 61 61 61 62 62 58 73 76 73 75 78 83 81 80 77 72 74 74 73 65 73 77 81 81 80 78 81 77 72 75 72 73 76 78
61 61 61 61 61 61 61 61 61 60 61 61 61 61 62 59 68 76 78 76 76 82 81 77 76 73 71 69 75 68 73 75 77 81 80 78 82 78 79 80 83 79 77 77 77
60 60 60 60 60 60 60 60 60 60 60 61 61 61 60 61 67 78 76 76 78 79 77 76 73 74 71 72 72 70 73 77 79 81 81 82 80 80 79 81 82 79 77 77 78
60 60 60 60 60 60 60 59 59 59 60 62 62 63 60 62 77 78 77 77 78 79 78 78 76 78 75 71 73 76 76 77 79 81 82 79 80 80 76 80 77 76 76 78 78
59 59 59 59 59 59 59 58 58 59 62 63 63 63 59 67 76 76 77 75 78 80 76 80 81 79 76 73 78 76 70 75 78 81 80 83 74 75 76 78 74 75 76 77 78
59 59 59 59 59 58 58 57 59 62 62 63 65 63 61 74 76 74 76 75 78 80 82 81 83 79 75 78 74 72 72 67 77 80 82 81 71 71 76 76 73 74 74 76 77
59 58 59 58 58 57 56 58 62 63 63 65 63 60 67 76 75 79 78 74 76 77 80 84 81 74 74 70 68 68 67 66 71 81 81 78 72 73 76 75 73 73 74 76 77
58 58 58 58 57 56 56 60 64 64 64 66 65 60 72 70 75 77 79 78 72 74 73 74 73 69 69 67 60 64 65 67 69 77 79 76 74 72 74 74 73 74 74 75 77
58 57 57 57 56 55 58 65 65 65 65 61 64 63 70 75 75 75 78 76 74 72 65 69 63 60 66 69 70 69 66 69 72 79 77 75 75 73 73 74 73 74 74 76 77
57 57 57 56 55 55 63 65 62 62 55 64 63 64 69 71 69 74 78 70 67 62 66 62 60 69 71 68 67 67 65 67 73 76 76 76 75 77 73 73 74 73 73 76 78
57 57 56 55 55 62 64 65 66 65 56 63 67 68 70 71 67 69 74 71 67 62 63 62 66 69 66 65 64 65 65 65 68 74 78 73 70 71 73 75 76 78 78 77 78
56 56 55 53 62 59 65 66 64 63 57 60 65 70 73 69 65 74 73 69 68 63 64 65 71 66 65 64 66 61 70 68 67 66 64 75 62 69 72 71 73 76 77 79 79
56 56 55 53 60 64 66 65 64 64 45 60 63 76 71 66 65 69 72 69 65 65 66 63 65 65 62 65 69 65 71 68 68 65 66 67 64 73 73 70 72 76 78 80 82
56 55 54 57 59 66 65 62 65 55 42 54 62 60 61 62 64 66 64 68 65 62 64 68 71 71 69 71 70 73 68 68 69 67 56 65 65 68 71 72 76 79 79 80 82
54 53 54 60 61 67 63 66 54 47 56 50 53 57 56 55 58 58 55 54 54 54 53 59 65 71 73 67 71 69 65 55 52 53 53 70 63 67 78 80 83 80 80 81 83
52 51 55 62 65 63 66 60 44 47 47 55 55 55 51 55 55 56 53 52 55 52 53 51 53 64 66 68 65 65 66 58 47 52 57 68 59 68 81 85 84 86 86 85 83
52 57 62 66 64 62 64 49 44 46 49 49 53 49 49 52 53 53 51 49 52 54 49 49 52 59 61 64 68 65 60 71 61 60 58 65 68 76 79 82 85 85 85 84 84
51 53 61 65 62 65 56 42 46 51 51 51 45 49 45 48 48 51 49 52 51 54 56 49 47 56 58 63 66 66 72 59 61 49 48 59 62 66 73 77 82 82 84 85 87
53 59 64 62 65 58 46 43 47 53 53 47 46 46 46 45 47 48 49 51 54 53 56 53 47 53 56 58 61 60 62 64 65 62 54 53 60 76 77 80 82 86 86 87 87
49 54 62 61 53 47 44 42 45 49 52 49 49 47 44 45 45 46 46 50 56 55 49 51 49 44 51 59 60 56 58 63 56 55 60 61 62 80 81 83 83 84 87 88 88
43 45 61 60 43 41 43 45 47 47 46 46 44 45 46 44 41 45 47 53 55 53 50 51 44 42 50 53 56 53 53 55 54 57 56 55 60 80 82 83 84 83 87 85 85
49 48 51 50 47 41 39 40 42 50 46 47 44 46 44 41 45 41 44 51 54 54 54 53 44 43 44 44 47 46 49 52 53 54 58 60 64 73 77 79 80 80 81 82 81
47 42 43 40 42 44 42 40 40 40 47 47 42 41 40 37 40 39 45 48 52 52 50 49 41 44 47 48 47 46 47 50 49 54 53 63 62 70 74 70 71 73 74 76 78
48 45 46 42 43 42 41 37 38 41 42 42 40 43 43 39 41 39 44 45 44 49 46 45 42 43 42 48 48 45 49 51 52 54 54 56 57 69 69 70 69 68 69 71 74
49 51 46 40 40 40 39 38 38 42 42 46 45 42 40 45 48 50 50 50 48 45 44 42 43 39 38 45 45 43 50 52 55 56 58 55 62 60 66 65 65 66 67 68 70

GFSSW_sfc_temp_072.txt.gz
Temp
63 62 62 62 62 62 63 63 63 63 63 63 63 63 62 62 63 69 72 82 81 77 78 90 89 89 90 86 87 88 73 74 77 73 80 82 77 83 91 84 85 87 85 87 81
62 62 62 62 62 62 62 62 62 62 62 62 62 62 62 63 70 73 81 74 74 77 88 86 83 86 83 84 85 82 75 76 86 87 84 85 86 86 84 83 81 83 88 86 83
62 62 61 61 62 62 62 62 62 61 62 62 62 62 62 66 72 83 77 75 75 79 93 92 90 86 82 86 84 83 72 82 85 88 84 88 86 90 85 81 84 81 82 84 83
61 61 61 61 61 61 61 61 61 61 61 61 62 62 62 72 73 86 78 77 76 87 91 89 86 82 81 79 87 78 83 83 87 89 85 83 91 87 87 88 92 88 86 85 84
61 60 60 60 60 61 61 60 60 60 61 61 62 62 67 73 78 87 79 78 83 87 87 85 82 83 80 83 83 80 83 86 88 88 87 88 86 86 86 90 92 89 86 85 87
60 60 60 60 60 60 60 59 59 59 61 62 62 62 72 71 85 87 84 83 86 88 87 88 85 88 83 82 82 85 85 86 87 88 88 84 87 87 87 90 88 86 85 87 88
60 59 59 59 59 59 59 59 59 60 62 64 63 71 71 76 86 87 85 86 89 90 86 91 89 86 86 81 87 87 80 84 86 88 86 90 83 83 87 88 85 85 86 87 88
59 59 59 59 59 59 58 58 61 63 63 64 64 73 75 84 88 84 86 83 89 90 92 92 90 88 84 87 82 80 82 77 87 87 88 88 78 85 87 86 83 84 85 85 87
59 59 59 58 58 57 57 58 63 64 64 66 72 73 75 79 83 86 87 81 84 87 90 90 88 84 84 78 77 79 74 76 81 89 88 86 80 83 87 86 83 83 84 85 86
58 58 58 58 57 56 56 59 64 64 70 74 75 71 81 76 82 83 87 85 81 81 81 81 81 77 78 77 69 74 74 81 78 84 86 83 81 83 85 86 84 84 83 84 85
58 57 57 57 56 55 65 76 76 75 79 71 74 74 78 84 86 82 85 83 82 78 72 78 72 69 76 79 81 78 78 78 82 87 83 83 83 82 82 85 84 85 83 85 86
57 57 57 56 55 56 73 75 68 70 67 75 74 76 79 81 77 80 86 77 75 70 76 72 68 78 81 80 76 76 74 76 83 86 83 83 82 87 84 83 86 85 84 85 86
57 57 56 55 55 69 76 72 77 74 68 72 77 77 77 81 74 75 81 78 74 71 73 70 75 80 77 75 71 73 73 76 77 82 84 82 79 82 87 85 87 88 88 88 87
57 57 55 53 64 77 77 78 78 75 66 66 72 75 79 78 72 80 81 77 75 71 73 72 80 73 74 71 74 70 79 77 76 74 70 82 69 79 84 82 84 86 87 88 89
57 56 54 52 74 76 75 79 78 74 53 66 70 82 79 74 74 75 79 76 71 72 74 70 72 72 69 72 77 72 81 77 75 73 75 76 72 80 85 80 82 86 88 90 90
56 55 54 66 76 78 80 78 74 61 50 61 68 66 69 71 71 75 74 77 76 71 74 73 82 78 76 79 78 79 75 75 76 74 64 73 73 76 77 82 85 88 89 90 92
55 53 58 73 72 79 78 74 61 56 63 58 61 65 64 64 66 67 66 67 66 61 63 70 72 77 80 74 78 75 71 63 60 61 61 77 72 76 86 89 90 90 90 91 93
53 52 58 73 79 77 75 67 52 57 57 62 61 62 59 62 63 64 63 64 66 65 65 63 60 72 78 75 73 72 73 65 54 60 66 76 68 75 88 90 94 95 96 95 93
52 74 78 77 77 76 69 59 55 55 58 57 62 57 58 59 61 61 60 61 62 64 58 61 62 71 71 78 78 72 66 79 71 73 67 74 76 84 89 89 90 91 93 94 95
66 73 73 78 77 75 68 50 55 59 59 59 53 56 52 57 55 58 58 62 59 63 66 62 55 68 71 71 74 73 80 66 69 56 56 68 71 72 79 82 88 90 93 95 97
69 69 73 78 77 73 61 54 55 60 60 55 54 53 55 53 55 55 56 61 61 61 64 63 58 62 65 66 68 69 67 71 74 69 61 60 69 85 83 86 86 91 94 97 98
69 66 73 77 67 64 55 53 47 56 60 57 57 54 52 53 53 54 53 57 62 62 57 62 59 54 62 69 70 68 69 72 63 61 68 68 71 88 88 91 91 92 95 98 99
64 65 73 76 58 55 55 54 55 54 54 53 52 54 55 52 47 52 55 60 61 60 57 61 56 49 55 65 68 64 68 70 73 74 64 63 67 88 88 87 90 90 91 92 93
65 61 63 63 61 55 53 51 50 55 53 54 52 54 52 51 55 50 51 56 59 61 55 58 57 52 51 54 58 54 60 63 67 62 65 67 71 80 83 84 84 85 86 88 89
63 55 54 52 53 54 53 48 47 47 54 55 50 49 48 45 49 49 52 53 58 58 58 57 48 54 56 58 57 55 56 58 58 63 62 69 70 77 82 81 80 82 83 82 85
61 59 58 52 52 53 49 46 44 48 47 47 43 46 47 42 46 45 50 50 50 56 55 58 47 51 49 56 57 54 58 59 60 61 63 65 66 81 82 82 80 79 80 80 82
63 62 60 46 50 51 48 46 45 46 51 52 50 49 48 50 55 58 58 58 55 53 52 50 49 46 44 55 53 49 58 60 62 64 64 59 69 79 73 78 77 74 76 77 79

GFSSW_sfc_temp_075.txt.gz
Temp
63 63 62 62 62 63 63 63 63 63 63 63 63 63 63 63 62 71 78 85 87 78 77 94 94 95 96 92 94 93 77 72 74 82 74 89 81 87 79 90 91 93 92 90 94
63 62 62 62 62 62 62 62 62 63 63 63 63 63 63 63 72 80 84 77 77 78 87 92 89 92 89 89 91 86 81 73 76 78 67 89 87 81 90 89 87 89 93 92 93
62 62 62 62 62 62 62 62 62 62 62 62 62 63 63 66 76 86 79 78 76 79 94 97 95 91 87 91 90 88 80 69 77 91 90 87 83 92 88 84 89 86 86 87 91
62 61 61 61 61 61 61 61 61 61 61 62 62 63 63 74 76 88 78 78 76 87 92 94 92 86 85 85 92 84 86 90 79 92 85 81 86 90 86 69 94 92 88 87 89
61 61 60 60 61 61 61 61 60 60 61 62 63 63 67 79 84 93 81 81 85 86 89 91 88 87 84 89 91 86 90 92 92 91 90 90 86 81 89 96 97 93 89 88 90
60 60 60 60 60 60 60 60 60 60 61 62 63 63 75 76 93 94 92 88 90 89 92 94 91 93 90 90 88 91 91 92 93 93 93 84 87 92 92 96 92 91 89 90 91
60 60 59 59 60 60 59 59 60 62 63 64 64 71 80 82 93 94 93 92 94 93 92 96 97 92 91 87 94 92 84 89 91 93 91 92 82 87 92 95 90 90 90 90 91
59 59 59 59 59 59 58 58 62 64 64 64 65 79 81 91 96 92 94 92 96 97 97 99 99 92 91 94 87 85 86 80 91 92 93 91 79 90 94 92 89 89 90 89 90
59 59 59 59 58 58 57 58 64 64 65 65 72 81 80 83 89 93 94 88 92 95 96 98 94 87 89 82 80 84 77 79 85 94 92 89 80 73 94 92 89 89 90 90 90
58 58 58 58 57 57 57 58 65 64 68 80 83 78 86 82 89 90 93 92 88 88 86 85 84 81 83 80 71 77 78 84 81 91 90 87 80 70 84 92 90 90 89 90 90
58 58 57 57 56 56 65 77 76 76 85 78 81 81 83 90 92 88 92 89 88 84 76 81 76 74 80 83 85 86 84 82 88 94 88 85 84 71 89 92 90 90 89 90 91
58 57 57 57 56 55 69 81 77 79 74 83 82 84 86 89 82 84 92 82 80 74 80 79 72 82 86 86 83 83 80 82 89 93 89 85 83 88 89 90 91 91 89 90 91
57 57 56 56 55 66 83 79 86 84 74 79 84 82 83 87 80 81 87 85 78 75 77 75 80 84 83 81 79 80 79 80 81 89 91 87 82 82 74 86 93 94 93 93 91
57 57 56 54 62 87 83 86 88 85 70 72 77 82 85 85 78 86 88 84 80 75 78 78 85 80 80 78 81 74 83 83 82 81 74 87 72 83 77 68 89 92 93 93 93
57 56 55 52 75 83 82 89 89 82 56 72 77 89 84 80 80 81 87 83 75 77 78 75 78 77 75 78 82 77 85 82 81 79 80 81 75 83 89 80 87 91 94 95 96
56 56 54 71 80 85 89 88 83 65 55 67 75 73 75 78 78 81 81 85 84 77 79 78 87 83 81 83 83 84 81 81 81 79 67 76 78 79 81 85 86 92 94 95 97
55 54 58 78 79 88 88 81 65 60 72 65 69 72 72 72 73 74 74 74 71 65 66 74 76 83 84 78 83 80 76 65 63 64 64 80 76 80 91 89 89 93 94 96 98
53 51 66 82 88 86 82 71 55 66 66 70 68 69 66 69 72 71 71 69 74 73 69 67 65 77 84 78 76 76 77 67 56 63 69 79 71 79 93 94 89 96 96 98 97
52 79 84 86 87 84 74 63 64 64 66 64 68 64 67 67 67 66 68 70 72 71 63 66 67 80 83 83 82 77 71 82 74 78 73 77 80 89 93 94 89 82 94 95 98
68 80 81 87 88 81 71 56 63 67 66 67 60 64 60 65 62 65 66 70 66 69 73 69 60 76 79 81 81 78 84 70 72 59 60 73 76 76 83 88 92 93 95 98 100
68 74 81 88 87 76 66 63 63 67 66 62 61 60 62 60 62 62 64 67 68 68 71 71 65 67 74 69 70 73 71 73 77 73 64 65 73 90 87 89 91 94 96 98 100
78 72 82 86 72 73 66 63 53 63 67 64 64 61 59 60 58 60 60 65 68 68 62 70 66 60 66 78 80 78 74 75 66 64 72 73 75 94 94 95 94 94 98 100 102
73 73 83 83 66 64 63 62 63 62 61 61 60 61 63 59 53 60 61 68 67 65 62 66 60 54 58 68 74 69 73 75 77 77 68 67 72 91 91 92 95 94 97 98 99
73 69 72 75 73 66 61 58 58 62 60 61 59 61 59 58 61 55 56 62 63 65 58 62 59 56 55 60 66 64 69 73 73 66 69 72 75 83 87 88 89 89 90 92 92
73 64 65 60 64 63 62 59 55 55 61 61 55 57 54 52 55 55 58 60 62 63 61 61 51 58 61 64 64 63 63 66 66 69 63 71 75 81 84 87 85 86 87 87 88
69 70 69 64 61 63 54 56 52 53 55 52 52 54 57 52 54 52 57 58 55 59 52 60 49 53 53 59 62 59 63 64 65 66 67 70 70 83 80 85 85 86 85 84 87
73 72 70 54 60 62 56 54 50 54 56 56 54 56 56 58 61 64 64 65 63 57 55 53 49 48 44 56 59 53 61 64 66 69 69 64 72 81 80 81 79 80 80 81 83

GFSSW_sfc_temp_078.txt.gz
Temp
63 63 62 62 63 63 63 63 63 63 63 63 63 63 63 63 63 68 74 84 86 80 80 92 91 92 94 90 93 93 75 64 68 67 64 83 83 81 81 79 84 88 87 89 91
63 62 62 62 62 62 62 62 62 63 63 63 63 63 63 63 69 74 86 80 80 79 86 88 86 90 87 88 90 84 76 70 70 71 64 72 84 80 78 80 86 89 91 91 91
62 62 61 61 62 62 62 62 62 62 62 62 63 63 63 66 71 84 79 79 79 81 91 94 94 90 85 89 88 86 77 74 67 67 75 77 85 88 78 78 87 82 85 88 89
62 61 61 61 61 61 61 62 61 61 62 62 62 63 64 71 73 87 80 79 78 88 88 88 92 85 83 82 90 83 87 82 74 71 72 77 82 76 83 80 85 89 90 90 87
61 60 60 60 61 61 61 61 61 61 61 62 63 64 65 73 82 90 80 80 86 85 85 85 87 87 81 87 89 86 87 90 81 78 86 82 72 72 79 88 87 91 90 89 89
60 60 60 60 60 60 60 60 60 61 62 63 63 64 69 72 96 97 95 88 90 87 87 90 90 93 88 88 88 92 91 91 86 80 92 79 75 75 73 89 89 87 86 90 91
59 59 59 59 60 60 60 59 60 62 64 65 64 70 76 82 96 98 96 93 93 91 88 93 97 92 91 86 93 92 86 89 91 92 90 93 82 78 79 91 87 86 86 89 90
59 59 59 59 59 59 59 58 60 64 65 65 65 75 77 95 98 94 97 95 96 96 94 99 99 93 90 93 90 84 85 77 89 91 93 91 77 84 90 83 86 86 86 87 89
59 59 59 58 58 58 57 58 61 65 66 66 70 75 80 86 89 95 97 91 94 94 96 99 95 88 87 80 78 82 73 77 82 94 91 89 79 77 71 79 86 86 87 87 86
58 58 58 58 57 57 56 58 67 66 70 79 81 77 88 85 91 93 95 95 90 90 88 87 86 79 80 77 66 73 76 80 80 89 90 86 76 73 69 71 73 87 88 85 85
58 58 57 57 57 56 62 82 75 71 76 81 83 83 86 92 93 89 93 90 90 85 75 82 74 70 76 80 82 81 81 81 86 93 89 85 74 73 72 72 67 78 87 87 86
58 57 57 57 56 55 66 80 80 82 72 87 86 86 89 92 83 87 93 82 80 74 80 77 70 79 84 84 82 81 78 80 87 92 90 86 74 72 70 72 67 72 86 88 88
57 57 57 56 55 66 82 82 91 89 74 82 86 86 86 89 83 83 88 85 79 75 77 73 79 83 81 81 79 79 77 79 80 88 92 87 70 66 70 77 78 81 91 91 90
57 57 56 54 61 86 84 89 92 89 66 74 78 83 86 87 79 89 91 85 81 75 78 77 83 82 79 77 81 73 84 82 81 79 73 88 70 67 68 66 79 81 77 91 92
57 57 55 53 71 82 85 92 91 85 53 76 80 91 87 81 82 82 90 84 75 77 78 74 78 78 77 79 82 77 86 82 81 77 77 79 74 81 76 74 74 70 76 91 93
57 56 55 73 74 87 91 91 85 63 54 69 79 77 77 80 80 83 82 86 85 77 79 78 87 84 82 84 84 86 81 80 80 77 66 74 76 76 72 73 72 81 83 88 94
55 54 55 76 80 91 90 82 63 57 76 68 71 75 75 75 75 76 75 75 71 65 66 74 76 83 86 78 83 81 75 62 61 62 62 77 73 77 87 83 80 79 87 93 93
54 52 67 81 90 90 83 71 55 70 68 74 72 72 68 73 73 74 72 69 77 74 68 65 63 77 83 79 75 76 74 63 53 59 65 77 69 77 91 95 92 91 95 95 95
53 78 79 86 90 86 74 62 63 65 70 68 70 66 68 71 69 70 69 70 75 73 63 62 65 82 82 84 81 75 70 80 70 73 67 73 78 86 92 92 91 83 82 86 78
64 77 84 90 90 83 70 60 65 70 69 70 61 67 64 68 65 68 67 73 71 73 74 67 57 74 79 83 83 77 82 68 71 57 56 68 73 75 82 87 91 88 75 73 72
66 74 84 91 89 76 65 64 67 71 70 65 64 63 65 64 65 64 65 70 72 71 72 69 64 64 73 70 70 73 71 73 74 71 60 60 70 89 84 88 90 88 77 70 72
77 70 86 89 70 75 64 66 55 68 71 68 67 64 62 64 61 62 62 65 70 69 61 67 62 56 64 76 81 77 71 73 63 60 69 69 72 90 91 94 95 94 88 87 80
71 76 88 86 65 66 67 65 67 66 65 65 63 65 66 60 55 61 63 69 68 65 59 62 58 52 56 67 75 71 73 74 73 73 62 64 69 91 92 93 95 94 96 94 92
70 68 76 79 77 69 64 62 61 66 65 65 62 65 62 60 64 58 60 66 67 65 61 63 57 52 49 58 63 61 69 72 71 65 66 68 72 81 84 75 87 87 88 90 90
76 68 69 62 66 66 66 63 60 58 64 65 59 60 57 55 58 57 61 63 66 65 62 61 50 55 58 60 60 62 64 67 66 68 63 67 72 62 65 71 70 87 87 87 87
68 68 72 67 66 66 56 59 57 58 59 57 56 58 59 55 57 53 58 59 58 64 61 60 49 52 49 58 58 57 62 66 67 67 67 69 66 67 68 72 78 75 83 83 84
77 76 72 58 65 64 57 57 54 59 60 61 59 58 59 61 64 64 66 64 63 59 58 56 43 46 42 54 55 49 59 64 65 69 68 61 70 76 72 73 64 71 75 77 79

GFSSW_sfc_temp_081.txt.gz
Temp
62 62 62 62 62 62 62 63 63 63 63 63 63 63 63 63 62 61 62 75 75 80 80 84 84 84 84 80 84 86 66 62 61 65 62 70 66 78 78 76 82 85 79 81 86
62 62 62 62 62 62 62 62 62 62 62 62 62 62 63 63 60 62 76 80 80 80 82 79 77 81 75 78 81 77 68 69 70 69 62 69 68 73 76 70 77 80 83 84 85
62 62 61 61 62 62 62 62 62 62 62 62 62 62 63 63 59 73 80 80 79 79 83 84 84 81 74 78 78 79 69 71 71 72 72 70 71 73 77 68 78 76 78 82 82
61 61 61 61 61 61 61 61 61 61 61 61 62 62 63 61 62 80 79 79 79 82 82 80 80 75 72 72 81 73 81 78 72 74 71 68 72 71 72 74 84 83 83 83 82
61 60 60 60 60 61 61 60 60 60 61 62 62 63 60 61 69 85 80 79 79 80 78 77 74 74 72 76 80 78 81 86 75 74 73 71 71 69 67 75 82 85 82 82 83
60 60 60 60 60 60 60 60 60 60 62 64 63 63 59 60 89 87 84 80 83 79 77 80 78 82 79 78 77 83 84 87 75 74 78 72 71 73 71 77 83 82 81 84 84
59 59 59 59 60 60 59 59 59 61 62 65 64 66 66 69 90 88 87 81 83 81 77 83 85 79 81 76 84 83 76 81 81 82 77 72 69 69 74 76 81 81 82 84 84
59 59 59 59 59 59 58 58 59 61 64 65 65 65 62 88 84 90 88 87 87 85 82 87 89 83 78 82 82 73 72 63 78 83 85 75 63 72 73 73 75 81 84 84 84
59 59 58 58 58 58 57 57 60 63 66 66 61 60 66 82 82 87 88 87 86 83 83 92 86 78 78 68 63 66 57 65 73 84 84 79 62 66 71 72 76 79 82 83 84
58 58 58 58 57 57 56 59 65 63 66 73 73 62 73 77 82 88 88 90 84 82 81 79 75 67 66 60 51 58 60 64 68 79 82 77 67 68 70 72 68 75 81 82 81
58 58 57 57 57 56 55 65 63 60 66 67 68 74 82 83 85 85 87 84 82 76 65 72 61 57 64 68 70 71 69 66 73 82 78 76 66 68 71 69 68 69 72 80 82
58 58 57 57 56 55 53 60 71 71 62 78 81 81 83 81 78 83 86 75 73 65 70 65 60 70 76 75 72 70 67 67 73 81 76 68 66 68 70 69 72 71 73 71 82
58 57 57 56 55 57 67 73 82 75 59 73 80 80 77 76 77 78 80 77 72 67 68 62 69 78 75 71 71 69 64 67 67 77 76 67 62 62 69 71 71 72 72 71 75
57 57 56 55 57 71 73 78 82 79 51 67 71 76 79 78 72 87 85 76 73 67 70 67 76 76 72 70 72 58 75 76 75 67 56 71 51 61 66 65 66 70 69 68 69
57 57 55 54 55 65 77 82 78 72 41 72 73 83 76 68 74 75 85 76 67 70 66 64 70 70 70 72 76 68 77 73 71 65 58 67 55 58 66 64 66 66 66 68 71
57 56 55 64 59 69 80 81 73 50 47 67 75 71 70 73 74 80 78 76 78 70 71 69 79 74 72 79 78 79 72 69 65 58 48 60 56 55 60 67 71 72 71 69 79
55 54 52 67 67 80 81 70 49 45 70 65 66 70 68 67 71 73 69 62 58 49 52 65 69 74 79 68 74 69 56 46 44 46 47 59 58 63 69 74 75 75 78 83 81
54 52 60 72 76 79 73 57 44 62 61 71 70 69 64 67 64 69 63 60 67 63 55 50 51 66 76 68 62 63 58 48 40 42 51 61 52 64 77 81 81 80 82 81 82
53 67 68 76 78 77 61 49 50 59 65 64 66 61 60 67 64 63 58 60 63 62 49 49 53 69 74 75 71 63 57 66 53 57 53 58 63 73 79 76 80 80 79 80 83
54 64 71 83 82 71 57 54 58 66 66 66 56 63 56 62 60 58 59 64 64 67 63 55 45 61 69 72 73 62 68 53 54 41 42 53 57 58 68 76 78 79 77 74 76
59 62 75 84 78 63 55 58 64 69 68 61 58 58 57 58 58 56 58 60 65 64 63 57 48 52 61 57 58 63 61 58 58 55 49 44 53 69 73 75 76 78 78 76 71
64 59 78 80 60 62 56 60 57 66 68 65 64 61 58 59 55 56 54 58 66 63 52 54 46 42 51 64 68 65 63 56 50 48 52 50 57 70 69 71 76 78 80 78 75
58 66 79 79 57 57 61 63 64 62 61 61 60 61 61 55 48 57 60 65 66 60 49 53 43 36 44 51 59 55 60 61 61 55 49 46 53 70 71 70 69 75 73 75 73
59 59 67 71 69 61 58 59 58 66 62 64 61 61 57 53 53 51 57 65 66 61 63 57 43 39 35 44 52 50 55 58 58 52 52 55 60 62 64 66 65 67 74 73 71
61 60 64 54 59 59 58 59 57 55 62 62 55 58 53 46 50 51 57 57 63 62 57 50 38 43 48 53 54 53 54 55 53 58 53 57 60 60 63 61 62 65 69 69 71
60 58 63 58 60 60 55 53 55 57 57 54 53 58 54 46 50 47 51 49 47 55 51 50 39 40 41 51 53 50 54 56 56 59 60 60 61 66 63 64 60 61 64 67 67
67 69 62 57 58 55 51 53 54 57 58 60 58 54 54 55 58 57 56 54 53 48 47 44 39 36 32 46 47 41 50 53 56 60 60 54 57 67 61 60 58 60 61 66 66

GFSSW_sfc_temp_084.txt.gz
Temp
62 62 62 62 62 62 62 62 63 63 63 63 63 62 62 62 62 59 57 71 70 78 81 80 78 78 78 74 79 81 63 59 66 65 62 66 64 70 79 76 81 79 77 79 82
62 62 62 61 62 62 62 62 62 62 62 62 62 62 62 62 57 56 71 76 78 78 77 75 73 76 68 72 73 70 60 66 71 70 66 67 65 69 70 70 70 74 80 82 82
62 61 61 61 61 61 62 62 62 61 61 61 62 62 62 61 55 68 78 78 79 80 81 79 77 75 67 69 72 72 65 70 72 72 73 70 69 73 71 67 72 71 76 80 80
61 61 61 61 61 61 61 61 61 61 61 61 62 62 62 56 59 78 80 78 79 79 79 75 73 65 66 65 74 67 77 74 74 76 74 71 71 71 73 71 76 79 79 80 79
60 60 60 60 60 60 61 60 60 60 61 63 62 62 57 55 63 83 80 79 77 76 75 72 69 67 64 69 74 71 75 80 76 77 76 73 70 70 70 75 79 80 80 79 79
60 60 60 60 60 60 60 60 59 60 61 63 63 63 55 56 82 82 79 76 76 74 73 74 73 75 70 72 71 77 77 79 76 75 74 72 71 68 74 73 75 78 78 79 80
59 59 59 59 59 59 59 58 59 60 61 64 64 64 60 64 82 80 78 73 77 74 71 77 79 72 72 69 79 78 71 75 72 75 71 76 66 65 73 73 74 77 78 81 81
59 59 59 59 59 58 58 57 58 60 61 65 65 60 55 80 78 81 76 76 80 77 76 77 81 75 71 75 76 68 64 59 67 75 74 75 61 69 71 74 73 75 79 80 80
58 58 58 58 58 57 57 57 60 63 63 66 57 55 59 80 77 83 83 81 79 75 75 88 78 70 70 65 59 59 53 58 69 79 70 69 60 66 72 76 73 73 77 80 80
58 58 58 58 57 57 56 57 60 63 64 69 69 57 67 73 77 83 84 85 78 76 75 72 68 61 60 57 47 53 52 57 62 72 69 67 64 67 69 72 73 75 76 79 80
58 58 57 57 57 56 53 55 60 59 59 60 62 67 75 75 81 80 83 79 76 70 60 66 58 53 60 62 64 63 60 60 68 75 71 68 63 66 67 69 69 70 74 75 80
58 57 57 57 56 55 51 56 64 68 57 70 72 73 79 75 71 77 79 71 68 61 64 60 53 65 70 70 67 64 60 60 67 73 67 63 60 66 67 68 69 68 71 76 80
57 57 57 56 55 55 58 65 73 64 53 65 71 72 73 73 71 73 76 71 67 62 62 56 64 73 70 66 65 61 57 62 62 70 67 64 60 61 66 69 70 71 75 77 79
57 57 56 54 58 56 62 69 71 69 46 58 63 73 74 73 67 83 80 72 67 64 65 60 71 70 66 65 65 53 68 70 68 61 53 64 47 57 63 63 66 71 73 73 73
57 57 55 53 48 57 71 69 68 65 39 67 65 78 70 65 70 71 80 72 62 65 63 60 65 65 64 67 70 63 72 67 65 57 54 57 52 52 63 60 62 68 72 73 77
56 56 55 53 48 58 64 66 65 46 43 62 70 66 63 64 68 75 71 72 72 65 64 65 72 69 67 73 72 75 66 61 56 52 46 53 53 50 58 64 68 71 71 74 76
55 54 52 59 58 64 66 60 45 40 62 59 58 62 60 59 64 68 64 59 54 47 48 60 63 67 72 63 67 65 53 43 43 43 43 48 51 55 65 71 73 71 71 76 80
53 52 52 61 59 62 60 52 40 56 53 63 62 64 58 62 58 63 59 53 60 54 46 45 48 60 68 59 56 56 54 44 38 39 45 53 48 59 70 74 77 77 76 77 75
52 53 56 64 64 61 54 42 40 51 59 59 59 57 53 62 60 60 53 53 57 55 46 44 48 64 67 67 62 58 50 57 48 43 44 49 58 67 69 69 73 76 74 76 77
47 51 57 70 67 60 50 45 50 60 62 61 50 55 48 53 54 52 51 56 58 60 53 47 42 53 62 65 64 56 60 49 46 39 37 46 49 52 57 61 65 72 75 75 77
52 54 65 70 67 55 44 46 57 64 63 57 53 51 49 49 50 49 48 56 61 58 54 44 43 47 56 50 49 53 49 48 48 46 41 40 47 59 59 62 61 68 76 76 76
48 52 69 68 53 47 46 52 58 59 61 58 57 55 50 51 49 48 48 54 62 56 48 47 39 36 44 55 59 57 49 45 39 41 44 44 47 64 63 63 64 67 75 77 78
46 49 68 68 44 44 49 56 58 57 56 56 54 56 54 49 46 51 54 60 61 54 46 49 37 31 38 44 50 48 54 47 45 42 42 44 47 63 62 61 64 64 65 66 68
48 49 55 55 50 48 47 49 52 62 58 58 55 54 50 46 48 48 51 59 60 58 63 53 36 34 29 37 44 44 50 53 43 36 40 44 51 54 57 57 59 62 65 65 66
49 49 50 44 48 49 49 51 52 50 56 55 51 53 47 40 42 44 49 50 57 59 52 45 35 36 38 46 48 48 49 50 46 46 38 48 52 50 54 55 57 61 63 63 63
51 49 51 46 49 48 44 44 49 51 51 48 48 53 48 41 41 39 43 42 40 49 43 42 35 35 37 47 46 45 49 50 51 52 53 52 55 56 56 60 58 60 60 61 61
53 53 51 46 45 42 41 45 50 50 53 56 53 48 48 50 52 48 47 47 46 40 41 40 35 32 28 41 42 35 43 48 49 49 50 46 49 53 54 53 53 57 60 59 61

GFSSW_sfc_temp_087.txt.gz
Temp
62 62 61 61 62 62 62 62 62 62 62 62 62 62 62 61 61 58 55 69 69 77 80 76 74 74 74 72 77 79 62 55 63 63 61 67 63 72 76 75 78 77 75 75 77
62 61 61 61 61 61 62 62 62 62 62 61 61 62 62 61 55 53 68 75 76 78 76 71 68 72 65 69 71 67 56 61 69 70 64 66 65 65 70 74 72 73 77 78 76
61 61 61 61 61 61 61 61 61 61 61 61 61 61 61 59 53 67 76 76 78 77 77 76 75 72 62 67 68 69 62 69 71 72 70 67 66 70 66 67 72 69 73 74 74
61 61 61 61 61 61 61 61 61 60 61 61 63 61 61 54 56 74 77 77 79 76 76 73 70 65 62 63 71 63 73 73 71 75 73 69 74 71 71 70 76 77 76 75 73
60 60 60 60 60 60 60 60 60 60 60 61 63 62 55 53 63 78 78 78 75 75 73 70 67 65 62 65 69 66 71 75 74 74 74 74 70 68 70 74 77 78 77 76 74
60 60 59 59 60 60 60 59 59 59 60 62 63 62 52 54 78 79 76 74 74 71 70 71 70 70 66 67 66 73 73 74 73 73 74 72 70 71 73 74 73 77 76 77 77
59 59 59 59 59 59 59 58 58 59 60 62 64 62 56 63 79 77 75 70 73 72 68 71 74 70 68 66 73 74 67 70 70 71 70 72 65 67 72 75 73 75 76 77 78
59 59 59 59 59 58 58 57 58 59 61 62 65 58 54 77 75 77 72 71 74 70 71 74 76 70 66 71 72 63 62 56 63 69 73 71 61 71 73 71 69 74 76 77 77
58 58 58 58 58 57 56 57 59 62 63 65 56 53 58 77 74 76 75 76 72 70 71 85 75 67 66 60 55 57 51 55 59 72 71 67 60 69 72 72 69 72 74 76 76
58 58 58 58 57 56 56 57 60 62 63 67 67 54 65 69 73 80 77 80 73 72 71 68 64 58 56 54 46 50 51 52 58 67 70 64 62 67 68 71 70 71 74 76 76
58 57 57 57 56 55 53 53 57 56 57 59 59 64 69 75 78 77 81 77 73 67 57 63 56 51 58 60 62 60 56 55 63 70 67 63 63 65 66 68 68 70 72 75 77
58 57 57 56 56 55 51 57 59 62 55 66 68 68 72 69 68 74 77 70 66 59 61 57 52 63 66 66 63 59 56 56 63 69 64 60 59 65 65 66 69 69 72 74 77
57 57 56 56 54 54 56 61 68 60 51 61 66 68 69 70 68 69 73 68 64 59 59 54 61 70 66 61 61 55 52 56 59 64 64 62 59 60 64 67 68 69 74 76 75
57 57 56 54 56 54 61 64 64 63 45 56 59 70 70 70 66 79 76 70 64 61 61 58 67 67 62 61 62 49 64 65 64 57 50 60 45 58 63 62 65 67 68 72 76
57 56 55 53 49 56 66 61 61 63 37 63 63 75 66 64 68 68 76 70 61 63 61 58 61 61 61 63 66 60 67 64 62 54 50 54 49 50 60 58 62 67 69 72 75
56 55 54 51 47 56 60 60 63 46 41 58 66 62 62 62 65 70 69 71 69 63 60 62 68 65 64 68 68 70 62 57 51 49 43 50 51 49 54 61 66 69 71 73 75
55 53 53 56 58 59 60 59 45 38 58 56 55 58 58 54 61 65 59 55 50 46 46 57 59 63 66 58 63 60 50 42 41 41 42 46 49 51 61 64 68 69 71 74 77
53 51 52 57 54 60 58 52 38 51 49 58 58 58 56 57 55 56 52 49 55 50 44 43 46 57 64 56 51 52 50 43 37 37 42 47 47 52 63 65 67 71 75 76 76
52 51 52 59 59 58 54 40 38 46 55 56 55 51 49 56 57 54 47 47 52 49 43 41 45 60 63 63 58 53 46 49 43 39 43 46 52 59 63 62 64 65 68 75 75
48 51 56 64 63 58 50 42 47 56 58 56 47 51 45 50 51 47 47 53 54 55 48 43 40 50 58 61 60 53 54 45 43 37 36 44 44 45 54 55 60 61 64 69 74
51 56 64 63 62 54 42 42 52 59 60 54 49 48 46 46 47 44 45 53 58 55 52 40 42 47 52 48 47 47 44 41 42 42 38 38 41 56 58 57 58 60 63 67 73
49 52 68 63 52 41 44 49 56 55 58 55 54 51 48 49 46 44 46 50 59 52 47 45 37 35 40 51 57 53 44 39 36 36 39 40 41 59 59 61 60 61 61 64 65
47 47 62 63 45 41 47 54 56 54 52 53 51 51 50 45 43 48 51 57 58 52 44 45 34 31 37 43 47 44 48 41 39 35 34 36 41 59 58 58 61 61 61 62 63
49 47 52 51 44 45 44 46 48 58 55 54 52 51 47 43 44 43 47 56 58 56 59 50 32 32 30 33 40 40 46 47 38 34 36 40 43 49 54 53 57 60 63 63 63
48 45 46 42 45 43 44 47 49 47 53 52 48 48 44 37 39 40 46 48 53 54 49 43 34 34 35 41 44 43 45 46 40 41 36 43 45 48 54 54 55 58 62 62 62
48 46 46 41 43 44 41 40 45 48 48 45 45 49 46 39 40 37 40 38 39 47 41 40 33 34 34 43 43 41 46 47 47 47 47 48 43 52 55 56 54 55 59 58 59
48 49 49 44 41 39 38 42 46 47 50 52 50 45 44 46 49 46 46 44 41 38 38 37 33 31 27 37 38 34 42 45 45 45 45 40 47 52 52 51 51 52 55 58 58

GFSSW_sfc_temp_090.txt.gz
Temp
62 62 61 61 62 62 62 62 62 62 62 62 62 61 62 61 61 56 53 68 68 77 78 74 73 72 71 69 75 77 60 54 61 62 61 68 66 69 72 73 76 77 73 73 73
62 61 61 61 61 62 62 61 61 62 61 61 61 61 61 61 53 52 68 74 75 77 72 69 66 69 62 66 69 64 55 60 67 67 64 66 65 65 69 72 69 69 72 73 73
61 61 61 61 61 61 61 61 61 61 61 61 62 62 61 60 50 67 75 76 77 78 75 73 71 69 61 64 66 66 60 68 69 71 69 66 65 69 66 67 69 66 68 70 70
61 61 61 61 61 61 61 61 60 60 60 61 63 62 61 52 55 70 76 77 78 73 74 71 67 62 59 60 68 61 70 71 70 73 70 67 69 65 67 70 75 73 72 71 69
60 60 60 60 60 60 60 60 60 59 60 61 62 62 54 51 62 75 78 77 73 71 70 68 65 62 59 62 67 64 69 72 73 73 73 74 69 69 69 75 75 76 73 71 70
60 59 60 60 60 60 60 59 59 59 60 61 63 61 50 52 74 76 74 71 71 70 68 69 68 68 64 64 64 70 70 71 71 71 75 70 69 71 72 75 74 74 71 72 72
59 59 59 59 59 59 59 59 59 59 59 61 63 61 54 62 75 74 72 67 69 70 66 68 72 67 65 62 70 69 64 67 67 70 69 73 63 67 72 73 72 71 72 73 73
59 59 59 59 59 59 58 57 58 59 60 61 64 56 53 73 72 73 70 68 71 66 68 71 73 67 64 68 68 61 60 54 61 68 72 68 62 70 72 71 70 71 73 73 73
59 59 59 58 58 57 56 57 59 62 62 64 55 51 57 73 69 72 72 71 69 66 68 82 70 63 64 58 55 56 51 54 58 68 69 66 63 68 70 70 69 71 71 73 74
58 58 58 57 57 56 56 57 63 62 63 65 65 53 64 66 70 72 72 75 69 68 67 65 60 55 54 52 46 50 51 50 56 64 66 63 60 64 68 69 68 71 71 73 74
58 57 57 57 56 55 52 53 55 54 55 57 58 62 66 71 72 73 74 72 69 64 54 59 53 49 55 58 59 59 56 53 59 66 62 62 60 62 66 67 67 69 70 72 73
57 57 57 56 55 55 50 58 57 58 52 62 64 64 68 65 64 70 76 67 64 56 58 55 50 60 64 62 61 57 55 53 60 65 62 59 57 62 64 64 67 68 70 72 74
57 57 56 55 54 52 53 59 61 56 49 59 63 63 65 67 64 67 72 67 62 57 57 53 60 67 64 60 60 53 51 53 56 61 61 59 55 57 62 65 67 69 71 73 74
57 57 56 54 55 52 59 59 59 59 44 54 56 67 68 68 62 76 74 69 62 59 59 57 64 66 59 58 60 45 62 63 60 55 49 58 46 52 58 60 64 66 67 70 72
57 56 55 54 46 57 63 57 57 61 35 60 60 71 63 61 66 68 73 67 61 61 59 57 60 59 57 61 63 58 64 61 59 53 48 52 49 51 57 57 62 65 66 69 72
56 55 55 50 46 55 57 56 61 46 38 55 63 59 59 61 62 67 65 67 66 61 59 58 64 61 60 65 66 66 59 54 49 47 43 47 49 48 52 56 62 67 68 70 73
55 53 52 55 57 56 57 58 44 37 55 53 51 56 54 54 58 59 55 52 47 46 45 55 56 60 62 56 60 57 49 39 40 40 41 43 47 46 57 60 61 61 67 71 72
53 51 51 55 52 57 57 51 37 49 47 55 55 54 51 53 52 52 50 46 52 48 42 42 44 54 62 53 49 49 47 41 36 35 42 44 44 51 60 62 64 65 65 69 73
52 51 52 57 57 55 54 39 37 44 52 54 52 48 48 53 53 50 45 44 49 46 42 42 44 57 60 59 55 49 45 46 41 36 41 44 49 57 62 60 61 61 62 62 70
50 52 57 61 59 56 48 41 44 53 54 53 48 50 43 47 48 45 45 50 51 52 45 41 40 48 55 58 57 51 50 44 42 36 35 41 42 45 54 56 59 59 59 61 65
52 55 62 58 59 53 41 41 50 56 57 51 46 46 45 46 44 41 43 51 55 53 50 39 41 46 49 44 41 45 41 40 41 39 37 35 40 55 56 59 58 59 60 61 62
50 50 63 59 51 39 42 46 53 53 55 53 51 48 47 47 44 43 44 47 55 50 46 43 37 34 37 48 50 47 41 37 39 37 36 38 40 55 57 59 61 61 61 62 64
49 46 59 60 43 39 44 50 52 52 49 50 48 49 46 41 41 45 48 55 55 50 43 43 34 31 35 41 45 42 45 37 36 35 34 36 40 56 57 57 59 58 61 61 62
49 47 51 48 40 43 41 43 46 55 52 51 48 48 44 41 41 40 45 53 55 53 57 48 31 33 31 33 38 38 44 44 37 35 35 39 46 51 52 53 55 58 60 62 61
46 43 43 40 43 40 42 43 46 45 50 49 46 46 42 37 38 39 44 46 53 53 46 42 33 32 33 40 42 42 43 44 39 40 37 42 47 48 51 51 52 56 59 58 59
47 46 43 38 41 41 40 37 43 45 45 43 43 46 44 38 38 37 39 37 37 45 39 38 33 33 33 41 41 40 43 45 44 44 45 43 42 53 54 54 51 51 54 56 57
46 46 47 42 39 37 37 40 44 44 47 50 48 43 43 44 46 42 43 41 39 39 36 35 32 30 26 35 37 33 39 42 43 43 43 39 44 53 52 50 49 50 52 53 55

GFSSW_sfc_temp_093.txt.gz
Temp
62 62 62 62 62 62 62 62 62 62 62 62 62 61 61 61 61 60 64 78 75 77 79 80 81 80 80 76 78 80 69 63 66 66 64 70 68 70 72 73 78 80 78 80 80
62 62 61 62 62 62 62 62 62 62 62 62 62 61 61 61 58 61 74 74 76 77 80 78 75 78 76 74 77 74 70 66 73 72 66 68 68 67 70 72 69 73 77 78 79
61 61 61 61 61 61 61 61 61 61 61 61 62 62 61 62 61 76 76 76 77 79 83 82 80 79 74 75 74 73 69 72 73 74 71 69 67 68 67 69 72 68 71 76 78
61 61 60 61 61 61 61 61 61 60 60 61 61 62 61 60 66 78 76 77 79 83 82 79 77 74 71 70 75 70 75 76 74 75 72 67 71 70 70 71 78 76 77 78 77
60 60 60 60 60 60 60 60 60 60 60 61 62 62 61 65 72 79 78 78 80 82 79 77 75 73 71 73 74 71 75 79 78 76 76 73 68 72 71 76 77 77 77 77 79
59 59 59 59 60 60 60 60 59 59 60 61 62 62 62 67 81 81 80 78 80 81 79 80 77 78 74 73 74 77 77 78 78 76 78 73 71 73 75 76 75 75 77 78 79
59 59 59 59 60 60 59 58 58 58 60 60 62 63 63 73 80 81 80 79 79 80 77 79 82 78 77 73 78 77 73 75 75 76 75 77 66 66 77 75 72 75 77 78 79
59 59 59 59 59 58 58 57 57 59 60 60 63 64 66 78 81 78 80 77 80 82 81 82 83 79 76 78 76 74 74 70 71 75 76 74 66 72 75 75 73 75 76 77 79
59 59 59 58 58 57 57 57 61 62 62 63 63 62 68 76 75 80 81 78 77 79 80 84 82 76 76 72 70 71 68 68 66 76 73 72 68 73 77 76 73 72 76 78 78
58 58 58 57 57 56 56 57 62 65 65 67 67 62 72 74 78 78 80 81 76 76 75 75 75 71 72 70 62 65 67 68 67 71 71 72 68 71 73 75 72 74 76 78 78
58 58 58 57 56 55 58 64 67 66 64 67 68 68 73 80 81 76 81 78 78 75 67 71 67 64 69 71 71 71 70 68 71 75 71 73 73 72 72 74 73 74 75 78 79
58 58 57 56 55 55 59 70 68 69 64 69 68 70 74 77 75 75 82 74 72 66 69 67 64 70 73 71 71 70 68 67 71 73 73 70 70 71 73 74 74 74 75 77 80
58 57 57 56 55 58 65 70 70 69 64 67 71 71 75 77 75 75 80 76 71 66 67 65 69 72 71 69 68 68 68 67 69 70 71 69 66 67 70 73 75 77 78 80 80
58 57 56 54 58 62 69 70 69 70 61 63 69 75 75 77 73 82 84 79 71 67 68 69 73 71 69 68 71 65 72 71 69 68 66 70 64 65 68 68 71 74 76 79 80
57 57 55 54 60 69 71 69 71 72 47 67 71 82 77 74 76 74 80 78 70 68 68 66 68 68 67 69 72 68 72 71 70 69 67 65 68 64 68 66 69 73 75 78 80
56 55 54 55 57 68 68 68 73 58 45 61 69 69 71 73 72 74 73 77 75 70 70 68 73 71 71 73 75 74 69 67 67 68 61 64 67 60 62 62 67 72 76 77 79
54 52 53 61 71 67 68 72 58 48 62 57 60 65 65 62 65 65 63 61 62 60 61 65 65 69 70 69 71 71 68 58 57 58 59 63 64 57 64 66 65 67 71 75 80
52 52 56 62 67 64 70 66 47 53 55 62 61 63 60 62 61 61 59 59 63 61 60 59 55 64 68 65 66 68 69 61 50 53 60 62 57 55 66 69 70 70 70 72 74
52 64 67 71 67 65 69 52 49 53 58 57 60 58 58 61 62 60 56 57 59 59 59 57 55 65 65 66 65 63 63 65 60 57 62 62 60 63 68 68 68 64 64 65 72
64 68 70 69 68 70 63 48 55 60 59 59 53 56 54 55 57 57 55 59 58 60 61 58 54 60 62 66 67 65 64 61 63 51 52 54 54 55 58 61 64 60 60 63 67
67 69 74 69 72 66 55 55 58 63 62 58 54 53 53 54 55 53 53 58 60 61 62 60 60 57 61 55 53 61 61 58 62 58 57 52 53 60 56 58 59 59 60 61 64
67 64 72 73 63 56 56 56 54 60 62 60 59 55 53 53 52 53 51 54 60 61 56 56 58 50 52 58 59 59 54 55 58 52 55 61 51 60 58 59 61 61 61 62 63
64 63 73 74 57 55 58 57 59 59 56 57 55 57 55 52 50 54 55 60 61 59 55 58 51 48 49 57 58 54 56 56 54 58 53 57 51 58 58 57 58 60 62 62 63
63 60 65 61 55 57 55 54 54 60 56 57 55 57 55 52 54 51 53 58 60 60 57 59 51 49 52 49 53 51 53 55 55 55 53 56 50 52 52 52 54 57 62 64 65
59 55 55 53 55 54 54 53 52 52 57 58 55 53 53 50 52 51 54 57 60 57 57 58 48 50 50 51 51 51 51 53 53 53 53 54 49 49 51 52 53 56 59 60 63
61 59 55 53 51 54 50 51 51 53 54 53 52 54 54 51 53 50 54 54 54 57 53 53 47 50 46 50 51 49 51 53 53 53 54 55 48 54 57 58 59 59 59 57 59
57 58 62 48 51 54 53 52 52 54 56 58 56 55 54 55 58 57 57 56 57 55 51 51 49 47 43 46 48 45 50 51 50 51 55 52 52 54 53 53 57 58 59 59 59

GFSSW_sfc_temp_096.txt.gz
Temp
62 62 62 62 62 62 62 62 62 62 62 62 62 62 61 61 61 71 76 83 84 77 80 90 90 89 89 87 86 87 77 74 73 72 70 78 72 77 80 80 80 85 86 88 89
62 62 62 62 62 62 62 62 62 62 62 62 62 63 62 61 72 76 84 76 77 78 88 87 85 87 86 85 87 84 81 74 79 79 73 77 76 74 77 76 75 82 90 89 89
62 62 61 61 62 62 62 62 62 62 61 61 62 63 62 66 73 86 79 76 78 80 93 94 92 89 84 87 85 83 79 80 79 80 81 74 69 73 75 72 75 79 83 86 87
61 61 61 61 61 61 61 61 61 61 61 61 62 63 62 72 73 86 77 77 78 91 92 89 88 83 83 80 86 79 82 84 81 79 74 73 72 71 73 75 83 85 86 87 86
60 60 60 60 60 61 61 61 60 60 61 61 62 63 67 73 80 84 78 80 86 90 88 86 84 85 81 84 83 80 83 85 85 83 82 79 76 71 75 80 83 86 87 86 88
60 60 60 60 60 60 60 59 59 59 60 61 62 63 72 74 88 88 88 88 89 89 89 89 86 88 85 83 83 85 84 85 86 84 84 75 72 79 79 78 82 85 86 88 89
60 60 60 60 60 60 59 59 59 59 59 61 62 71 73 78 89 91 90 90 92 92 87 91 91 86 88 82 87 85 81 83 84 85 82 82 71 71 79 78 80 83 86 88 89
59 59 59 59 59 59 58 58 58 59 60 61 64 74 79 86 92 88 90 87 91 93 93 92 92 88 87 87 83 81 83 78 82 84 84 79 66 75 71 75 79 82 85 86 87
59 59 59 59 58 58 57 57 62 62 62 63 71 75 76 78 83 90 92 85 88 89 89 90 89 85 85 80 78 80 77 77 77 85 82 78 65 73 80 79 80 81 85 86 86
59 59 58 58 57 57 56 57 63 66 70 75 76 72 79 80 87 88 90 89 84 84 83 82 84 79 82 80 71 75 77 78 76 79 80 76 69 74 81 83 80 82 83 85 86
59 58 58 58 57 55 61 74 73 72 74 77 79 77 83 88 90 85 89 86 85 82 76 80 75 73 78 82 83 82 80 78 79 83 80 79 81 79 80 82 80 80 82 84 87
58 57 58 57 56 55 70 79 76 77 74 80 78 79 84 89 79 83 91 80 78 73 80 75 72 81 83 81 79 80 78 78 79 82 81 77 79 80 81 81 82 81 80 80 85
58 57 57 56 55 63 80 79 83 81 74 76 81 81 84 86 81 79 86 83 77 75 75 73 78 81 79 77 76 79 78 77 77 79 82 76 75 76 77 82 79 79 82 84 84
57 57 56 54 61 82 80 82 85 83 70 70 76 82 84 87 78 89 90 84 79 74 76 76 81 77 77 76 79 74 80 78 77 77 73 81 63 73 77 77 74 79 78 82 83
57 56 55 52 78 81 80 86 87 81 54 72 77 90 87 82 81 80 90 84 76 76 77 73 75 75 74 77 80 77 81 79 79 77 77 76 74 72 78 73 76 79 80 83 88
56 55 55 66 77 82 85 85 82 65 50 67 76 76 77 80 78 82 82 87 84 77 79 77 82 80 80 81 81 81 78 77 79 79 68 77 76 68 71 68 75 79 82 83 81
54 53 58 75 81 84 84 82 65 59 69 64 68 76 76 73 73 76 74 73 71 65 67 72 74 77 78 75 80 79 76 65 63 64 66 79 75 64 70 71 73 75 78 82 87
52 52 62 78 82 82 82 73 55 60 63 70 70 73 69 73 70 71 71 69 72 72 71 66 61 72 75 75 74 75 77 69 56 62 68 75 67 59 74 77 75 69 70 75 80
51 80 88 86 83 83 77 66 59 61 66 65 70 67 67 69 70 69 68 67 68 71 66 67 62 72 72 76 75 75 70 81 72 76 71 71 66 72 75 75 73 66 64 67 75
81 85 83 86 85 83 76 55 63 68 68 68 63 66 64 66 66 67 65 67 67 70 74 70 61 70 71 74 76 75 80 69 72 60 59 66 63 62 64 65 68 63 60 63 68
80 79 84 88 84 82 68 63 65 71 70 66 63 62 65 63 67 64 61 65 68 69 74 74 70 65 70 67 68 71 71 73 76 72 65 61 61 62 61 61 62 61 61 61 64
83 75 86 87 77 76 67 65 56 68 71 68 68 67 63 63 63 63 61 63 68 70 66 69 72 64 64 67 69 70 68 71 67 63 71 71 54 62 61 63 63 62 62 63 64
79 78 88 86 70 66 67 66 67 66 65 65 64 66 67 63 58 62 63 66 68 68 65 69 68 59 59 66 67 66 67 71 72 74 67 66 55 59 61 62 63 63 64 64 65
77 71 76 77 76 68 64 62 61 66 65 66 64 68 65 62 66 61 61 64 68 67 60 67 68 61 60 61 67 61 63 66 70 67 69 69 52 51 56 58 61 63 65 67 68
75 68 67 67 67 67 66 64 60 59 65 66 62 63 63 59 62 60 63 65 67 61 67 69 59 63 61 61 62 61 61 62 64 66 64 66 54 54 57 59 61 65 68 67 66
73 73 74 67 64 66 59 61 60 61 63 61 60 63 65 61 62 60 64 64 63 66 65 66 58 61 57 59 60 59 61 63 64 64 67 59 48 59 62 62 62 63 65 67 68
75 76 73 56 64 67 64 62 61 64 64 66 64 64 62 62 67 69 70 68 67 65 60 61 61 57 55 57 57 54 62 63 64 64 68 58 59 61 62 64 65 66 67 66 67

GFSSW_sfc_temp_099.txt.gz
Temp
62 62 62 62 62 62 63 63 63 63 63 63 63 63 62 62 61 73 80 87 89 79 78 95 96 95 97 93 94 95 70 69 75 71 74 74 73 80 85 85 84 90 92 93 95
62 62 62 62 62 62 62 63 63 63 63 62 63 63 64 63 76 82 85 80 79 79 88 92 89 93 90 91 93 88 63 78 84 79 79 79 79 79 80 80 82 88 94 94 95
62 61 61 61 62 62 62 62 63 62 62 62 62 63 64 66 79 87 79 79 79 81 96 97 97 93 89 93 89 88 69 86 83 81 85 81 80 74 77 75 81 84 88 91 93
61 61 61 61 61 61 62 62 61 62 62 62 62 62 64 75 75 89 78 78 79 91 96 95 94 88 88 86 93 83 88 86 85 85 85 79 79 71 77 78 86 88 92 91 91
61 61 61 61 61 61 61 61 61 61 61 62 62 63 68 78 85 87 78 80 88 90 93 92 89 89 86 91 91 85 89 91 90 86 85 80 74 70 75 82 90 91 91 91 93
61 60 61 60 61 61 61 60 60 60 61 61 62 63 73 77 96 92 93 89 92 92 93 94 92 95 91 91 88 92 91 90 91 88 86 80 73 74 75 84 87 90 90 92 93
60 60 60 60 60 60 60 59 59 59 60 61 63 71 80 84 97 97 96 94 96 96 93 97 97 92 93 88 95 91 85 89 90 90 80 83 74 69 76 84 86 88 90 92 94
60 60 60 60 60 60 59 58 59 60 60 61 63 76 81 94 100 95 98 96 99 100 98 99 97 94 92 95 91 87 88 81 89 86 86 80 65 71 77 83 86 88 90 91 92
59 60 60 60 59 58 57 58 63 63 62 63 70 78 81 84 90 96 97 91 94 97 97 97 93 89 90 84 82 84 79 80 82 91 84 69 66 67 77 82 84 87 89 90 91
59 59 59 59 59 57 56 57 62 64 68 77 84 77 86 84 92 94 98 96 90 90 87 86 87 84 86 82 73 78 80 85 81 87 82 71 67 68 75 78 80 87 88 89 91
59 59 59 58 58 56 61 76 74 76 80 82 84 83 87 95 96 90 94 92 91 86 79 84 79 76 82 86 89 88 83 82 84 88 80 65 65 69 77 79 79 80 83 86 87
58 58 58 58 57 56 66 83 83 85 77 87 86 86 92 93 83 88 95 84 82 76 83 80 75 86 89 89 87 86 85 84 86 88 70 63 68 66 77 80 82 82 80 82 84
58 58 57 57 56 65 85 85 93 91 78 82 87 87 87 92 84 84 90 88 81 78 80 77 82 89 86 85 81 84 84 82 80 84 83 78 70 71 80 83 82 83 82 84 83
58 57 56 55 59 91 86 91 95 92 72 74 80 86 90 90 83 92 93 89 83 79 82 81 89 84 82 81 83 79 89 87 84 80 73 78 56 63 78 76 80 80 80 80 80
58 57 56 52 80 86 88 95 95 89 56 78 82 96 91 85 86 85 94 90 80 81 81 78 82 79 78 81 86 82 89 84 84 81 78 71 68 56 79 74 74 80 82 80 82
57 56 55 68 82 91 94 94 89 67 55 72 82 79 80 85 83 87 86 90 90 83 83 84 90 85 84 87 87 86 84 83 84 82 72 75 71 63 64 74 77 81 82 84 86
55 53 59 82 86 95 94 87 68 61 75 70 74 80 79 78 78 80 77 77 75 69 70 78 80 86 85 82 85 83 79 68 66 68 69 81 71 62 74 75 73 74 77 83 86
53 53 68 87 93 93 88 76 58 62 70 77 76 78 73 78 77 79 77 74 79 80 75 69 65 78 84 81 78 79 80 71 59 65 72 85 68 67 80 73 71 70 71 77 84
52 83 89 97 95 91 81 64 61 69 73 73 75 70 70 74 74 75 75 74 77 79 69 71 70 81 80 85 82 79 74 87 79 81 75 74 69 77 81 78 71 65 66 69 77
82 90 93 96 95 88 77 59 69 74 75 75 68 71 66 71 70 72 70 74 74 77 83 76 66 78 80 82 83 79 86 75 77 64 63 70 66 69 67 68 67 63 62 65 73
81 84 92 102 95 82 68 70 72 77 77 73 69 69 69 70 72 69 69 72 74 77 81 80 75 71 76 74 75 77 75 78 82 78 69 65 64 74 68 64 66 62 62 64 67
88 77 94 97 77 81 75 73 59 74 78 75 75 72 69 70 70 70 67 70 74 77 73 78 76 67 71 77 79 79 77 80 70 68 76 73 50 69 71 71 67 63 63 65 66
82 85 95 92 72 74 74 72 74 73 72 72 71 74 75 71 63 70 69 72 73 75 73 77 72 64 64 72 76 73 78 80 81 81 70 69 50 69 70 68 67 65 65 66 66
82 75 83 88 84 76 70 70 68 73 71 73 71 75 72 70 73 66 68 71 74 73 62 70 74 68 61 66 74 69 71 75 77 70 72 73 53 61 65 64 64 65 67 68 68
85 77 77 74 76 75 73 71 67 66 72 73 68 70 70 66 68 67 70 70 73 66 72 75 66 69 70 69 71 71 70 71 71 73 70 66 58 63 68 68 68 69 68 69 70
78 78 80 76 71 73 62 68 67 68 70 67 67 69 71 68 70 66 70 70 69 72 72 73 65 67 65 68 69 66 71 71 72 74 72 66 57 67 69 72 70 69 70 71 72
86 84 78 62 71 73 71 69 67 70 70 72 71 71 68 69 75 78 78 77 75 70 68 67 67 62 58 69 66 61 68 71 72 75 75 62 64 66 66 69 70 70 71 71 72

GFSSW_sfc_temp_102.txt.gz
Temp
63 63 63 63 63 63 63 63 63 63 63 63 63 63 63 64 63 70 76 86 89 80 80 94 93 93 96 92 95 91 62 65 72 73 72 77 75 81 84 86 87 87 89 91 95
62 62 62 62 62 62 63 63 63 63 63 63 63 63 63 64 70 75 87 81 81 81 88 90 88 93 88 90 92 76 60 65 84 82 74 75 77 79 81 82 84 87 91 94 95
62 62 62 62 62 62 62 62 63 62 62 63 63 63 63 66 73 85 85 81 80 83 93 96 96 92 86 92 91 73 65 78 82 85 80 80 78 77 76 77 83 82 86 91 93
62 62 61 61 61 61 61 62 62 62 62 62 62 63 63 72 71 88 80 80 80 90 90 93 93 87 85 85 93 71 82 86 86 85 80 79 81 73 71 79 87 89 91 91 91
61 61 61 61 61 61 61 61 61 61 61 62 62 63 69 74 81 86 79 81 89 88 88 90 89 88 83 90 91 84 87 88 88 86 82 80 77 71 71 84 90 90 91 90 92
61 61 61 61 61 61 61 60 60 60 61 61 62 63 70 71 98 91 91 89 92 89 89 94 92 94 90 91 90 93 84 88 86 85 82 76 72 75 73 84 85 87 89 91 93
60 60 60 61 61 61 61 60 60 60 60 61 63 70 74 81 99 97 95 92 95 92 91 97 98 93 92 88 96 90 84 89 82 82 80 80 69 67 75 82 83 87 89 91 93
60 60 60 60 60 60 59 59 59 60 61 62 63 75 74 97 100 97 97 94 98 98 98 100 100 93 91 95 92 86 86 75 84 84 84 81 63 66 73 77 81 87 89 90 92
60 60 60 60 60 59 58 58 60 64 63 63 67 74 78 88 91 97 99 93 95 97 98 101 95 88 90 82 81 83 75 77 78 88 78 75 61 65 73 77 82 86 88 90 90
59 59 59 59 59 58 57 57 64 63 66 75 80 74 84 84 93 96 99 97 91 92 90 88 85 80 82 80 70 75 77 79 77 81 77 69 63 67 69 70 80 85 87 88 88
59 59 58 59 58 57 60 74 72 72 78 79 82 82 88 94 97 92 97 93 92 87 77 82 76 73 79 83 85 85 83 79 81 82 76 72 65 66 70 74 81 84 86 87 87
59 58 58 58 57 56 63 77 85 88 77 85 88 89 94 95 83 88 96 84 82 76 82 79 73 83 87 87 84 83 79 79 74 79 74 70 65 69 69 71 78 83 85 83 82
58 58 57 57 56 61 77 86 95 94 78 83 88 86 88 91 84 84 90 87 80 77 79 76 81 87 86 84 82 83 82 76 63 78 73 69 59 62 64 67 69 83 87 87 83
58 58 57 55 61 86 86 93 97 95 70 75 81 87 90 90 82 94 93 88 83 77 80 80 88 84 83 81 85 78 88 78 77 72 63 74 53 65 66 64 64 75 80 84 84
58 57 56 54 77 84 91 97 97 90 54 78 82 97 92 83 87 86 95 88 79 80 82 77 81 82 80 82 87 81 90 85 86 80 69 71 68 64 66 61 64 70 81 83 85
57 56 55 67 75 88 97 97 90 66 54 73 82 80 80 84 85 87 86 90 90 82 84 82 90 88 84 87 88 90 84 85 83 81 66 72 73 61 57 60 77 80 82 83 85
55 54 57 82 84 97 96 87 66 59 76 71 75 80 79 77 80 81 78 76 73 68 70 78 81 88 88 81 87 85 78 66 64 66 66 78 73 65 64 66 63 72 71 76 80
54 52 67 84 95 96 90 74 50 57 68 78 79 79 73 79 78 78 75 72 79 79 74 69 67 81 87 81 79 80 78 69 57 61 68 78 61 64 72 68 66 72 73 75 73
53 82 83 91 95 95 80 50 48 58 72 74 76 72 71 70 75 76 74 73 79 81 64 70 71 85 84 86 82 78 73 84 75 77 72 65 64 69 73 70 69 68 70 72 75
73 86 89 100 99 90 74 50 67 77 77 77 68 73 64 65 69 73 72 74 73 81 81 74 65 80 81 84 83 79 85 71 74 60 60 62 62 62 64 64 65 63 64 67 72
76 79 94 101 97 82 60 58 74 79 79 74 66 69 69 65 72 70 67 75 78 78 81 79 71 72 79 74 73 75 73 76 78 75 65 56 56 72 70 67 63 62 63 65 68
83 73 95 98 77 80 68 75 62 77 80 78 68 64 70 70 67 66 65 72 77 77 72 79 74 65 71 81 84 82 77 78 68 65 72 57 53 69 72 71 67 64 63 66 68
75 83 96 94 71 74 76 75 77 76 75 75 73 75 76 70 64 66 70 75 77 76 68 74 71 61 66 73 78 73 78 80 80 79 67 59 55 70 70 67 67 67 66 66 69
76 74 84 86 85 78 72 72 71 76 75 76 74 77 73 69 73 67 70 74 76 77 66 72 71 65 55 62 73 69 74 78 77 68 71 61 55 59 63 62 65 67 69 69 67
77 78 80 73 76 76 75 73 69 69 75 76 71 73 72 64 66 68 73 72 75 67 75 74 63 69 70 72 72 73 73 75 71 73 65 59 58 59 63 63 66 68 68 68 69
74 76 83 77 74 75 65 70 69 71 72 70 69 72 74 69 66 62 70 71 70 74 73 73 61 67 65 72 71 68 72 73 73 74 69 67 61 67 67 68 66 67 68 69 71
83 86 79 65 75 74 73 72 71 72 73 75 74 73 71 72 76 78 81 79 77 72 69 68 65 61 57 68 68 62 69 72 73 75 74 61 65 69 65 65 66 67 70 70 71

GFSSW_sfc_temp_105.txt.gz
Temp
63 62 62 62 62 62 63 63 63 63 63 63 63 63 63 63 63 63 63 77 76 80 81 84 85 85 84 82 85 76 61 59 65 68 70 77 75 81 77 83 83 86 83 86 88
62 62 62 62 62 62 62 62 63 63 63 63 63 63 63 63 62 65 77 81 81 81 82 81 79 83 76 80 82 69 59 60 71 76 72 76 77 77 78 80 80 82 87 89 88
62 62 62 62 62 62 61 62 62 62 62 62 62 63 63 62 60 72 82 81 81 81 86 87 87 84 76 80 80 72 61 67 70 76 77 77 75 78 75 73 78 78 82 86 84
62 62 61 62 61 61 61 62 61 61 62 62 62 62 63 61 63 80 81 82 81 83 84 83 83 77 74 74 84 72 74 72 80 79 79 75 77 69 72 68 83 85 86 86 83
61 61 61 61 61 61 61 61 61 61 61 61 62 63 61 61 70 82 80 80 81 81 81 79 77 78 73 78 82 79 78 71 82 76 72 78 72 69 70 77 87 88 87 84 83
61 61 60 61 61 61 61 60 60 60 60 61 62 63 58 60 88 84 83 80 83 79 80 82 81 84 80 80 77 86 76 68 79 76 75 72 70 74 73 78 85 86 84 84 84
60 60 60 60 60 60 60 59 59 59 60 61 62 65 65 68 90 86 85 78 82 82 79 86 87 82 82 77 85 85 76 74 78 76 74 75 67 68 74 79 82 84 84 85 85
60 60 60 60 60 60 59 59 59 59 61 61 63 63 59 89 87 90 86 83 86 86 85 88 91 83 77 82 83 78 73 59 71 76 76 74 58 69 73 72 71 81 84 85 86
60 60 60 60 59 59 58 58 60 64 65 63 58 57 64 85 83 89 89 85 85 85 86 95 86 74 78 70 65 70 65 66 71 78 73 71 60 68 72 70 68 78 83 84 85
59 60 59 58 58 57 57 58 62 60 63 69 73 61 71 78 84 90 91 91 84 84 83 79 73 64 65 61 54 61 64 66 67 74 73 65 63 68 70 68 67 77 81 82 85
59 59 58 58 58 56 58 63 59 59 66 65 68 74 81 85 90 88 90 86 83 77 66 71 61 56 63 70 74 74 72 69 75 76 67 63 61 66 68 67 67 77 77 79 82
59 58 58 57 57 56 54 63 71 77 65 74 78 81 85 85 79 84 88 77 74 65 71 63 59 70 77 77 76 74 72 64 66 70 65 63 60 65 67 67 67 72 77 80 78
58 58 57 56 56 52 64 73 84 83 64 76 78 81 81 84 77 78 82 78 72 67 69 63 69 79 77 75 74 71 65 64 65 64 63 62 58 59 66 67 66 69 75 83 78
58 57 56 55 56 73 75 81 83 84 55 68 72 80 83 82 75 89 86 79 75 68 70 68 78 77 74 73 75 62 78 69 63 59 52 65 46 56 62 63 64 66 68 75 78
58 57 56 55 54 69 81 85 83 76 43 74 75 90 84 74 75 80 89 80 71 73 70 66 73 73 72 75 79 72 78 70 66 58 61 60 51 56 62 60 63 65 66 71 79
57 56 55 59 59 70 81 85 77 53 49 70 79 75 73 75 78 83 81 81 81 74 74 73 82 78 75 82 82 85 79 72 62 55 49 59 57 52 57 61 62 65 68 71 78
56 54 53 70 70 85 86 75 52 47 67 69 69 73 71 69 74 76 72 67 61 54 57 70 74 78 83 70 77 76 63 51 51 46 50 64 58 55 60 62 61 62 66 72 76
54 53 58 70 80 84 80 63 45 58 60 72 74 73 67 71 70 73 68 63 70 67 61 56 56 72 80 71 66 65 63 52 48 50 54 64 49 53 65 65 65 65 66 70 71
53 68 71 79 77 77 67 47 48 59 68 67 71 65 63 70 68 69 65 64 68 68 56 58 60 78 81 81 74 66 58 69 54 58 53 51 57 64 65 64 65 64 65 65 67
57 69 76 88 88 78 62 52 56 67 72 73 60 64 58 60 61 61 61 67 71 74 67 64 52 71 76 77 75 64 68 56 55 45 44 49 55 53 57 60 62 62 63 63 66
62 66 82 91 85 68 57 58 66 76 76 68 63 61 61 59 60 56 56 68 73 71 71 61 56 61 72 61 61 63 58 57 58 55 48 45 46 62 59 59 60 61 63 66 65
70 61 85 87 64 67 59 66 65 74 76 71 65 65 60 64 59 50 61 63 74 71 62 62 60 54 58 72 73 67 63 60 51 50 56 51 47 61 62 61 60 60 63 67 68
61 69 85 82 59 63 65 72 73 71 71 71 67 66 64 61 58 62 64 74 74 70 59 62 52 48 53 54 65 60 66 60 61 61 56 52 48 61 62 61 62 61 64 66 67
62 61 70 71 72 67 64 66 67 75 73 73 70 71 65 58 61 59 65 73 73 69 67 64 59 52 43 49 58 58 66 67 57 52 52 52 52 55 59 59 63 63 64 65 66
65 65 70 60 65 67 67 68 68 66 71 70 65 68 65 55 56 57 66 66 71 66 66 62 52 57 59 65 66 65 66 68 58 55 55 51 53 57 59 60 63 65 64 64 66
62 63 68 65 68 66 59 62 67 68 67 65 62 70 66 58 56 54 63 58 58 63 58 63 52 56 53 65 67 63 66 68 67 62 58 57 52 61 62 63 64 64 66 65 65
70 71 65 61 65 63 63 66 68 68 68 72 69 65 62 64 67 65 63 65 65 58 57 56 54 50 47 58 59 52 60 63 64 66 63 52 56 61 59 61 63 65 67 66 65

GFSSW_sfc_temp_108.txt.gz
Temp
62 62 62 62 62 62 62 62 62 63 63 63 63 62 62 62 62 60 59 73 71 79 81 80 78 78 79 76 82 76 60 56 61 67 64 76 75 75 78 79 81 83 80 82 83
62 62 62 62 62 62 62 62 62 62 63 62 62 62 62 62 58 58 72 78 78 79 77 77 74 77 69 73 74 68 58 62 68 68 68 72 75 72 76 76 77 79 82 83 82
62 62 61 62 62 61 61 61 61 61 61 62 62 62 62 61 55 68 79 79 80 80 82 81 79 77 68 72 73 68 61 70 72 72 71 74 73 78 74 69 76 73 78 81 80
62 61 61 61 61 61 61 61 61 61 61 61 62 62 62 55 59 79 80 78 80 80 79 78 76 69 68 68 76 66 76 74 77 77 73 72 75 70 72 72 82 82 82 81 80
61 61 61 61 60 61 61 61 61 60 60 60 62 62 57 54 63 81 80 79 78 78 76 76 72 71 67 72 75 71 75 77 77 76 77 77 72 69 71 79 84 85 81 80 79
60 61 60 60 60 60 60 60 60 60 60 60 62 62 53 54 81 80 78 77 78 75 74 77 75 77 73 74 71 79 75 76 74 71 77 72 71 73 72 77 81 84 82 80 79
60 60 60 60 60 60 60 59 59 59 60 60 62 62 58 62 83 79 78 73 74 75 74 80 80 73 74 73 78 77 65 71 72 70 71 73 64 69 75 77 80 83 82 81 82
60 60 60 60 60 60 59 59 59 60 61 61 62 58 54 78 77 82 77 75 77 75 77 79 82 76 73 75 76 69 64 59 70 68 72 70 58 68 73 75 75 82 82 80 80
60 60 60 60 59 58 58 58 59 62 64 63 52 51 57 80 76 80 81 78 77 74 77 88 79 71 73 64 59 60 54 57 60 69 69 66 58 66 71 73 74 77 78 79 79
59 59 59 58 57 57 57 58 59 60 64 66 67 54 65 72 77 83 83 84 77 76 76 73 68 61 60 57 49 55 59 58 62 68 69 62 61 65 68 70 71 74 73 79 80
59 59 58 57 57 56 53 56 56 54 56 60 62 65 74 76 81 82 84 80 74 70 60 66 59 54 61 61 65 63 67 67 68 68 66 60 59 62 66 69 69 70 70 77 80
59 58 58 57 56 55 51 54 63 67 59 66 71 71 78 75 73 79 83 73 69 62 64 60 55 65 69 69 67 65 64 60 63 66 63 60 59 63 66 67 69 69 71 75 78
58 58 57 56 56 50 54 62 71 72 56 69 69 70 73 76 73 74 77 71 68 61 63 56 64 73 69 66 66 64 59 59 61 64 64 61 58 58 64 68 67 68 70 74 77
57 57 56 55 54 59 62 70 70 71 49 61 63 75 77 77 69 84 81 74 67 64 64 61 72 71 67 65 67 56 72 71 62 60 51 62 49 54 61 63 65 66 68 71 78
57 57 55 54 51 60 72 68 73 67 39 69 68 82 75 71 69 74 82 73 66 67 64 61 65 66 66 69 72 67 73 66 65 57 56 55 50 50 61 60 63 65 68 70 74
57 56 55 53 49 61 67 68 67 50 41 64 73 69 66 68 71 75 75 73 75 67 65 66 75 70 70 76 76 76 68 62 58 52 46 57 51 51 55 60 65 67 67 71 71
55 54 53 62 63 69 69 63 48 42 63 61 62 65 66 62 67 71 67 61 58 50 51 63 66 71 75 67 69 71 59 44 43 45 44 54 54 52 60 64 66 65 66 68 70
54 52 52 60 61 68 65 55 41 56 55 64 65 66 61 64 60 67 62 58 62 58 51 51 51 64 73 68 64 62 61 47 41 42 46 59 51 57 62 63 64 66 66 68 71
52 51 55 61 63 66 58 44 45 52 62 63 62 57 54 63 63 62 54 56 61 59 53 50 54 70 74 75 71 61 59 62 52 56 49 50 55 60 62 61 64 63 65 65 66
49 55 61 75 72 64 54 46 51 62 65 64 54 58 51 53 53 55 51 60 64 67 60 55 50 60 71 72 70 66 69 58 56 45 44 47 51 51 57 59 61 61 61 63 65
53 57 71 74 72 60 48 49 59 66 67 60 57 55 53 52 50 48 53 61 66 66 64 52 50 56 63 57 58 60 56 58 55 51 45 41 48 59 59 60 58 61 62 62 64
54 54 73 75 60 54 52 59 64 67 68 63 61 58 56 56 50 50 53 59 68 66 57 55 49 44 53 65 67 62 57 53 50 51 46 44 48 59 59 59 61 62 64 64 64
52 57 72 74 54 53 56 64 66 66 64 64 60 61 64 57 49 55 61 71 71 63 54 55 47 41 48 55 64 58 60 53 52 50 46 43 48 59 58 58 61 62 62 63 64
52 53 61 62 58 55 54 57 59 70 67 66 64 62 61 55 56 56 62 70 72 68 66 62 46 44 40 46 54 54 60 59 52 47 48 47 51 54 56 55 59 61 62 63 64
54 55 59 53 58 56 59 60 61 59 64 65 61 62 57 46 50 52 60 60 67 67 63 56 48 48 55 59 61 60 61 62 59 53 49 50 51 55 57 57 59 62 63 63 63
55 55 58 53 56 59 53 54 60 60 61 57 56 61 58 50 50 48 52 50 51 60 53 54 51 52 52 62 59 57 61 61 61 57 54 52 51 60 63 63 62 63 64 63 64
59 60 58 52 56 54 52 57 60 62 63 64 62 57 56 58 60 58 63 58 51 51 52 50 49 47 45 55 54 48 55 57 58 58 56 49 53 60 60 61 62 63 65 64 65

GFSSW_sfc_temp_111.txt.gz
Temp
62 62 62 62 62 62 62 62 62 62 62 62 62 62 62 62 61 58 57 72 71 78 80 76 75 74 74 73 79 75 59 56 60 62 61 74 71 77 81 75 78 79 75 76 77
62 62 61 61 61 62 61 61 61 61 62 62 61 62 62 62 55 54 70 77 78 79 76 73 70 73 67 69 72 67 57 60 69 69 66 70 74 75 74 74 71 74 77 78 76
62 61 61 61 61 61 61 61 61 61 61 61 61 62 61 60 54 66 77 78 78 78 76 77 76 74 65 68 69 67 61 70 72 73 73 70 72 76 72 68 72 71 72 75 75
61 61 61 61 61 61 61 61 61 61 61 61 60 62 62 53 56 75 80 78 78 76 75 75 73 66 63 65 72 63 72 74 73 72 70 70 74 71 72 68 79 77 76 75 74
61 61 61 61 61 61 61 61 60 60 60 60 60 62 56 52 62 78 80 78 76 75 74 73 69 67 64 68 71 68 72 76 76 74 73 74 70 70 69 74 80 79 78 76 75
60 60 60 60 60 60 60 60 60 60 60 60 60 62 51 53 78 78 76 74 74 72 71 73 72 73 69 70 69 74 72 74 74 73 72 67 66 68 72 78 78 78 76 76 76
60 60 60 60 60 60 60 59 59 59 60 60 61 61 55 62 80 76 74 69 73 72 69 75 77 72 69 68 75 71 64 71 71 71 69 73 67 67 73 79 76 77 76 77 77
60 60 60 60 60 60 59 58 58 60 61 61 62 56 52 74 74 77 72 72 72 69 70 76 78 71 68 71 72 64 63 59 69 69 69 69 57 68 73 75 74 77 77 76 77
60 60 59 59 59 58 57 58 59 61 63 62 51 50 56 75 71 75 76 74 72 68 70 86 76 67 68 62 57 59 51 56 63 71 69 66 57 64 72 74 73 77 77 76 76
59 59 59 58 57 57 56 58 60 61 62 64 64 52 63 69 73 78 76 78 72 73 73 70 64 59 57 55 48 52 53 55 59 66 68 61 59 64 69 71 71 74 77 76 76
59 58 58 58 57 55 53 54 54 52 54 58 60 64 70 74 77 76 79 75 71 68 59 63 57 53 58 61 62 60 58 60 63 69 65 61 58 62 65 70 69 70 71 74 74
58 58 58 57 56 56 49 53 59 62 57 63 67 67 73 70 68 73 79 69 65 58 61 58 53 63 67 66 64 61 59 55 62 64 62 59 60 60 64 64 67 67 68 74 75
57 57 57 56 55 50 52 60 67 62 52 64 64 67 69 72 69 70 75 69 63 58 58 55 61 69 66 62 62 57 60 58 58 64 66 61 57 60 64 66 68 68 70 71 75
57 57 56 54 53 56 59 63 66 65 47 58 61 71 72 73 66 80 78 72 64 61 61 58 67 67 62 61 63 49 67 67 61 56 51 61 49 56 58 60 65 67 67 67 71
57 57 55 53 53 58 67 63 63 64 39 65 64 79 70 69 69 70 77 72 63 63 61 58 61 61 60 64 67 61 72 68 62 54 51 53 50 50 58 57 62 65 68 69 69
57 56 55 51 48 58 63 63 65 49 42 60 68 64 67 64 67 72 72 73 71 64 61 63 70 67 65 70 70 70 63 58 54 51 46 52 55 49 55 59 63 68 69 68 71
55 54 53 59 63 62 64 62 49 42 60 59 58 62 61 60 63 67 64 60 56 49 48 59 62 66 71 60 64 63 51 42 43 42 43 49 52 54 59 64 65 66 66 68 68
53 52 52 57 59 66 62 55 40 54 52 62 62 60 58 60 57 61 59 55 58 55 49 48 49 62 69 65 60 56 55 46 40 40 44 50 48 52 60 63 63 67 70 67 67
52 51 52 58 60 62 59 44 45 50 59 60 58 53 50 58 58 58 52 53 57 55 49 47 51 66 69 69 68 58 55 59 48 45 48 48 55 60 61 60 61 62 64 65 67
49 51 58 67 68 64 55 46 50 59 61 60 50 54 47 50 53 51 51 57 59 62 57 52 48 57 66 67 65 63 64 52 48 41 42 45 48 51 54 57 61 59 61 62 65
52 55 67 67 69 59 49 49 58 64 65 57 53 52 49 50 48 47 49 59 62 61 60 49 48 55 60 55 53 58 53 51 52 47 44 41 45 57 57 57 58 60 63 62 64
48 53 68 68 59 50 51 56 61 62 63 60 59 56 52 52 48 47 49 56 65 61 55 51 46 44 52 61 61 57 51 51 48 46 45 43 49 58 60 59 59 59 61 64 65
48 50 65 67 52 51 53 61 63 63 61 60 58 58 56 50 47 51 56 66 65 60 55 51 45 41 49 53 57 53 56 47 49 49 45 44 48 58 59 60 61 58 62 62 62
50 53 58 60 55 53 51 55 56 66 64 63 60 59 54 51 52 50 57 65 66 62 67 59 43 43 39 45 50 50 55 55 49 48 45 49 51 53 55 55 58 60 62 62 61
52 51 53 51 55 53 54 56 58 56 59 59 57 57 53 46 48 50 56 58 65 66 59 53 45 45 48 53 55 55 57 57 51 51 51 51 51 53 56 57 59 61 62 62 61
52 51 52 50 50 53 50 50 57 57 56 54 53 57 54 48 47 48 52 51 54 57 53 50 44 46 46 55 57 53 57 58 55 55 51 55 53 60 60 59 60 61 62 62 62
54 54 54 51 51 51 49 54 57 58 60 60 59 54 54 55 56 55 55 53 50 51 51 49 45 42 38 52 54 46 53 53 56 56 55 50 56 60 57 57 58 60 62 62 62

GFSSW_sfc_temp_114.txt.gz
Temp
62 62 61 61 62 62 62 61 61 61 62 62 61 61 62 61 61 56 56 70 70 78 78 74 74 71 73 72 76 71 58 56 59 59 62 73 70 76 78 73 75 76 71 72 74
62 62 61 61 61 61 61 61 61 61 61 61 61 61 62 61 53 53 69 76 77 79 73 71 68 70 64 67 70 66 57 60 66 67 64 72 74 73 73 70 69 68 72 74 73
62 61 61 61 61 61 61 61 61 61 61 61 61 60 62 60 51 65 76 77 78 79 76 76 73 71 63 66 68 67 60 69 70 72 71 73 73 75 70 66 70 65 68 70 71
61 61 61 61 61 61 61 61 61 61 61 61 60 61 61 53 55 70 77 78 78 74 75 73 70 65 62 62 70 63 70 72 73 74 70 69 74 70 70 70 75 72 72 71 70
61 61 61 61 61 61 61 61 60 60 60 60 60 61 54 50 61 76 79 78 73 72 72 70 67 65 62 65 69 64 71 74 73 74 72 75 70 68 67 73 77 75 73 71 71
61 60 60 61 61 61 61 60 60 59 60 60 60 61 52 51 75 74 73 71 70 69 69 71 69 71 67 66 66 70 70 72 72 70 71 70 65 66 68 74 74 73 71 72 72
60 60 60 60 60 60 60 60 59 60 60 60 61 60 54 62 75 72 71 67 70 70 67 70 74 70 67 64 71 70 63 69 69 68 65 67 61 61 72 75 73 72 73 74 74
60 60 60 59 59 59 59 58 58 59 61 61 61 54 51 71 71 73 70 69 72 68 69 74 77 70 65 69 70 63 61 58 66 66 67 66 56 66 72 72 71 73 73 74 74
59 59 59 59 58 57 57 57 59 61 62 62 51 48 54 73 70 73 72 71 69 65 69 84 74 64 67 60 55 56 50 55 61 68 66 64 57 67 73 71 70 71 73 73 72
59 59 58 58 57 56 56 57 61 61 61 62 62 51 62 66 71 73 72 74 69 69 68 67 62 57 56 54 48 52 51 52 57 63 65 63 59 64 71 71 70 69 73 72 72
58 58 58 58 57 56 52 52 53 52 52 58 57 61 68 72 74 72 75 70 67 63 57 60 55 52 57 59 60 59 56 55 61 67 63 60 58 63 65 69 68 69 72 73 72
58 58 58 57 56 56 50 53 60 61 54 60 63 64 69 68 66 70 76 66 62 57 60 56 51 60 65 63 61 58 56 53 61 64 62 60 59 61 65 67 69 69 67 72 73
57 57 57 56 55 50 50 59 64 60 50 61 61 63 66 69 66 68 72 67 61 57 57 53 58 66 65 61 60 54 53 53 57 61 63 62 58 60 63 64 69 68 69 70 72
57 57 56 55 51 54 56 61 62 62 46 56 59 68 69 70 65 76 74 70 62 58 59 56 64 65 60 59 60 47 64 63 59 55 49 59 48 56 60 60 64 66 67 67 69
57 56 56 54 50 58 67 60 57 60 37 62 61 74 65 67 68 67 75 70 61 61 59 56 58 58 57 61 64 59 67 62 61 52 50 52 48 53 59 57 60 66 67 67 69
57 56 56 51 49 59 63 59 62 48 40 58 65 62 63 63 65 69 69 71 69 62 59 60 66 65 63 66 67 67 61 56 52 50 43 50 50 49 55 59 61 66 69 67 69
55 54 53 57 61 62 62 63 48 41 58 57 55 59 59 57 61 64 62 57 54 48 46 57 60 63 67 58 60 58 51 42 40 42 42 46 49 50 56 62 64 66 68 69 69
53 52 52 55 56 64 64 57 40 52 51 60 58 57 54 58 56 58 56 53 56 53 46 47 47 59 65 62 57 54 53 44 38 38 43 50 46 52 59 61 66 68 70 69 67
52 49 49 56 58 61 60 44 46 50 57 58 55 51 50 56 56 56 51 53 56 54 49 45 49 63 66 65 64 55 51 55 46 42 43 46 52 58 60 60 63 66 68 65 68
47 51 56 61 60 62 55 45 50 58 60 58 49 52 45 49 51 51 51 56 58 60 53 50 45 54 63 64 62 58 61 50 45 39 38 44 47 48 55 58 61 62 63 65 67
49 55 63 61 61 59 48 48 56 62 62 58 51 50 47 47 47 46 48 56 60 59 55 50 48 54 56 53 50 55 51 49 49 45 41 39 45 57 57 60 60 62 61 62 65
47 53 62 63 56 46 48 54 60 61 61 59 58 54 50 50 46 46 50 55 62 59 51 49 46 43 50 57 57 53 49 49 46 43 42 43 44 59 60 61 62 62 63 62 63
48 49 61 63 49 47 50 59 61 61 58 58 56 56 53 48 45 49 53 62 63 58 53 52 43 41 48 51 55 51 52 45 46 45 43 45 44 59 59 57 60 61 63 63 63
50 52 55 55 50 51 50 52 56 63 60 58 56 57 53 49 46 47 53 61 62 59 64 57 42 44 40 43 48 49 53 52 47 45 43 46 49 53 56 54 57 60 62 63 63
50 48 50 49 53 51 52 53 56 53 57 57 55 54 51 43 47 47 53 54 60 61 54 51 43 43 48 52 53 52 53 53 49 48 49 50 49 55 55 54 59 61 61 61 61
50 50 49 48 48 49 47 48 54 52 53 52 52 54 52 46 45 45 48 48 48 55 47 47 43 42 46 55 55 52 53 54 53 51 50 50 48 55 56 58 59 61 61 60 61
51 51 52 48 48 49 47 50 55 54 57 58 55 52 51 52 54 51 50 49 48 51 50 48 48 43 38 49 55 49 50 51 52 54 53 47 51 56 54 56 59 61 62 61 61

GFSSW_sfc_temp_117.txt.gz
Temp
62 62 62 62 62 62 62 62 62 62 62 62 61 61 61 62 61 62 66 79 78 77 80 80 81 81 81 78 78 74 62 57 60 66 65 76 70 76 82 78 79 79 79 80 79
62 61 61 62 62 62 62 62 62 62 62 61 61 61 61 62 59 62 76 76 77 78 81 80 77 80 78 77 78 73 61 61 66 68 69 73 74 76 76 75 71 74 78 79 79
62 61 61 61 62 62 62 62 61 61 61 62 61 61 61 62 63 76 77 77 78 80 84 84 82 81 75 78 75 73 64 70 71 75 75 74 75 77 74 70 74 73 74 76 78
61 61 61 61 61 62 62 61 61 61 61 61 60 61 61 60 67 79 77 78 78 83 84 81 79 76 73 72 77 69 74 74 76 75 75 72 74 73 72 73 81 79 78 78 78
61 61 61 61 61 61 61 61 61 60 60 60 61 61 60 63 72 83 78 79 80 81 81 79 77 76 73 75 76 73 75 77 79 76 75 76 71 68 67 78 80 79 78 78 79
61 60 60 60 60 61 61 60 60 60 60 61 61 61 61 66 81 79 80 78 80 80 80 82 80 80 77 75 76 78 77 75 74 76 75 69 66 67 68 77 77 78 78 79 79
60 60 60 60 60 60 60 60 59 60 60 61 61 63 63 70 80 79 79 77 80 82 79 81 83 80 78 75 79 78 72 72 72 74 69 68 60 63 72 77 76 77 78 79 80
59 60 60 59 59 59 58 58 59 59 60 61 61 62 67 78 80 79 82 78 81 83 83 83 85 81 78 79 76 72 72 65 69 72 69 69 58 65 73 73 71 76 78 78 80
59 59 59 59 58 57 56 57 59 60 62 62 61 62 69 77 75 81 84 78 79 81 83 85 83 77 78 74 69 68 64 66 65 72 67 64 65 68 72 70 69 72 77 79 79
59 59 59 58 58 56 56 58 63 64 64 64 65 61 71 74 78 78 82 82 77 77 78 77 76 73 73 72 64 65 66 67 67 69 70 66 66 71 73 68 71 70 75 79 79
58 58 58 58 57 56 57 62 63 61 62 68 69 69 74 80 82 77 82 81 78 75 69 72 69 66 71 73 72 72 70 67 68 72 70 67 67 70 70 68 68 68 74 78 79
58 57 58 57 57 56 55 65 71 72 65 67 67 69 74 78 73 75 83 75 73 67 69 69 65 72 74 73 72 71 69 64 66 69 69 67 66 70 72 70 72 68 70 73 79
58 57 57 56 56 54 60 68 73 75 64 68 69 70 74 78 74 73 79 76 72 67 69 67 70 72 72 70 70 70 69 65 66 67 69 68 62 64 70 71 71 68 70 73 77
57 57 57 55 56 63 65 72 71 73 62 65 70 75 76 78 72 81 83 79 72 68 70 70 72 71 70 69 71 67 73 71 66 66 62 66 57 60 65 67 68 67 67 70 75
57 57 56 55 61 64 73 71 69 69 48 69 71 83 78 75 77 75 83 79 71 70 71 67 68 69 67 70 73 69 73 73 70 65 65 62 63 64 63 62 65 69 70 69 73
57 56 55 54 55 68 71 71 71 59 47 64 72 71 72 75 74 76 78 81 77 72 72 71 75 74 73 74 75 73 70 68 67 64 57 65 65 62 59 65 69 73 75 72 72
55 54 54 61 72 70 71 71 59 52 65 61 64 69 70 68 70 73 71 69 67 61 62 68 70 74 75 71 73 69 69 55 53 54 57 63 60 68 68 70 72 72 74 76 71
53 52 55 60 65 68 73 67 50 58 59 67 65 66 65 66 64 67 67 65 68 67 63 60 58 70 75 73 69 68 70 63 51 54 61 61 58 66 67 70 74 76 76 73 74
52 60 61 66 63 67 71 56 56 59 64 63 64 61 61 64 65 64 63 66 69 70 62 60 61 72 73 75 76 67 62 74 63 61 61 61 63 67 66 68 71 74 74 70 74
57 64 69 67 68 72 66 52 60 64 66 65 58 60 58 60 61 62 62 66 67 69 69 66 60 69 72 74 72 73 76 64 65 53 53 55 58 65 61 65 70 72 73 74 75
63 69 70 70 70 71 60 59 63 68 67 65 61 60 60 59 60 59 60 66 69 67 69 67 65 66 69 68 67 68 68 67 70 65 59 55 60 65 66 67 66 72 75 75 74
64 66 71 72 68 60 64 62 60 68 70 69 67 64 61 60 60 60 61 64 70 70 66 66 67 63 64 69 68 69 66 68 64 57 63 63 62 66 67 69 69 68 70 75 77
63 65 73 73 63 64 64 67 67 68 65 67 65 66 65 61 58 61 62 70 70 69 66 67 62 59 61 67 68 65 65 66 65 67 61 61 64 63 68 67 66 65 68 70 71
64 65 68 67 63 64 63 64 64 68 65 64 64 67 65 62 63 61 64 69 70 68 64 67 60 60 58 60 63 60 63 65 67 64 65 65 62 58 61 63 62 65 67 66 68
63 61 61 63 64 63 64 64 63 62 66 66 63 61 63 59 61 60 64 67 69 65 65 67 59 59 60 63 63 62 61 62 63 65 65 67 65 66 63 62 63 64 65 64 63
63 64 61 60 58 63 58 63 63 61 65 64 62 63 65 60 60 58 62 63 63 67 64 62 57 60 58 61 61 60 64 64 63 62 64 64 65 67 69 66 63 62 62 63 64
62 62 64 53 61 65 62 63 63 65 65 66 65 65 63 64 66 68 68 65 64 63 62 61 61 58 54 58 60 56 61 63 63 63 63 62 63 65 63 62 62 62 64 64 64